[[{"header":{"parameterUnit":"m.s-1","parameterCategory":1,"la1":31.0,"la2":29.5877,"lo1":-88.7671,"lo2":-86.6584,"dy":0.0162,"dx":0.0185,"nx":115,"ny":88,"refTime":"2024-08-06T12:00:00:Z","depth":0,"parameterNumber":2,"parameterNumberName":"U-component_of_WINDS"},"data":[0.0,0.0,0.0,0.0,0.0,0.0,0.0,0.0,0.0,0.0,0.0,0.0,0.0,0.0,0.0,0.0,0.0,0.0,0.0,0.0,0.0,0.0,0.0,0.0,0.0,0.0,0.0,0.0,0.0,0.0,0.0,0.0,0.0,0.0,0.0,0.0,0.0,0.0,0.0,0.0,0.0,0.0,0.0,0.0,0.0,0.0,0.0,0.0,0.0,0.0,0.0,0.0,0.0,0.0,0.0,0.0,0.0,0.0,0.0,0.0,0.0,0.0,0.0,0.0,0.0,0.0,0.0,0.0,0.0,0.0,0.0,0.0,0.0,0.0,0.0,0.0,0.0,0.0,0.0,0.0,0.0,0.0,0.0,0.0,0.0,0.0,0.0,0.0,0.0,0.0,0.0,0.0,0.0,0.0,0.0,0.0,0.0,0.0,0.0,0.0,0.0,0.0,0.0,0.0,0.0,0.0,0.0,0.0,0.0,0.0,0.0,0.0,0.0,0.0,0.0,0.0,0.0,0.0,0.0,0.0,0.0,0.0,0.0,0.0,0.0,0.0,0.0,0.0,0.0,0.0,0.0,0.0,0.0,0.0,0.0,0.0,0.0,0.0,0.0,0.0,0.0,0.0,0.0,0.0,0.0,0.0,0.0,0.0,0.0,0.0,0.0,0.0,0.0,0.0,0.0,0.0,0.0,0.0,0.0,0.0,0.0,0.0,0.0,0.0,0.0,0.0,0.0,0.0,0.0,0.0,0.0,0.0,0.0,0.0,0.0,0.0,0.0,0.0,0.0,0.0,0.0,0.0,0.0,0.0,0.0,0.0,0.0,0.0,0.0,0.0,0.0,0.0,0.0,0.0,0.0,0.0,0.0,0.0,0.0,0.0,0.0,0.0,0.0,0.0,0.0,0.0,0.0,0.0,0.0,0.0,0.0,0.0,0.0,0.0,0.0,0.0,0.0,0.0,0.0,0.0,0.0,0.0,0.0,0.0,0.0,0.0,0.0,0.0,0.0,0.0,0.0,0.0,0.0,0.0,0.0,0.0,0.0,0.0,0.0,0.0,0.0,0.0,0.0,0.0,0.0,0.0,0.0,0.0,0.0,0.0,0.0,0.0,0.0,0.0,0.0,0.0,0.0,0.0,0.0,0.0,0.0,0.0,0.0,0.0,0.0,0.0,0.0,0.0,0.0,0.0,0.0,0.0,0.0,0.0,0.0,0.0,0.0,0.0,0.0,0.0,0.0,0.0,0.0,0.0,0.0,0.0,0.0,0.0,0.0,0.0,0.0,0.0,0.0,0.0,0.0,0.0,0.0,0.0,0.0,0.0,0.0,0.0,0.0,0.0,0.0,0.0,0.0,0.0,0.0,0.0,0.0,0.0,0.0,0.0,0.0,0.0,0.0,0.0,0.0,0.0,0.0,0.0,0.0,0.0,0.0,0.0,0.0,0.0,0.0,0.0,0.0,0.0,0.0,0.0,0.0,0.0,0.0,0.0,0.0,0.0,0.0,0.0,0.0,0.0,0.0,0.0,0.0,0.0,0.0,0.0,0.0,0.0,0.0,0.0,0.0,0.0,0.0,0.0,0.0,0.0,0.0,0.0,0.0,0.0,0.0,0.0,0.0,0.0,0.0,0.0,0.0,0.0,0.0,0.0,0.0,0.0,0.0,0.0,0.0,0.0,0.0,0.0,0.0,0.0,0.0,0.0,0.0,0.0,0.0,0.0,0.0,0.0,0.0,0.0,0.0,0.0,0.0,0.0,0.0,0.0,0.0,0.0,0.0,0.0,0.0,0.0,0.0,0.0,0.0,0.0,0.0,0.0,0.0,0.0,0.0,0.0,0.0,0.0,0.0,0.0,0.0,0.0,0.0,0.0,0.0,0.0,0.0,0.0,0.0,0.0,0.0,0.0,0.0,0.0,0.0,0.0,0.0,0.0,0.0,0.0,0.0,0.0,0.0,0.0,0.0,0.0,0.0,0.0,0.0,0.0,0.0,0.0,0.0,0.0,0.0,0.0,0.0,0.0,0.0,0.0,0.0,0.0,0.0,0.0,0.0,0.0,0.0,0.0,0.0,0.0,0.0,0.0,0.0,0.0,0.0,0.0,0.0,0.0,0.0,0.0,0.0,0.0,0.0,0.0,0.0,0.0,0.0,0.0,0.0,0.0,0.0,0.0,0.0,0.0,0.0,0.0,0.0,0.0,0.0,0.0,0.0,0.0,0.0,0.0,0.0,0.0,0.0,0.0,0.0,0.0,0.0,0.0,0.0,0.0,0.0,0.0,0.0,0.0,0.0,0.0,0.0,0.0,0.0,0.0,0.0,0.0,0.0,0.0,0.0,0.0,0.0,0.0,0.0,0.0,0.0,0.0,0.0,0.0,0.0,0.0,0.0,0.0,0.0,0.0,0.0,0.0,0.0,0.0,0.0,0.0,0.0,0.0,0.0,0.0,0.0,0.0,0.0,0.0,0.0,0.0,0.0,0.0,0.0,0.0,0.0,0.0,0.0,0.0,0.0,0.0,0.0,0.0,0.0,0.0,0.0,0.0,0.0,0.0,0.0,0.0,0.0,0.0,0.0,0.0,0.0,0.0,0.0,0.0,0.0,0.0,0.0,0.0,0.0,0.0,0.0,0.0,0.0,0.0,0.0,0.0,0.0,0.0,0.0,0.0,0.0,0.0,0.0,0.0,0.0,0.0,0.0,0.0,0.0,0.0,0.0,0.0,0.0,0.0,0.0,0.0,0.0,0.0,0.0,0.0,0.0,0.0,0.0,0.0,0.0,0.0,0.0,0.0,0.0,0.0,0.0,0.0,0.0,0.0,0.0,0.0,0.0,0.0,0.0,0.0,0.0,0.0,0.0,0.0,0.0,0.0,0.0,0.0,0.0,0.0,0.0,0.0,0.0,0.0,0.0,0.0,0.0,0.0,0.0,0.0,0.0,0.0,0.0,0.0,0.0,0.0,0.0,0.0,0.0,0.0,0.0,0.0,0.0,0.0,0.0,0.0,0.0,0.0,0.0,0.0,0.0,0.0,0.0,0.0,0.0,0.0,0.0,0.0,0.0,0.0,0.0,0.0,0.0,0.0,0.0,0.0,0.0,0.0,0.0,0.0,0.0,0.0,0.0,0.0,0.0,0.0,0.0,0.0,0.0,0.0,0.0,0.0,0.0,0.0,0.0,0.0,0.0,0.0,0.0,0.0,0.0,0.0,0.0,0.0,0.0,0.0,0.0,0.0,0.0,0.0,0.0,0.0,0.0,0.0,0.0,0.0,0.0,0.0,0.0,0.0,0.0,0.0,0.0,0.0,0.0,0.0,0.0,0.0,0.0,0.0,0.0,0.0,0.0,0.0,0.0,0.0,0.0,0.0,0.0,0.0,0.0,0.0,0.0,0.0,0.0,0.0,0.0,0.0,0.0,0.0,0.0,0.0,0.0,0.0,0.0,0.0,0.0,0.0,0.0,0.0,0.0,0.0,0.0,0.0,0.0,0.0,0.0,0.0,0.0,0.0,0.0,0.0,0.0,0.0,0.0,0.0,0.0,0.0,0.0,0.0,0.0,0.0,0.0,0.0,0.0,0.0,0.0,0.0,0.0,0.0,0.0,0.0,0.0,0.0,0.0,0.0,0.0,0.0,0.0,0.0,0.0,0.0,0.0,0.0,0.0,0.0,0.0,0.0,0.0,0.0,0.0,0.0,0.0,0.0,0.0,0.0,0.0,0.0,0.0,0.0,0.0,0.0,0.0,0.0,0.0,0.0,0.0,0.0,0.0,0.0,0.0,0.0,0.0,0.0,0.0,0.0,0.0,0.0,0.0,0.0,0.0,0.0,0.0,0.0,0.0,0.0,0.0,0.0,0.0,0.0,0.0,0.0,0.0,0.0,0.0,0.0,0.0,0.0,0.0,0.0,0.0,0.0,0.0,0.0,0.0,0.0,0.0,0.0,0.0,0.0,0.0,0.0,0.0,0.0,0.0,0.0,0.0,0.0,0.0,0.0,0.0,0.0,0.0,0.0,0.0,0.0,0.0,0.0,0.0,0.0,0.0,0.0,0.0,0.0,0.0,0.0,0.0,0.0,0.0,0.0,0.0,0.0,0.0,0.0,0.0,0.0,0.0,0.0,0.0,0.0,0.0,0.0,0.0,0.0,0.0,0.0,0.0,0.0,0.0,0.0,0.0,0.0,0.0,0.0,0.0,0.0,0.0,0.0,0.0,0.0,0.0,0.0,0.0,0.0,0.0,0.0,0.0,0.0,0.0,0.0,0.0,0.0,1.8712,0.0,0.0,0.0,0.0,0.0,0.0,0.0,0.0,0.0,0.0,0.0,0.0,0.0,0.0,0.0,0.0,0.0,0.0,0.0,0.0,0.0,0.0,0.0,0.0,0.0,0.0,0.0,0.0,0.0,0.0,0.0,0.0,0.0,0.0,0.0,0.0,0.0,0.0,0.0,0.0,0.0,0.0,0.0,0.0,0.0,0.0,0.0,0.0,0.0,0.0,0.0,0.0,0.0,0.0,0.0,0.0,0.0,0.0,0.0,0.0,0.0,0.0,0.0,0.0,0.0,0.0,0.0,0.0,0.0,0.0,0.0,0.0,0.0,0.0,0.0,0.0,0.0,0.0,0.0,0.0,0.0,0.0,0.0,0.0,0.0,0.0,0.0,0.0,0.0,0.0,0.0,0.0,0.0,0.0,0.0,0.0,0.0,0.0,0.0,0.0,0.0,0.0,0.0,0.0,0.0,0.0,0.0,0.0,0.0,0.0,2.2555,2.0898,2.0976,2.0235,1.8538,0.0,0.0,0.0,0.0,0.0,0.0,0.0,0.0,0.0,0.0,0.0,0.0,0.0,0.0,0.0,0.0,0.0,0.0,0.0,0.0,0.0,0.0,0.0,0.0,0.0,0.0,0.0,0.0,0.0,0.0,0.0,0.0,0.0,0.0,0.0,0.0,0.0,0.0,0.0,0.0,0.0,0.0,0.0,0.0,0.0,0.0,0.0,0.0,0.0,0.0,0.0,0.0,0.0,0.0,0.0,0.0,0.0,0.0,0.0,0.0,0.0,0.0,0.0,0.0,0.0,0.0,0.0,0.0,0.0,0.0,0.0,0.0,0.0,0.0,0.0,0.0,0.0,0.0,0.0,0.0,0.0,0.0,0.0,0.0,0.0,0.0,0.0,0.0,0.0,0.0,0.0,0.0,0.0,0.0,0.0,0.0,0.0,0.0,0.0,0.0,0.0,0.0,0.0,0.0,0.0,0.0,0.0,0.0,0.0,0.0,0.0,0.0,2.1569,2.0969,1.9456,0.0,0.0,0.0,0.0,0.0,0.0,0.0,0.0,0.0,0.0,0.0,0.0,0.0,0.0,0.0,0.0,0.0,0.0,0.0,0.0,0.0,0.0,0.0,0.0,0.0,0.0,0.0,0.0,0.0,0.0,0.0,0.0,0.0,0.0,0.0,0.0,0.0,0.0,0.0,0.0,0.0,0.0,0.0,0.0,0.0,0.0,0.0,0.0,0.0,0.0,0.0,0.0,0.0,0.0,0.0,0.0,0.0,0.0,0.0,0.0,0.0,0.0,0.0,0.0,0.0,0.0,0.0,0.0,0.0,0.0,0.0,0.0,0.0,0.0,0.0,0.0,0.0,0.0,0.0,0.0,0.0,0.0,0.0,0.0,0.0,0.0,0.0,0.0,0.0,0.0,0.0,0.0,0.0,0.0,0.0,0.0,0.0,0.0,0.0,0.0,0.0,0.0,0.0,0.0,0.0,0.0,0.0,0.0,0.0,0.0,2.2508,2.4505,2.4087,0.0,2.2487,0.0,0.0,0.0,0.0,0.0,0.0,0.0,0.0,0.0,0.0,0.0,0.0,0.0,0.0,0.0,0.0,0.0,0.0,0.0,0.0,0.0,0.0,0.0,0.0,0.0,0.0,0.0,0.0,0.0,0.0,0.0,0.0,0.0,0.0,0.0,0.0,0.0,0.0,0.0,0.0,0.0,0.0,0.0,0.0,0.0,0.0,0.0,0.0,0.0,0.0,0.0,0.0,0.0,0.0,0.0,0.0,0.0,0.0,0.0,0.0,0.0,0.0,0.0,0.0,0.0,0.0,0.0,0.0,0.0,0.0,0.0,0.0,0.0,0.0,0.0,0.0,0.0,0.0,0.0,0.0,0.0,0.0,0.0,0.0,0.0,0.0,0.0,0.0,0.0,0.0,0.0,0.0,0.0,0.0,0.0,0.0,0.0,0.0,0.0,0.0,0.0,0.0,0.0,0.0,0.0,0.0,0.0,0.0,0.0,0.0,2.3899,2.4351,2.378,2.2997,0.0,0.0,0.0,0.0,0.0,0.0,0.0,0.0,0.0,0.0,0.0,0.0,0.0,0.0,0.0,0.0,0.0,0.0,0.0,0.0,0.0,0.0,0.0,0.0,0.0,0.0,0.0,0.0,0.0,0.0,0.0,0.0,0.0,0.0,0.0,0.0,0.0,0.0,0.0,0.0,0.0,0.0,0.0,0.0,0.0,0.0,0.0,0.0,0.0,0.0,0.0,0.0,0.0,0.0,0.0,0.0,0.0,0.0,0.0,0.0,0.0,0.0,0.0,0.0,0.0,0.0,0.0,0.0,0.0,0.0,0.0,0.0,0.0,0.0,0.0,0.0,0.0,0.0,0.0,0.0,0.0,0.0,0.0,0.0,0.0,0.0,0.0,0.0,0.0,0.0,0.0,0.0,0.0,0.0,0.0,0.0,0.0,0.0,0.0,0.0,0.0,0.0,0.0,0.0,0.0,0.0,0.0,0.0,0.0,0.0,2.43,0.0,2.5005,2.4074,2.298,2.1825,0.0,0.0,0.0,0.0,0.0,0.0,0.0,0.0,0.0,0.0,0.0,0.0,0.0,0.0,0.0,0.0,0.0,0.0,0.0,0.0,0.0,0.0,0.0,0.0,0.0,0.0,0.0,0.0,0.0,0.0,0.0,0.0,0.0,0.0,0.0,0.0,0.0,0.0,0.0,0.0,0.0,0.0,0.0,0.0,0.0,0.0,0.0,0.0,0.0,0.0,0.0,0.0,0.0,0.0,0.0,0.0,0.0,0.0,0.0,0.0,0.0,0.0,0.0,0.0,0.0,0.0,0.0,0.0,0.0,0.0,0.0,0.0,0.0,0.0,0.0,0.0,0.0,0.0,0.0,0.0,0.0,0.0,0.0,0.0,0.0,0.0,0.0,0.0,0.0,0.0,0.0,0.0,0.0,0.0,0.0,0.0,0.0,0.0,0.0,0.0,0.0,0.0,0.0,0.0,0.0,0.0,0.0,0.0,0.0,2.5539,2.5244,2.7754,2.5932,2.4227,0.0,0.0,0.0,0.0,0.0,0.0,0.0,0.0,0.0,0.0,0.0,0.0,0.0,0.0,0.0,0.0,0.0,0.0,0.0,0.0,0.0,0.0,0.0,0.0,0.0,0.0,0.0,0.0,0.0,0.0,0.0,0.0,0.0,0.0,0.0,0.0,0.0,0.0,0.0,0.0,0.0,0.0,0.0,0.0,0.0,0.0,0.0,0.0,0.0,0.0,0.0,0.0,0.0,0.0,0.0,0.0,0.0,0.0,0.0,0.0,0.0,0.0,0.0,0.0,0.0,0.0,0.0,0.0,0.0,0.0,0.0,0.0,0.0,0.0,0.0,0.0,0.0,0.0,0.0,0.0,0.0,0.0,0.0,0.0,0.0,0.0,0.0,0.0,0.0,0.0,0.0,0.0,0.0,0.0,0.0,0.0,0.0,0.0,0.0,0.0,0.0,0.0,0.0,0.0,0.0,0.0,0.0,0.0,0.0,2.2847,2.3676,2.5787,2.9147,2.5897,2.3955,0.0,0.0,0.0,0.0,0.0,0.0,0.0,0.0,0.0,0.0,0.0,0.0,0.0,0.0,0.0,0.0,0.0,0.0,0.0,0.0,0.0,0.0,0.0,0.0,0.0,0.0,0.0,0.0,0.0,0.0,0.0,0.0,0.0,0.0,0.0,0.0,0.0,0.0,0.0,0.0,0.0,0.0,0.0,0.0,0.0,0.0,0.0,0.0,0.0,0.0,0.0,0.0,0.0,0.0,0.0,0.0,0.0,0.0,0.0,0.0,0.0,0.0,0.0,0.0,0.0,0.0,0.0,0.0,0.0,0.0,0.0,0.0,0.0,0.0,0.0,0.0,0.0,0.0,0.0,0.0,0.0,0.0,0.0,0.0,0.0,0.0,0.0,0.0,0.0,0.0,0.0,0.0,0.0,0.0,0.0,0.0,0.0,0.0,0.0,0.0,0.0,0.0,0.0,0.0,0.0,0.0,0.0,0.0,0.0,2.1953,0.0,2.7137,0.0,2.5659,2.3441,0.0,0.0,0.0,0.0,0.0,0.0,0.0,0.0,0.0,0.0,0.0,0.0,0.0,0.0,0.0,0.0,0.0,0.0,0.0,0.0,0.0,0.0,0.0,0.0,0.0,0.0,0.0,0.0,0.0,0.0,0.0,0.0,0.0,0.0,0.0,0.0,0.0,0.0,0.0,0.0,0.0,0.0,0.0,0.0,0.0,0.0,0.0,0.0,0.0,0.0,0.0,0.0,0.0,0.0,0.0,0.0,0.0,0.0,0.0,0.0,0.0,0.0,0.0,0.0,0.0,0.0,0.0,0.0,0.0,0.0,0.0,0.0,0.0,0.0,0.0,0.0,0.0,0.0,0.0,0.0,0.0,0.0,0.0,0.0,0.0,0.0,0.0,0.0,0.0,0.0,0.0,0.0,0.0,0.0,0.0,0.0,0.0,0.0,0.0,0.0,0.0,0.0,0.0,0.0,0.0,0.0,0.0,0.0,2.1856,2.6783,2.8794,2.8847,2.7225,2.5596,2.2824,0.0,0.0,0.0,0.0,0.0,0.0,0.0,0.0,0.0,0.0,0.0,0.0,0.0,0.0,0.0,0.0,0.0,0.0,0.0,0.0,0.0,0.0,0.0,0.0,0.0,0.0,0.0,0.0,0.0,0.0,0.0,0.0,0.0,0.0,0.0,0.0,0.0,0.0,0.0,0.0,0.0,0.0,0.0,0.0,0.0,0.0,0.0,0.0,0.0,0.0,0.0,0.0,0.0,0.0,0.0,0.0,0.0,0.0,0.0,0.0,0.0,0.0,0.0,0.0,0.0,0.0,0.0,0.0,0.0,0.0,0.0,0.0,0.0,0.0,0.0,0.0,0.0,0.0,0.0,0.0,0.0,0.0,0.0,0.0,0.0,0.0,0.0,0.0,0.0,0.0,0.0,0.0,0.0,0.0,0.0,0.0,0.0,0.0,0.0,0.0,0.0,0.0,0.0,0.0,0.0,0.0,0.0,0.0,0.0,2.4938,2.5979,2.7278,2.8684,2.5275,2.3364,0.0,0.0,0.0,0.0,0.0,0.0,0.0,0.0,0.0,0.0,0.0,0.0,0.0,0.0,0.0,0.0,0.0,0.0,0.0,0.0,0.0,0.0,0.0,0.0,0.0,0.0,0.0,0.0,0.0,0.0,0.0,0.0,0.0,0.0,0.0,0.0,0.0,0.0,0.0,0.0,0.0,0.0,0.0,0.0,0.0,0.0,0.0,0.0,0.0,0.0,0.0,0.0,0.0,0.0,0.0,0.0,0.0,0.0,0.0,0.0,0.0,0.0,0.0,0.0,0.0,0.0,0.0,0.0,0.0,0.0,0.0,0.0,0.0,0.0,0.0,0.0,0.0,0.0,0.0,0.0,0.0,0.0,0.0,0.0,0.0,0.0,0.0,0.0,0.0,0.0,0.0,0.0,0.0,0.0,0.0,0.0,0.0,0.0,0.0,0.0,0.0,0.0,0.0,0.0,0.0,0.0,0.0,0.0,0.0,2.6538,2.7164,2.8254,2.9799,2.6189,2.431,2.4462,0.0,0.0,0.0,0.0,0.0,0.0,0.0,0.0,0.0,0.0,0.0,0.0,0.0,0.0,0.0,0.0,0.0,0.0,0.0,0.0,0.0,0.0,0.0,0.0,0.0,0.0,0.0,0.0,0.0,0.0,0.0,0.0,0.0,0.0,0.0,0.0,0.0,0.0,0.0,0.0,0.0,0.0,0.0,0.0,0.0,0.0,0.0,0.0,0.0,0.0,0.0,0.0,0.0,0.0,0.0,0.0,0.0,0.0,0.0,0.0,0.0,0.0,0.0,0.0,0.0,0.0,0.0,0.0,0.0,0.0,0.0,0.0,0.0,0.0,0.0,0.0,0.0,0.0,0.0,0.0,0.0,0.0,0.0,0.0,0.0,0.0,0.0,0.0,0.0,0.0,0.0,0.0,0.0,0.0,0.0,0.0,0.0,0.0,0.0,0.0,0.0,0.0,0.0,0.0,0.0,0.0,0.0,0.0,3.0717,3.1675,3.159,3.0378,2.8182,2.5666,0.0,0.0,0.0,0.0,0.0,0.0,0.0,0.0,0.0,0.0,0.0,0.0,0.0,0.0,0.0,0.0,0.0,0.0,0.0,0.0,0.0,0.0,0.0,0.0,0.0,0.0,0.0,0.0,0.0,0.0,0.0,0.0,0.0,0.0,0.0,0.0,0.0,0.0,0.0,0.0,0.0,0.0,0.0,0.0,0.0,0.0,0.0,0.0,0.0,0.0,0.0,0.0,0.0,0.0,0.0,0.0,0.0,0.0,0.0,0.0,0.0,0.0,0.0,0.0,0.0,0.0,0.0,0.0,0.0,0.0,0.0,0.0,0.0,0.0,0.0,0.0,0.0,0.0,0.0,0.0,0.0,0.0,0.0,0.0,0.0,0.0,0.0,0.0,0.0,0.0,0.0,0.0,0.0,0.0,0.0,0.0,0.0,0.0,0.0,0.0,0.0,0.0,0.0,0.0,0.0,0.0,0.0,0.0,0.0,3.1593,3.3225,3.4083,3.4032,3.0847,2.821,0.0,0.0,0.0,0.0,0.0,0.0,0.0,0.0,0.0,0.0,0.0,0.0,0.0,0.0,0.0,0.0,0.0,0.0,0.0,0.0,0.0,0.0,0.0,0.0,0.0,0.0,0.0,0.0,0.0,0.0,0.0,0.0,0.0,0.0,0.0,0.0,0.0,0.0,0.0,0.0,0.0,0.0,0.0,0.0,0.0,0.0,0.0,0.0,0.0,0.0,0.0,0.0,0.0,0.0,0.0,0.0,0.0,0.0,0.0,0.0,0.0,0.0,0.0,0.0,0.0,0.0,0.0,0.0,0.0,0.0,0.0,0.0,0.0,0.0,0.0,0.0,0.0,0.0,0.0,0.0,0.0,0.0,0.0,0.0,0.0,0.0,0.0,0.0,0.0,0.0,0.0,0.0,0.0,0.0,0.0,0.0,0.0,0.0,0.0,0.0,0.0,0.0,0.0,0.0,0.0,0.0,0.0,0.0,2.9694,3.2219,3.4165,3.5348,3.5626,3.3018,3.0381,0.0,0.0,0.0,0.0,0.0,0.0,0.0,0.0,0.0,0.0,0.0,0.0,0.0,0.0,0.0,0.0,0.0,0.0,0.0,0.0,0.0,0.0,0.0,0.0,0.0,0.0,0.0,0.0,0.0,0.0,0.0,0.0,0.0,0.0,0.0,0.0,0.0,0.0,0.0,0.0,0.0,0.0,0.0,0.0,0.0,0.0,0.0,0.0,0.0,0.0,0.0,0.0,0.0,0.0,0.0,0.0,0.0,0.0,0.0,0.0,0.0,0.0,0.0,0.0,0.0,0.0,0.0,0.0,0.0,0.0,0.0,0.0,0.0,0.0,0.0,0.0,0.0,0.0,0.0,0.0,0.0,0.0,0.0,0.0,0.0,0.0,0.0,0.0,0.0,0.0,0.0,0.0,0.0,0.0,0.0,0.0,0.0,0.0,0.0,0.0,0.0,0.0,0.0,0.0,0.0,0.0,0.0,0.0,3.0513,3.2509,3.4585,3.5698,3.5661,3.4475,3.1898,0.0,0.0,0.0,0.0,0.0,0.0,0.0,0.0,0.0,0.0,0.0,0.0,0.0,0.0,0.0,0.0,0.0,0.0,0.0,0.0,0.0,0.0,0.0,0.0,0.0,0.0,0.0,0.0,0.0,0.0,0.0,0.0,0.0,0.0,0.0,0.0,0.0,0.0,0.0,0.0,0.0,0.0,0.0,0.0,0.0,0.0,0.0,0.0,0.0,0.0,0.0,0.0,0.0,0.0,0.0,0.0,0.0,0.0,0.0,0.0,0.0,0.0,0.0,0.0,0.0,0.0,0.0,0.0,0.0,0.0,0.0,0.0,0.0,0.0,0.0,0.0,0.0,0.0,0.0,0.0,0.0,0.0,0.0,0.0,0.0,0.0,0.0,0.0,0.0,0.0,0.0,0.0,0.0,0.0,0.0,0.0,0.0,0.0,0.0,0.0,0.0,0.0,0.0,0.0,0.0,0.0,0.0,0.0,3.0205,3.1987,3.4334,3.5645,3.5665,3.3433,3.0911,0.0,0.0,0.0,0.0,0.0,0.0,0.0,0.0,0.0,0.0,0.0,0.0,0.0,0.0,0.0,0.0,0.0,0.0,0.0,0.0,0.0,0.0,0.0,0.0,0.0,0.0,0.0,0.0,0.0,0.0,0.0,0.0,0.0,0.0,0.0,0.0,0.0,0.0,0.0,0.0,0.0,0.0,0.0,0.0,0.0,0.0,0.0,0.0,0.9165,0.0,0.0,0.0,0.0,0.0,0.0,0.0,0.0,0.0,0.0,0.0,0.0,0.0,0.0,0.0,0.0,0.0,0.0,0.0,0.0,0.0,0.0,0.0,0.0,0.0,0.0,0.0,0.0,0.0,0.0,0.0,0.0,0.0,0.0,0.0,0.0,0.0,0.0,0.0,0.0,0.0,0.0,0.0,0.0,0.0,0.0,0.0,0.0,0.0,0.0,0.0,0.0,0.0,0.0,0.0,0.0,0.0,0.0,0.0,3.0277,3.1869,3.3844,3.4896,3.4898,3.2765,3.0479,0.0,0.0,0.0,0.0,0.0,0.0,0.0,0.0,0.0,0.0,0.0,0.0,0.0,0.0,0.0,0.0,0.0,0.0,0.0,0.0,0.0,0.0,0.0,0.0,0.0,0.0,0.0,0.0,0.0,0.0,0.0,0.0,0.0,0.0,0.0,0.0,0.0,0.0,0.0,0.0,0.0,0.0,0.0,0.0,0.0,0.0,0.0,0.0,0.0,0.0,0.0,0.0,0.0,0.0,0.0,0.0,0.0,0.0,0.0,0.0,0.0,0.0,0.0,0.0,0.0,0.0,0.0,0.0,0.0,0.0,0.0,0.0,0.0,0.0,0.0,0.0,0.0,0.0,0.0,0.0,0.0,0.0,0.0,0.0,0.0,0.0,0.0,0.0,0.0,0.0,0.0,0.0,0.0,0.0,0.0,0.0,0.0,0.0,0.0,0.0,0.0,0.0,0.0,0.0,0.0,0.0,0.0,2.7748,3.0303,3.1781,3.3293,3.4031,3.3887,3.2291,3.03,2.7887,0.0,0.0,0.0,0.0,0.0,0.0,0.0,0.0,0.0,0.0,0.0,0.0,0.0,0.0,0.0,0.0,0.0,0.0,0.0,0.0,0.0,0.0,0.0,0.0,0.0,0.0,0.0,0.0,0.0,0.0,0.0,0.0,0.0,0.0,0.0,0.0,0.0,0.0,1.1513,1.1209,0.0,0.0,0.0,0.0,0.0,0.0,0.0,0.0,0.9729,0.0,0.0,0.0,0.0,0.0,0.0,0.0,0.0,0.0,0.0,0.0,0.0,0.0,0.0,0.0,0.0,0.0,0.0,0.0,0.0,0.0,0.0,0.0,0.0,0.0,0.0,0.0,0.0,0.0,0.0,0.0,0.0,0.0,0.0,0.0,0.0,0.0,0.0,0.0,0.0,0.0,0.0,0.0,0.0,0.0,0.0,0.0,0.0,0.0,0.0,0.0,0.0,0.0,0.0,0.0,0.0,2.5049,2.7315,2.9302,3.1065,3.2925,3.3693,3.3121,3.1804,2.9667,2.6545,0.0,0.0,0.0,0.0,0.0,0.0,0.0,0.0,0.0,0.0,0.0,0.0,0.0,0.0,0.0,0.0,0.0,0.0,0.0,0.0,0.0,0.0,0.0,0.0,0.0,0.0,0.0,0.0,0.0,0.0,0.0,0.0,0.0,0.0,0.0,0.0,0.0,0.0,0.0,1.1583,1.1404,0.0,0.0,0.0,0.0,0.0,0.0,0.0,0.0,0.9379,0.0,0.0,0.0,0.0,0.0,0.0,0.0,0.0,0.0,0.0,0.0,0.0,0.0,0.0,0.0,0.0,0.0,0.0,0.0,0.0,0.0,0.0,0.0,0.0,0.0,0.0,0.0,0.0,0.0,0.0,0.0,0.0,0.0,0.0,0.0,0.0,0.0,0.0,0.0,0.0,0.0,0.0,0.0,0.0,0.0,0.0,0.0,0.0,0.0,0.0,0.0,0.0,0.0,0.0,0.0,2.4067,2.6608,2.8519,3.005,3.2068,3.2611,3.1598,3.0359,2.8423,0.0,0.0,0.0,0.0,0.0,0.0,0.0,0.0,0.0,0.0,0.0,0.0,0.0,0.0,0.0,0.0,0.0,0.0,0.0,0.0,0.0,0.0,0.0,0.0,0.0,0.0,0.0,0.0,0.0,0.0,0.0,0.0,0.0,0.0,0.0,0.0,0.0,0.0,0.0,0.0,1.1204,1.0961,1.0948,0.0,0.0,0.0,0.0,0.0,0.0,0.9506,0.9208,0.0,0.0,0.0,0.0,0.0,0.0,0.0,0.0,0.0,0.0,0.0,0.0,0.0,0.0,0.0,0.0,0.0,0.0,0.0,0.0,0.0,0.0,0.0,0.0,0.0,0.0,0.0,0.0,0.0,0.0,0.0,0.0,0.0,0.0,0.0,0.0,0.0,0.0,0.0,0.0,0.0,0.0,0.0,0.0,0.0,0.0,0.0,0.0,0.0,0.0,0.0,0.0,0.0,0.0,0.0,2.2671,2.5608,2.7676,2.8931,3.1021,3.1433,3.0138,2.8899,2.7131,0.0,0.0,0.0,0.0,0.0,0.0,0.0,0.0,0.0,0.0,0.0,0.0,0.0,0.0,0.0,0.0,0.0,0.0,0.0,0.0,0.0,0.0,0.0,0.0,0.0,0.0,0.0,0.0,0.0,0.0,0.0,0.0,0.0,0.0,0.0,0.0,0.0,0.0,0.0,0.0,0.0,1.0757,1.0674,1.0888,0.0,0.0,0.0,0.0,1.0351,0.9844,0.0,0.0,0.0,0.0,0.0,0.0,0.0,0.0,0.0,0.0,0.0,0.0,0.0,0.0,0.0,0.0,0.0,0.0,0.0,0.0,0.0,0.0,0.0,0.0,0.0,0.0,0.0,0.0,0.0,0.0,0.0,0.0,0.0,0.0,0.0,0.0,0.0,0.0,0.0,0.0,0.0,0.0,0.0,0.0,0.0,0.0,0.0,0.0,0.0,0.0,0.0,0.0,0.0,0.0,0.0,0.0,2.1281,2.4157,2.6406,2.7946,2.9999,3.0446,2.9113,2.8114,2.6233,0.0,0.0,0.0,0.0,0.0,0.0,0.0,0.0,0.0,0.0,0.0,0.0,0.0,0.0,0.0,0.0,0.0,0.0,0.0,0.0,0.0,0.0,0.0,0.0,0.0,0.0,0.0,0.0,0.0,0.0,0.0,0.0,0.0,0.0,0.0,0.0,0.0,0.0,0.0,0.0,0.0,1.1861,1.181,1.1417,1.1037,0.0,0.0,1.0907,1.0633,1.0611,0.0,0.0,0.0,0.0,0.0,0.0,0.0,0.0,0.0,0.0,0.0,0.0,0.0,0.0,0.0,0.0,0.0,0.0,0.0,0.0,0.0,0.0,0.0,0.0,0.0,0.0,0.0,0.0,0.0,0.0,0.0,0.0,0.0,0.0,0.0,0.0,0.0,0.0,0.0,0.0,0.0,0.0,0.0,0.0,0.0,0.0,0.0,0.0,0.0,0.0,0.0,0.0,0.0,0.0,0.0,1.8092,2.0594,2.3352,2.5372,2.6611,2.887,2.9227,2.7656,2.6569,2.4828,0.0,0.0,0.0,0.0,0.0,0.0,0.0,0.0,0.0,0.0,0.0,0.0,0.0,0.0,0.0,0.0,0.0,0.0,0.0,0.0,0.0,0.0,0.0,0.0,0.0,0.0,0.0,0.0,0.0,0.0,0.0,0.0,0.0,0.0,0.0,0.0,0.0,0.0,0.0,0.0,0.0,0.0,1.1828,1.1979,0.0,0.0,0.0,1.175,1.1654,0.0,0.0,0.0,0.0,0.0,0.0,0.0,0.0,0.0,0.0,0.0,0.0,0.0,0.0,0.0,0.0,0.0,0.0,0.0,0.0,0.0,0.0,0.0,0.0,0.0,0.0,0.0,0.0,0.0,0.0,0.0,0.0,0.0,0.0,0.0,0.0,0.0,0.0,0.0,0.0,0.0,0.0,0.0,0.0,0.0,0.0,0.0,0.0,0.0,0.0,0.0,0.0,0.0,0.0,0.0,0.0,0.0,1.993,2.255,2.4371,2.5297,2.7242,2.7506,2.5824,2.4825,0.0,0.0,0.0,0.0,0.0,0.0,0.0,0.0,0.0,0.0,0.0,0.0,0.0,0.0,0.0,0.0,0.0,0.0,0.0,0.0,0.0,0.0,0.0,0.0,0.0,0.0,0.0,0.695,0.0,0.0,0.0,0.0,0.0,0.0,0.0,0.0,0.0,0.0,0.0,0.0,0.0,0.0,1.1621,1.1709,1.2288,1.2362,0.0,0.0,1.2453,1.224,1.1283,1.0417,0.0,0.0,0.0,0.0,0.0,0.0,0.0,0.0,0.0,0.0,0.0,0.0,0.0,0.0,0.0,0.0,0.0,0.0,0.0,0.0,0.0,0.0,0.0,0.0,0.0,0.0,0.0,0.0,0.0,0.0,0.0,0.0,0.0,0.0,0.0,0.0,0.0,0.0,0.0,0.0,0.0,0.0,0.0,0.0,0.0,0.0,0.0,0.0,0.0,0.0,0.0,0.0,0.0,0.0,0.0,1.9353,2.1615,2.3271,2.4073,2.4954,2.4844,2.3604,2.2917,2.1633,0.0,0.0,0.0,0.0,0.0,0.0,0.0,0.0,0.0,0.0,0.0,0.0,0.0,0.0,0.0,0.0,0.0,0.0,0.0,0.0,0.0,0.0,0.0,0.0,0.0,0.0,0.0,0.0,0.0,0.0,0.0,0.0,0.0,0.0,0.0,0.0,0.0,0.0,0.0,0.0,0.0,1.2111,1.184,1.2307,1.2414,0.0,1.2383,1.2586,1.1927,1.2064,1.1639,0.9927,0.0,0.0,0.0,0.0,0.0,0.0,0.0,0.0,0.0,0.0,0.0,0.0,0.0,0.0,0.0,0.0,0.0,0.0,0.0,0.0,0.0,0.0,0.0,0.0,0.0,0.0,0.0,0.0,0.0,0.0,0.0,0.0,0.0,0.0,0.0,0.0,0.0,0.0,0.0,0.0,0.0,0.0,0.0,0.0,0.0,0.0,0.0,0.0,0.0,0.0,0.0,0.0,0.0,1.6835,1.8733,2.1014,2.2633,2.3478,2.4449,2.4556,2.3782,2.3076,2.1645,0.0,0.0,0.0,0.0,0.0,0.0,0.0,0.0,0.0,0.0,0.0,0.0,0.0,0.0,0.0,0.0,0.0,0.0,0.0,0.0,0.0,0.0,0.0,0.0,0.0,0.0,0.0,0.0,0.7598,0.7716,0.8243,0.0,0.0,0.0,0.0,0.0,0.0,0.0,0.0,0.0,0.0,1.2047,1.1652,1.2451,0.0,0.0,1.2718,1.302,1.2538,1.2016,1.1467,1.0584,1.0153,0.0,0.0,0.0,0.0,0.0,0.0,0.0,0.0,0.0,0.0,0.0,0.0,0.0,0.0,0.0,0.0,0.0,0.0,0.0,0.0,0.0,0.0,0.0,0.0,0.0,0.0,0.0,0.0,0.0,0.0,0.0,0.0,0.0,0.0,0.0,0.0,0.0,0.0,0.0,0.0,0.0,0.0,0.0,0.0,0.0,0.0,0.0,0.0,0.0,0.0,0.0,0.0,1.6042,1.79,2.002,2.1485,2.2277,2.3327,2.3644,2.3116,2.2413,2.1014,0.0,0.0,0.0,0.0,0.0,0.0,0.0,0.0,0.0,0.0,0.0,0.0,0.0,0.0,0.0,0.0,0.0,0.0,0.0,0.0,0.0,0.0,0.0,0.0,0.0,0.0,0.0,0.0,0.7879,0.7835,0.8159,0.0,0.0,0.0,0.0,0.0,0.0,0.0,0.0,0.0,0.0,1.1232,1.1313,1.2141,1.2585,1.231,1.2881,1.3115,1.2844,1.1878,1.0987,1.0549,0.0,0.0,0.0,0.0,0.0,0.0,0.0,0.0,0.0,0.0,0.0,0.0,0.0,0.0,0.0,0.0,0.0,0.0,0.0,0.0,0.0,0.0,0.0,0.0,0.0,0.0,0.0,1.4596,0.0,0.0,1.3056,0.0,0.0,0.0,0.0,0.0,0.0,0.0,0.0,0.0,0.0,0.0,0.0,0.0,0.0,0.0,0.0,0.0,0.0,0.0,0.0,0.0,0.0,1.4868,1.683,1.8493,1.9591,2.0404,2.1266,2.153,2.1108,2.0356,1.925,1.7674,0.0,0.0,0.0,0.0,0.0,0.0,0.0,0.0,0.0,0.0,0.0,0.0,0.0,0.0,0.0,0.0,0.0,0.0,0.0,0.0,0.0,0.0,0.0,0.0,0.0,0.0,0.8224,0.8294,0.8131,0.0,0.0,0.0,0.0,0.0,0.0,0.0,0.0,0.0,0.0,0.899,0.9731,1.0612,1.1038,1.156,1.2565,1.2759,1.2791,1.2702,1.152,1.0382,0.0,0.0,0.0,0.0,0.0,0.0,0.0,0.0,0.0,0.0,0.0,0.0,0.0,0.0,0.0,0.0,0.0,0.0,0.0,0.0,0.0,0.0,0.0,0.0,0.0,0.0,0.0,1.7861,1.6132,0.0,0.0,0.0,0.0,0.0,0.0,0.0,0.0,0.0,0.0,0.0,1.526,1.5679,0.0,0.0,0.0,0.0,0.0,0.0,0.0,0.0,0.0,0.0,0.0,0.0,1.5068,1.709,1.7929,1.8588,1.9314,1.9621,1.9736,1.9602,1.9062,1.8046,1.664,0.0,0.0,0.0,0.0,0.0,0.0,0.0,0.0,0.0,0.0,0.0,0.0,0.0,0.0,0.0,0.0,0.0,0.0,0.0,0.0,0.0,0.0,0.0,0.0,0.0,0.7357,0.0,0.0,0.0,0.0,0.0,0.0,0.0,0.0,0.0,0.0,0.0,0.7974,0.7054,0.8,0.8695,0.8542,0.923,1.0449,0.0,0.0,0.0,0.0,0.0,0.0,0.0,0.0,0.0,0.0,0.0,0.0,0.0,0.0,0.5289,0.4763,0.4553,0.4437,0.4476,0.0,0.0,0.0,0.0,0.0,0.0,0.0,0.0,0.0,0.0,0.0,0.0,0.0,0.0,1.8685,0.0,1.6552,0.0,0.0,0.0,0.0,0.0,0.0,0.0,0.0,1.5516,1.572,1.5361,1.5826,1.5597,0.0,1.4867,1.3981,0.0,0.0,0.0,0.0,0.0,0.0,0.0,0.0,1.4426,1.6264,1.6875,1.7432,1.8025,1.8319,1.8596,1.8688,1.8099,1.7125,1.5874,1.4289,1.2825,0.0,0.0,0.0,0.0,0.0,0.0,0.0,0.0,0.0,0.0,0.0,0.0,0.0,0.0,0.0,0.0,0.0,0.0,0.0,0.0,0.0,0.0,0.0,0.6681,0.0,0.0,0.0,0.0,0.0,0.0,0.0,0.0,0.0,0.7894,0.7613,0.6988,0.6219,0.6929,0.7472,0.7528,0.0,0.0,0.0,0.0,0.0,0.0,0.0,0.8166,0.8117,0.7598,0.7333,0.7412,0.6945,0.6364,0.633,0.0,0.0,0.4493,0.4289,0.4144,0.4177,0.4324,0.4434,0.4414,0.4879,0.5237,0.0,0.0,0.0,0.0,0.0,0.0,0.0,0.0,1.9568,1.8789,0.0,1.619,0.0,0.0,0.0,0.0,0.0,1.5416,0.0,0.0,1.47,1.4867,1.4652,1.4891,1.4879,1.4652,1.4604,1.3637,1.2089,1.221,0.0,0.0,0.0,0.0,0.0,0.0,1.2919,1.421,1.537,1.6054,1.6331,1.7282,1.7933,1.8195,1.7264,1.6286,1.5384,1.4328,1.2969,1.095,1.0569,0.0,0.0,0.0,0.0,0.0,0.0,0.0,0.0,0.0,0.0,0.0,0.0,0.0,0.0,0.0,0.0,0.0,0.0,0.0,0.0,0.6001,0.0,0.0,0.0,0.0,0.0,0.0,0.0,0.0,0.0,0.0,0.7403,0.6976,0.6407,0.6022,0.0,0.0,0.0,0.0,0.7861,0.88,0.9026,0.8246,0.5943,0.6689,0.7387,0.7393,0.0,0.0,0.616,0.5775,0.5601,0.6155,0.5682,0.5254,0.5154,0.4902,0.4867,0.4941,0.4961,0.491,0.4994,0.4998,0.5016,2.8539,0.0,0.0,0.0,0.0,2.3659,2.2795,2.1777,2.1357,1.9745,1.7351,1.6988,0.0,0.0,0.0,0.0,0.0,0.0,1.4295,1.3833,1.3667,1.3275,1.2779,1.3097,1.3087,1.2779,1.2769,1.2414,1.1727,1.1568,1.1415,1.1076,0.0,0.0,0.0,0.0,1.1601,1.2738,1.2845,1.2991,1.3188,1.4208,1.5171,1.6008,1.4859,1.405,1.3725,1.2575,1.1316,1.0229,0.9974,0.0,0.0,0.0,0.0,0.0,0.0,0.0,0.0,0.0,0.0,0.0,0.0,0.0,0.0,0.0,0.0,0.0,0.0,0.0,0.632,0.5817,0.5609,0.0,0.0,0.0,0.0,0.0,0.0,0.0,0.0,0.0,0.7102,0.6272,0.5574,0.0,0.0,0.5609,0.6005,0.6033,0.6196,0.6492,0.6645,0.0,0.5737,0.6079,0.6322,0.6134,0.5877,0.5802,0.5869,0.5818,0.5873,0.5958,0.5097,0.4242,0.4214,0.4732,0.5138,0.5263,0.4536,0.4018,0.393,0.3314,0.2784,2.9663,2.7861,2.7453,2.6759,2.5837,2.443,2.3341,2.2474,2.1315,1.9728,1.7994,1.7654,1.6852,1.5669,1.5315,0.0,0.0,0.0,1.3712,1.3007,1.2745,1.2423,1.1909,1.2181,1.2135,1.2014,1.2037,1.1723,1.1185,1.0878,1.0527,0.9958,0.0,0.0,1.1455,1.0802,1.086,1.1559,1.1517,1.1521,1.1658,1.2404,1.3091,1.3703,1.298,1.2617,1.2606,1.1672,1.0761,0.9865,0.9677,0.8841,0.0,0.0,0.0,0.0,0.0,0.0,0.0,0.0,0.0,0.0,0.0,0.5886,0.5472,0.0,0.0,0.0,0.5311,0.5434,0.5694,0.528,0.0,0.0,0.0,0.0,0.0,0.0,0.0,0.737,0.6585,0.6179,0.658,0.5985,0.5456,0.5443,0.5442,0.549,0.5549,0.0,0.5582,0.5635,0.5676,0.57,0.5818,0.5802,0.581,0.5741,0.5798,0.5835,0.5835,0.5513,0.5172,0.492,0.4032,0.3158,0.3037,0.3559,0.4056,0.3896,0.3354,0.2803,0.2799,0.2247,0.1797,2.9682,2.9099,2.8107,2.7172,2.6107,2.4228,2.279,2.1511,2.0126,1.9208,1.8638,1.7877,1.7257,1.6655,1.5881,0.0,1.4276,1.3856,1.3034,1.1854,1.1957,1.1733,1.15,1.1652,1.1791,1.1782,1.1702,1.1291,1.0428,1.016,0.9705,0.9176,0.9627,1.026,1.094,1.0445,1.0368,1.0628,1.0863,1.1044,1.1082,1.1277,1.1473,1.156,1.1638,1.1726,1.1716,1.1411,1.0631,0.9525,0.9395,0.8631,0.7121,0.0,0.0,0.0,0.0,0.0,0.0,0.0,0.0,0.0,0.0,0.0,0.0,0.0,0.0,0.0,0.4405,0.0,0.4629,0.4634,0.0,0.0,0.0,0.6012,0.6277,0.6087,0.6207,0.6644,0.0,0.0,0.5925,0.5964,0.5906,0.581,0.5658,0.5638,0.5778,0.5712,0.5663,0.5676,0.5741,0.579,0.5914,0.5847,0.59,0.5916,0.5929,0.581,0.5694,0.4823,0.3954,0.3712,0.2718,0.1855,0.1855,0.1727,0.1593,0.1431,0.1554,0.1684,0.1682,0.1582,0.1356,2.7948,2.7677,2.5308,2.4745,2.5292,2.3221,2.1628,2.0441,1.9918,1.8945,1.7707,1.6448,1.5128,1.3882,1.3436,1.3266,1.3184,1.1742,1.1004,1.0906,0.9774,0.932,0.9198,0.9391,0.9434,0.9532,0.961,0.9537,0.9318,0.9173,0.8615,0.7481,0.762,0.833,0.9631,0.923,0.894,0.8866,0.8969,0.9335,0.9962,1.0019,1.0493,1.1268,1.0439,0.9974,0.9966,0.9226,0.8575,0.8178,0.8076,0.7682,0.6874,0.6289,0.0,0.0,0.0,0.0,0.0,0.0,0.0,0.0,0.0,0.5992,0.5046,0.0,0.6234,0.0,0.4173,0.4376,0.523,0.5262,0.0,0.0,0.6428,0.6733,0.6021,0.6373,0.6631,0.6237,0.6073,0.6023,0.6108,0.6092,0.6076,0.608,0.5961,0.5851,0.5794,0.5827,0.5851,0.5855,0.5872,0.5884,0.5888,0.59,0.5945,0.601,0.6019,0.5663,0.4579,0.4204,0.3695,0.2547,0.1275,0.051,0.0382,-0.0382,-0.1019,-0.1137,-0.0373,0.0492,0.0372,-0.025,-0.1007,2.5465,2.5237,2.3171,2.261,2.3233,2.189,2.0997,2.0252,1.8738,1.7708,1.6846,1.5157,1.3858,1.2965,1.2138,1.1904,1.2021,1.0384,0.9564,0.9564,0.8685,0.819,0.8066,0.7817,0.7755,0.7749,0.7511,0.7343,0.7337,0.7399,0.7,0.6279,0.6279,0.6727,0.7485,0.7089,0.7072,0.7632,0.7502,0.7912,0.8862,0.8435,0.8682,0.9583,0.8188,0.753,0.7984,0.7114,0.6608,0.6821,0.675,0.659,0.6224,0.5767,0.5237,0.0,0.0,0.0,0.0,0.0,0.0,0.0,0.0,0.0,0.0,0.0,0.5803,0.5083,0.4617,0.4715,0.5685,0.5613,0.5597,0.5749,0.6398,0.6617,0.6006,0.6302,0.6509,0.6281,0.6174,0.6202,0.6288,0.6268,0.6239,0.6239,0.6121,0.6014,0.5974,0.6002,0.6035,0.6035,0.6035,0.6035,0.6035,0.6035,0.58,0.5206,0.509,0.4594,0.3342,0.2575,0.1931,0.116,-0.0129,-0.1032,-0.1032,-0.1548,-0.2064,-0.206,-0.1655,-0.1136,-0.1012,-0.1525,-0.2046,2.2688,2.2438,2.1056,2.0436,2.0284,2.0039,2.0073,2.0047,1.7168,1.5805,1.5515,1.3929,1.3013,1.2621,1.114,1.0649,1.0899,0.9451,0.861,0.8366,0.8257,0.7965,0.772,0.7,0.6593,0.6233,0.5672,0.5394,0.5264,0.5302,0.5258,0.5139,0.5139,0.5139,0.5131,0.4774,0.5128,0.651,0.6484,0.6975,0.7779,0.6848,0.6784,0.7459,0.5753,0.5112,0.59,0.5197,0.502,0.5494,0.5473,0.5473,0.5262,0.5043,0.4513,0.0,0.3385,0.0,0.0,0.0,0.0,0.0,0.0,0.0,0.0,0.4986,0.5412,0.5951,0.5376,0.5243,0.6032,0.5868,0.5716,0.581,0.5978,0.6088,0.6092,0.6166,0.6247,0.6456,0.6201,0.6101,0.6164,0.5984,0.5803,0.5533,0.5483,0.5436,0.5691,0.5925,0.6166,0.6182,0.6182,0.603,0.5522,0.5653,0.5401,0.4123,0.3742,0.3228,0.1944,0.0778,-0.013,-0.0389,-0.13,-0.2079,-0.2076,-0.2078,-0.2207,-0.221,-0.2337,-0.2457,-0.2183,-0.2189,-0.2336,2.0803,1.9611,1.8372,1.7098,1.6063,1.6022,1.6647,1.7524,1.563,1.3925,1.2515,1.2085,1.1125,0.9744,0.9142,0.9092,0.9335,0.8482,0.8244,0.8506,0.8116,0.7867,0.7867,0.7747,0.6836,0.5264,0.5416,0.5103,0.4462,0.4445,0.4299,0.3916,0.3916,0.3916,0.3913,0.0,0.0,0.0,0.6147,0.6622,0.6724,0.6502,0.6526,0.6597,0.5359,0.0,0.4845,0.4597,0.4451,0.4584,0.4489,0.0,0.0,0.0,0.0,0.0,0.0,0.0,0.0,0.0,0.0,0.0,0.4096,0.4489,0.5092,0.53,0.5678,0.6167,0.5775,0.5512,0.5681,0.5745,0.59,0.5998,0.6161,0.6268,0.6272,0.6345,0.6411,0.6423,0.5489,0.4687,0.4699,0.3751,0.2941,0.3072,0.2935,0.2929,0.2927,0.4832,0.6058,0.6182,0.5937,0.5283,0.3089,0.3737,0.401,0.2728,0.2353,0.1842,0.0664,0.0133,-0.0533,-0.1467,-0.2003,-0.2268,-0.2135,-0.2405,-0.2533,-0.2538,-0.2803,-0.2926,-0.2627,-0.2755,-0.3031,1.8244,0.0,1.6193,1.5554,0.0,1.4128,1.4119,1.4633,1.3752,1.2185,1.0371,1.0304,0.9816,0.8818,0.8381,0.8447,0.8879,0.8139,0.8016,0.8144,0.6657,0.5916,0.5916,0.5876,0.5361,0.438,0.3595,0.3078,0.27,0.2911,0.2879,0.2723,0.2723,0.2711,0.269,0.213,0.2569,0.4205,0.474,0.5189,0.5679,0.5154,0.5078,0.5432,0.3956,0.0,0.0,0.0,0.0,0.0,0.0,0.0,0.0,0.0,0.0,0.2712,0.269,0.2697,0.2749,0.2874,0.2953,0.3199,0.356,0.414,0.4837,0.4997,0.5295,0.6036,0.5818,0.5814,0.5904,0.6035,0.6133,0.6182,0.6304,0.6117,0.5457,0.5352,0.5108,0.4431,0.3627,0.3222,0.3222,0.2685,0.2147,0.2147,0.2147,0.2013,0.2146,0.3316,0.4207,0.4204,0.4204,0.368,0.2498,0.2498,0.2631,0.1456,0.1061,0.04,-0.0806,-0.121,-0.1615,-0.2289,-0.2558,-0.2692,-0.2692,-0.2827,-0.2961,-0.2961,-0.323,-0.3492,-0.3199,-0.3197,-0.3335,1.5814,1.452,1.4511,1.439,1.4119,1.2676,1.1754,1.1365,0.0,0.0,0.0,0.9098,0.8711,0.8007,0.7486,0.7546,0.7937,0.7439,0.7434,0.7793,0.5671,0.4066,0.32,0.3204,0.3204,0.3079,0.1584,0.0847,0.0844,0.0833,0.0939,0.1156,0.1151,0.114,0.1348,0.1346,0.1782,0.2635,0.3174,0.3793,0.4589,0.3779,0.3618,0.4376,0.254,0.2,0.2716,0.2065,0.1857,0.246,0.2557,0.2582,0.2624,0.2567,0.2322,0.177,0.169,0.1707,0.1712,0.1716,0.1955,0.2446,0.3007,0.3646,0.4174,0.4306,0.4749,0.5552,0.5706,0.5776,0.6062,0.6137,0.6325,0.6341,0.614,0.5644,0.4434,0.4031,0.3492,0.2281,0.1879,0.1746,0.1746,0.1343,0.1343,0.1343,0.1074,0.1343,0.1342,0.1742,0.2275,0.2008,0.2139,0.201,0.1342,0.1474,0.1074,-0.0402,-0.0537,-0.0941,-0.2018,-0.2558,-0.2827,-0.2694,-0.3096,-0.3094,-0.3228,-0.3228,-0.3362,-0.3362,-0.3631,-0.3902,-0.3902,-0.3631,-0.3497,1.4381,1.3079,1.3079,1.2421,1.1108,0.9769,0.8712,0.8051,0.9667,0.9933,0.925,0.9557,0.7893,0.4965,0.4646,0.4585,0.4646,0.4518,0.5745,0.7814,0.7557,0.4943,0.0617,0.0494,0.0494,0.0494,0.0246,0.0122,-0.0121,-0.2045,-0.2503,-0.1641,-0.1502,-0.1138,-0.0562,-0.0561,-0.0448,-0.0223,0.2091,0.3493,0.3591,0.3422,0.339,0.3379,0.2292,0.1755,0.185,0.175,0.1748,0.1842,0.1866,0.1885,0.1888,0.1891,0.1795,0.1697,0.1703,0.1715,0.1742,0.1767,0.1819,0.2015,0.2036,0.2402,0.3116,0.3679,0.4119,0.4276,0.4829,0.5286,0.537,0.5784,0.6217,0.6285,0.5369,0.4434,0.4166,0.3088,0.2283,0.1879,0.094,0.0269,0.0134,-0.0672,-0.1346,-0.1615,-0.1346,-0.2018,-0.1613,0.0134,0.1343,0.0672,0.1074,0.0537,-0.0941,-0.0941,-0.0941,-0.2423,-0.2423,-0.2287,-0.2825,-0.3094,-0.3094,-0.3094,-0.3228,-0.3228,-0.3228,-0.3497,-0.3631,-0.3765,-0.4037,-0.4171,-0.4171,-0.4171,-0.4171,1.1739,1.0426,0.9624,0.8961,0.8302,0.8046,0.765,0.7393,0.8622,0.8215,0.6849,0.8307,0.8122,0.646,0.3269,0.1811,0.1786,0.1771,0.2388,0.3501,0.3596,0.0864,-0.3954,-0.4327,-0.3579,-0.2218,-0.2094,-0.2086,-0.2195,-0.3291,-0.4355,-0.5004,-0.3487,-0.2058,-0.1022,-0.0901,-0.0897,-0.0897,0.0445,0.1108,0.1107,0.098,0.0971,0.0971,0.0531,0.0526,0.0947,0.0947,0.1159,0.1685,0.1697,0.1704,0.1704,0.1719,0.1729,0.173,0.176,0.1783,0.1798,0.1843,0.165,0.1083,0.1094,0.098,0.0741,0.2376,0.367,0.3954,0.4397,0.4327,0.3853,0.4123,0.4267,0.389,0.3222,0.2551,0.2014,0.1477,0.0537,-0.0403,-0.1076,-0.1479,-0.1748,-0.2287,-0.2692,-0.2827,-0.2961,-0.3096,-0.3228,-0.1881,-0.094,-0.1613,-0.1344,-0.1613,-0.269,-0.2422,-0.2422,-0.31,-0.3098,-0.3096,-0.3228,-0.3362,-0.3497,-0.3497,-0.3631,-0.3768,-0.3768,-0.3902,-0.4037,-0.4037,-0.4171,-0.4305,-0.4305,-0.4305,-0.4305,0.9088,0.8035,0.6831,0.6301,0.6172,0.7397,0.7263,0.6317,0.7828,0.7286,0.5651,0.6337,0.6706,0.6241,0.1986,-0.0657,-0.1816,-0.1924,-0.1525,-0.0883,-0.0873,-0.3096,-0.6808,-0.7557,-0.6799,-0.4926,-0.4803,-0.4803,-0.4803,-0.48,-0.5746,-0.7235,-0.5057,-0.3128,-0.1846,-0.1591,-0.1578,-0.1578,-0.146,-0.1346,-0.0896,-0.0886,-0.0879,-0.0879,-0.0977,-0.0646,0.0108,0.0108,0.0431,0.1077,0.1078,0.1078,0.1079,0.1204,0.1216,0.1219,0.1137,0.1158,0.1163,0.119,0.0966,0.0121,0.0123,-0.0249,-0.0756,0.0762,0.2303,0.2849,0.3017,0.2922,0.2277,0.2281,0.2147,0.161,0.1208,0.0672,-0.0134,-0.0538,-0.121,-0.2558,-0.2828,-0.2827,-0.3094,-0.3228,-0.3228,-0.3228,-0.3362,-0.3362,-0.3362,-0.3497,-0.3497,-0.3497,-0.3362,-0.3228,-0.3362,-0.3362,-0.3365,-0.3367,-0.3365,-0.3362,-0.3497,-0.3768,-0.3902,-0.3902,-0.4037,-0.4171,-0.4305,-0.4305,-0.4305,-0.4305,-0.4305,-0.4442,-0.4842,-0.4839,-0.4839,0.6698,0.6564,0.6297,0.5904,0.5513,0.8644,0.7286,0.3365,0.6753,0.8531,0.7161,0.2963,0.0807,0.0806,0.0134,-0.2798,-0.7262,-0.7782,-0.6223,-0.3789,-0.352,-0.3867,-0.4687,-0.6794,-0.7787,-0.7413,-0.7408,-0.7286,-0.7286,-0.7403,-0.722,-0.6875,-0.6,-0.5115,-0.4344,-0.37,-0.3439,-0.3439,-0.339,-0.2578,-0.1009,-0.0896,-0.0895,-0.0895,-0.0894,-0.0893,-0.078,-0.0781,-0.0781,-0.067,-0.0669,-0.0669,-0.0671,-0.068,-0.0685,-0.0686,-0.0814,-0.0827,-0.0718,-0.0721,-0.0728,-0.0861,-0.0873,-0.1007,-0.1137,-0.0905,-0.0656,-0.0395,-0.0,0.0402,0.0269,0.0806,0.094,0.0671,-0.0134,-0.0941,-0.1075,-0.2151,-0.2959,-0.3094,-0.3228,-0.3228,-0.3228,-0.3362,-0.3362,-0.3765,-0.3765,-0.3768,-0.4037,-0.4037,-0.4037,-0.4037,-0.3902,-0.3768,-0.3765,-0.3768,-0.3768,-0.4039,-0.3902,-0.3902,-0.4037,-0.4171,-0.4305,-0.4171,-0.4305,-0.4305,-0.4305,-0.4305,-0.4305,-0.4308,-0.4442,-0.4711,-0.5778,-0.6168,-0.6168,0.5101,0.5101,0.4297,0.3763,0.3633,0.458,0.269,-0.0807,-0.148,-0.0672,0.0671,-0.1612,-0.3497,-0.4986,-0.336,-0.3882,-0.6133,-0.7822,-0.7877,-0.6726,-0.6549,-0.6467,-0.6496,-0.75,-0.7964,-0.7894,-0.7888,-0.7888,-0.7888,-0.7883,-0.7484,-0.6827,-0.6168,-0.5402,-0.477,-0.4115,-0.3733,-0.373,-0.3709,-0.3349,-0.2764,-0.2491,-0.2466,-0.2466,-0.2466,-0.2242,-0.1793,-0.1681,-0.1463,-0.1022,-0.0909,-0.0914,-0.1038,-0.1045,-0.1048,-0.1049,-0.1064,-0.0961,-0.0976,-0.0977,-0.1225,-0.1849,-0.2001,-0.2279,-0.2809,-0.2866,-0.2909,-0.28,-0.1608,-0.0941,-0.1478,-0.1344,-0.1343,-0.1746,-0.242,-0.2554,-0.242,-0.2823,-0.3228,-0.3497,-0.3497,-0.3631,-0.3768,-0.3902,-0.3902,-0.4037,-0.4037,-0.4171,-0.4305,-0.4305,-0.4305,-0.4305,-0.4171,-0.4171,-0.4037,-0.4171,-0.4171,-0.4171,-0.4171,-0.4171,-0.4305,-0.4305,-0.4305,-0.4305,-0.4305,-0.4305,-0.4305,-0.4305,-0.4305,-0.4442,-0.5252,-0.5792,-0.6313,-0.7084,-0.7872,0.3765,0.3362,0.1615,0.0942,0.1076,0.0134,-0.1613,-0.3765,-0.7148,-0.7416,-0.5644,-0.5506,-0.6594,-0.8097,-0.6321,-0.5506,-0.5767,-0.7592,-0.8607,-0.8568,-0.835,-0.8242,-0.8122,-0.8111,-0.8046,-0.7937,-0.7921,-0.7905,-0.7877,-0.7872,-0.7622,-0.7123,-0.6332,-0.5573,-0.5083,-0.43,-0.3793,-0.3793,-0.3779,-0.3768,-0.3755,-0.3681,-0.3638,-0.3638,-0.3638,-0.3295,-0.2725,-0.2612,-0.2397,-0.1849,-0.1733,-0.1743,-0.188,-0.1889,-0.1898,-0.1907,-0.1807,-0.1828,-0.1848,-0.1849,-0.21,-0.2855,-0.3022,-0.3322,-0.3888,-0.4207,-0.4259,-0.4163,-0.2823,-0.242,-0.2957,-0.3094,-0.3362,-0.3902,-0.3902,-0.3768,-0.3497,-0.3497,-0.3631,-0.3902,-0.3902,-0.4037,-0.4171,-0.4305,-0.4305,-0.4305,-0.4305,-0.4305,-0.4305,-0.4305,-0.4305,-0.4305,-0.4305,-0.4305,-0.4305,-0.4305,-0.4305,-0.4305,-0.4305,-0.4305,-0.4305,-0.4305,-0.4305,-0.4305,-0.4305,-0.4305,-0.4305,-0.4305,-0.4708,-0.5114,-0.5927,-0.7139,-0.7912,-0.8535,-0.9588,0.229,0.175,-0.1479,-0.215,-0.134,-0.3084,-0.4026,-0.4699,-0.7407,-0.8494,-0.8215,-0.821,-0.8478,-0.8617,-0.8215,-0.8349,-0.8344,-0.8467,-0.8535,-0.8437,-0.8416,-0.8345,-0.8231,-0.8225,-0.8166,-0.8051,-0.803,-0.7975,-0.7877,-0.7872,-0.7872,-0.7744,-0.6512,-0.59,-0.5639,-0.4606,-0.3976,-0.397,-0.3928,-0.3777,-0.3774,-0.3766,-0.376,-0.376,-0.3758,-0.3752,-0.3638,-0.3758,-0.3643,-0.3648,-0.3528,-0.3651,-0.3659,-0.3706,-0.3638,-0.3684,-0.3694,-0.3699,-0.3704,-0.3584,-0.3727,-0.3902,-0.3832,-0.4015,-0.4199,-0.4259,-0.4297,-0.4305,-0.4037,-0.4037,-0.4037,-0.4037,-0.4171,-0.4171,-0.4305,-0.4171,-0.4171,-0.4171,-0.4305,-0.4305,-0.4171,-0.4305,-0.4305,-0.4305,-0.4305,-0.4305,-0.4305,-0.4305,-0.4305,-0.4305,-0.4305,-0.4305,-0.4305,-0.4305,-0.4305,-0.4305,-0.4305,-0.4305,-0.4305,-0.4305,-0.4305,-0.4305,-0.4305,-0.444,-0.4574,-0.4574,-0.444,-0.4708,-0.5376,-0.6183,-0.7545,-0.8617,-0.9244,-1.0148,-1.1073,-0.0134,-0.0672,-0.188,-0.2954,-0.3756,-0.4428,-0.564,-0.7125,-0.8076,-0.8611,-0.8606,-0.86,-0.86,-0.8595,-0.86,-0.86,-0.8595,-0.86,-0.8568,-0.853,-0.853,-0.8465,-0.8361,-0.835,-0.8291,-0.8176,-0.8089,-0.7992,-0.7883,-0.7872,-0.7872,-0.775,-0.7011,-0.6521,-0.639,-0.5632,-0.5007,-0.4642,-0.4495,-0.4246,-0.4004,-0.3886,-0.3886,-0.388,-0.3809,-0.3768,-0.3768,-0.3768,-0.3788,-0.3826,-0.3828,-0.3845,-0.3883,-0.3905,-0.3927,-0.3948,-0.3951,-0.3967,-0.3997,-0.4006,-0.403,-0.409,-0.415,-0.4191,-0.4221,-0.427,-0.4305,-0.4305,-0.4305,-0.4305,-0.4305,-0.4305,-0.4305,-0.4305,-0.4305,-0.4305,-0.4305,-0.4305,-0.4305,-0.4305,-0.4305,-0.4305,-0.4305,-0.4305,-0.4305,-0.4305,-0.4305,-0.4305,-0.4305,-0.4305,-0.4305,-0.4305,-0.4305,-0.4305,-0.4305,-0.4305,-0.4305,-0.4305,-0.4305,-0.4308,-0.4308,-0.444,-0.444,-0.4977,-0.5108,-0.5644,-0.5778,-0.6577,-0.7107,-0.7646,-0.9012,-0.9946,-1.0578,-1.1219,-1.1886,-0.2415,-0.3354,-0.4026,-0.4964,-0.6038,-0.6172,-0.7116,-0.8606,-0.8606,-0.86,-0.859,-0.859,-0.859,-0.8723,-0.8984,-0.9117,-0.9117,-0.8723,-0.859,-0.859,-0.8984,-0.9076,-0.9007,-0.9389,-0.9447,-0.9307,-0.9178,-0.9044,-0.8922,-0.8909,-0.8885,-0.8848,-0.8227,-0.7861,-0.7739,-0.7123,-0.6394,-0.6023,-0.5904,-0.554,-0.4684,-0.4564,-0.4318,-0.394,-0.3869,-0.3828,-0.3828,-0.3828,-0.3845,-0.3883,-0.3888,-0.3907,-0.3946,-0.3951,-0.3959,-0.3976,-0.3978,-0.4003,-0.4055,-0.4063,-0.409,-0.4147,-0.4191,-0.4221,-0.4243,-0.4283,-0.4303,-0.4305,-0.4305,-0.4305,-0.4305,-0.4305,-0.4305,-0.4305,-0.4305,-0.4305,-0.4305,-0.4305,-0.4305,-0.4305,-0.4305,-0.4305,-0.4305,-0.4305,-0.4305,-0.4305,-0.4305,-0.4305,-0.4305,-0.4305,-0.4305,-0.4305,-0.4305,-0.4305,-0.4305,-0.4305,-0.444,-0.444,-0.4574,-0.4574,-0.4973,-0.4977,-0.5242,-0.5644,-0.6176,-0.6844,-0.7507,-0.844,-0.8972,-0.9371,-1.0313,-1.1394,-1.1776,-1.2173,-1.2568,-0.4559,-0.5904,-0.7799,-0.8195,-0.8318,-0.8318,-0.8451,-0.859,-0.859,-0.8723,-0.8851,-0.8717,-0.8851,-0.8984,-0.9908,-1.0174,-1.0041,-0.9383,-0.8984,-0.8984,-0.9782,-1.0174,-1.0287,-1.108,-1.1388,-1.1228,-1.1352,-1.1188,-1.0907,-1.0776,-1.0718,-1.0594,-0.9957,-0.9592,-0.9687,-0.8836,-0.8337,-0.8094,-0.7856,-0.7245,-0.6149,-0.5904,-0.5418,-0.4318,-0.4183,-0.418,-0.4063,-0.394,-0.3937,-0.3943,-0.3946,-0.3948,-0.3948,-0.3954,-0.3978,-0.4019,-0.4033,-0.4065,-0.4117,-0.4125,-0.4153,-0.4204,-0.4221,-0.4248,-0.4289,-0.4303,-0.4305,-0.4305,-0.4305,-0.4305,-0.4305,-0.4305,-0.4305,-0.4305,-0.4305,-0.4305,-0.4305,-0.4305,-0.4305,-0.4305,-0.4305,-0.4305,-0.4305,-0.4305,-0.4305,-0.4574,-0.444,-0.444,-0.4574,-0.444,-0.4305,-0.4305,-0.4574,-0.4842,-0.4574,-0.4308,-0.444,-0.4574,-0.4708,-0.4973,-0.6042,-0.6439,-0.6711,-0.7245,-0.7907,-0.8573,-0.9371,-1.0167,-1.0439,-1.0969,-1.2041,-1.2444,-1.2576,-1.2568,-1.27,-0.6042,-0.6978,-0.7655,-0.8189,-0.859,-0.859,-0.859,-0.859,-0.859,-0.8984,-0.9649,-0.9649,-1.0047,-1.0704,-1.1233,-1.1365,-1.1233,-1.0969,-1.0836,-1.0836,-1.1101,-1.1365,-1.1365,-1.163,-1.1672,-1.166,-1.1592,-1.1487,-1.1351,-1.1321,-1.1291,-1.1113,-1.0878,-1.0703,-1.0696,-1.0229,-0.9808,-0.9316,-0.9316,-0.8708,-0.7606,-0.7612,-0.7245,-0.6761,-0.6639,-0.6272,-0.5295,-0.4441,-0.3951,-0.3951,-0.3951,-0.3951,-0.3956,-0.3986,-0.4014,-0.4036,-0.4076,-0.4125,-0.4177,-0.4188,-0.4213,-0.4262,-0.4278,-0.4286,-0.4303,-0.4305,-0.4305,-0.4305,-0.4305,-0.4305,-0.4305,-0.4305,-0.4305,-0.4305,-0.4305,-0.4305,-0.4305,-0.4305,-0.4305,-0.4305,-0.4305,-0.4305,-0.4305,-0.4305,-0.4574,-0.5376,-0.4977,-0.4574,-0.5376,-0.4977,-0.4308,-0.4305,-0.4973,-0.6046,-0.6585,-0.6719,-0.6577,-0.6309,-0.6176,-0.6309,-0.7374,-0.7902,-0.8307,-0.8839,-0.9637,-1.0306,-1.1101,-1.1497,-1.1769,-1.2033,-1.2437,-1.2708,-1.27,-1.2832,-1.2832,-0.7517,-0.7917,-0.7917,-0.8184,-0.8584,-0.8984,-0.925,-0.925,-0.9649,-1.0174,-1.0704,-1.0836,-1.1101,-1.1762,-1.2157,-1.2421,-1.2421,-1.2684,-1.2947,-1.2816,-1.2421,-1.2421,-1.2421,-1.2816,-1.2898,-1.28,-1.2775,-1.2693,-1.2529,-1.2639,-1.2606,-1.2523,-1.2291,-1.2366,-1.2233,-1.2012,-1.1701,-1.1325,-1.1087,-1.0341,-0.9471,-0.91,-0.8729,-0.8234,-0.8116,-0.7619,-0.6874,-0.6006,-0.4984,-0.4209,-0.397,-0.3992,-0.4014,-0.4052,-0.4079,-0.4106,-0.4139,-0.4185,-0.424,-0.4251,-0.4264,-0.43,-0.4305,-0.4305,-0.4305,-0.4305,-0.4305,-0.4305,-0.4305,-0.4305,-0.4305,-0.4305,-0.4305,-0.4305,-0.4305,-0.4305,-0.4305,-0.4305,-0.4305,-0.4305,-0.4305,-0.4305,-0.4305,-0.4305,-0.4574,-0.5376,-0.5376,-0.5242,-0.6176,-0.6176,-0.564,-0.5369,-0.6168,-0.7379,-0.9006,-0.9128,-0.8839,-0.844,-0.8041,-0.8307,-0.8972,-0.9238,-0.9637,-1.0439,-1.124,-1.1505,-1.2165,-1.2305,-1.2568,-1.27,-1.2865,-1.2832,-1.2832,-1.2832,-1.2832,-0.8717,-0.8723,-0.8723,-0.8851,-0.9117,-0.9915,-1.0306,-1.0439,-1.1233,-1.163,-1.1894,-1.1894,-1.2025,-1.2289,-1.3079,-1.3341,-1.3604,-1.4137,-1.4539,-1.4399,-1.3866,-1.3341,-1.3481,-1.4137,-1.452,-1.4642,-1.4651,-1.4558,-1.4263,-1.4254,-1.4544,-1.415,-1.4113,-1.4201,-1.3941,-1.3941,-1.3635,-1.3358,-1.3009,-1.2113,-1.1099,-1.0728,-0.9969,-0.8949,-0.8822,-0.8816,-0.8425,-0.8044,-0.6836,-0.4605,-0.4392,-0.444,-0.4237,-0.4125,-0.4155,-0.4199,-0.4215,-0.4248,-0.4292,-0.4297,-0.43,-0.4305,-0.4305,-0.4305,-0.4305,-0.4305,-0.4305,-0.4305,-0.4305,-0.4305,-0.4305,-0.4305,-0.4305,-0.4305,-0.4305,-0.4305,-0.4305,-0.4305,-0.4305,-0.4308,-0.4308,-0.444,-0.4708,-0.4708,-0.5111,-0.5376,-0.6176,-0.6577,-0.7107,-0.7369,-0.6956,-0.7089,-0.7498,-0.8978,-1.0618,-1.0591,-1.0306,-1.0306,-1.0041,-1.0174,-1.0439,-1.0704,-1.0836,-1.1769,-1.232,-1.2576,-1.2724,-1.2873,-1.2921,-1.2986,-1.2962,-1.2881,-1.2889,-1.2954,-1.297,-0.9782,-0.9908,-1.0571,-1.0969,-1.0969,-1.1233,-1.1365,-1.1365,-1.163,-1.2289,-1.2816,-1.2947,-1.335,-1.4006,-1.4268,-1.453,-1.4539,-1.48,-1.4931,-1.4931,-1.467,-1.4539,-1.4539,-1.467,-1.4931,-1.4931,-1.4931,-1.4903,-1.4855,-1.4837,-1.4808,-1.4761,-1.461,-1.4544,-1.4407,-1.4276,-1.4192,-1.4182,-1.4066,-1.3564,-1.2809,-1.2548,-1.2162,-1.1404,-1.1165,-1.0777,-0.9869,-0.8846,-0.8193,-0.7248,-0.6248,-0.5762,-0.5672,-0.4816,-0.4461,-0.4481,-0.4392,-0.4286,-0.4434,-0.444,-0.444,-0.4305,-0.4574,-0.4305,-0.4305,-0.4305,-0.4305,-0.4305,-0.4305,-0.444,-0.4305,-0.4308,-0.4308,-0.4305,-0.4574,-0.444,-0.4305,-0.4305,-0.4305,-0.444,-0.5242,-0.5778,-0.6042,-0.6711,-0.7507,-0.8174,-0.8307,-0.8307,-0.8706,-0.8839,-0.8557,-0.8695,-0.9238,-1.0724,-1.1806,-1.1924,-1.1909,-1.2173,-1.2041,-1.1924,-1.2048,-1.2033,-1.2165,-1.27,-1.2616,-1.2757,-1.2921,-1.2954,-1.3035,-1.3133,-1.31,-1.3051,-1.3173,-1.3246,-1.323,-1.0836,-1.0969,-1.1497,-1.1762,-1.1894,-1.2289,-1.2421,-1.2553,-1.2947,-1.335,-1.3875,-1.4006,-1.4268,-1.48,-1.4931,-1.4931,-1.4931,-1.4931,-1.4931,-1.4931,-1.48,-1.48,-1.4931,-1.4931,-1.4931,-1.4931,-1.4931,-1.4931,-1.4931,-1.4931,-1.4931,-1.4903,-1.4818,-1.4761,-1.4752,-1.4648,-1.4572,-1.4581,-1.4444,-1.4189,-1.3797,-1.3669,-1.3422,-1.3037,-1.2789,-1.2266,-1.1349,-1.0704,-0.9767,-0.8688,-0.7647,-0.7279,-0.7196,-0.6596,-0.6101,-0.6101,-0.6152,-0.6176,-0.6042,-0.6042,-0.6042,-0.6176,-0.6042,-0.6042,-0.6176,-0.6042,-0.6042,-0.6176,-0.6042,-0.5778,-0.5242,-0.5242,-0.551,-0.6176,-0.6176,-0.5644,-0.4574,-0.4839,-0.5108,-0.551,-0.6443,-0.7374,-0.7379,-0.8174,-0.8839,-0.9504,-0.9504,-0.9769,-1.0306,-1.0174,-1.018,-1.0319,-1.0598,-1.1829,-1.2563,-1.257,-1.2626,-1.2877,-1.3003,-1.312,-1.2913,-1.2897,-1.2913,-1.2929,-1.2938,-1.2978,-1.3068,-1.3133,-1.3189,-1.3246,-1.3222,-1.3254,-1.3489,-1.3725,-1.3717,-1.1894,-1.1894,-1.2025,-1.2157,-1.2421,-1.3079,-1.3473,-1.3613,-1.4268,-1.48,-1.48,-1.48,-1.48,-1.4931,-1.4931,-1.4931,-1.4931,-1.4931,-1.4931,-1.4931,-1.4931,-1.4931,-1.4931,-1.4931,-1.4931,-1.4931,-1.4931,-1.4931,-1.4931,-1.4931,-1.4931,-1.4931,-1.4922,-1.4922,-1.4893,-1.4893,-1.4922,-1.4754,-1.4595,-1.4335,-1.4196,-1.3935,-1.3665,-1.3413,-1.3299,-1.3037,-1.2652,-1.2397,-1.1556,-0.9068,-0.8802,-0.8722,-0.8811,-0.8701,-0.8435,-0.8296,-0.8169,-0.8174,-0.844,-0.8174,-0.844,-0.8174,-0.8307,-0.8573,-0.8307,-0.8174,-0.8041,-0.8041,-0.8573,-0.7641,-0.6978,-0.6577,-0.7107,-0.7774,-0.8307,-0.724,-0.5778,-0.5908,-0.6577,-0.6711,-0.7912,-0.8723,-0.8856,-0.8995,-0.9279,-1.086,-1.0839,-1.1234,-1.1621,-1.1614,-1.1866,-1.2109,-1.239,-1.2805,-1.3027,-1.3243,-1.3197,-1.339,-1.3518,-1.3612,-1.3193,-1.3161,-1.3043,-1.3059,-1.3243,-1.3341,-1.3336,-1.3384,-1.3376,-1.3563,-1.3725,-1.3717,-1.3733,-1.4102,-1.4145,-1.2947,-1.3079,-1.3875,-1.4268,-1.4277,-1.453,-1.453,-1.4539,-1.48,-1.4931,-1.4931,-1.4931,-1.4931,-1.4931,-1.4931,-1.4931,-1.4931,-1.4931,-1.4931,-1.4931,-1.4931,-1.4931,-1.4931,-1.4931,-1.4931,-1.4931,-1.4931,-1.4931,-1.4931,-1.4931,-1.4931,-1.4931,-1.4931,-1.4931,-1.4931,-1.4931,-1.4931,-1.4931,-1.48,-1.4539,-1.4137,-1.4006,-1.3744,-1.3227,-1.3095,-1.2972,-1.2832,-1.2832,-1.2421,-1.1724,-1.0781,-1.0261,-1.0028,-0.9371,-0.8972,-0.8972,-0.8839,-0.8706,-0.8706,-0.8839,-0.8706,-0.8839,-0.8972,-0.8573,-0.8573,-0.8839,-0.8706,-0.8573,-0.8573,-0.8706,-0.8307,-0.8174,-0.844,-0.8839,-0.8851,-0.8584,-0.7907,-0.7912,-0.8184,-0.8462,-0.9466,-1.047,-1.0604,-1.1581,-1.1895,-1.2248,-1.2384,-1.2767,-1.2863,-1.2823,-1.2933,-1.3043,-1.3051,-1.3361,-1.3747,-1.3857,-1.383,-1.3897,-1.4035,-1.4164,-1.3866,-1.3654,-1.3704,-1.3712,-1.3576,-1.37,-1.3686,-1.3645,-1.3612,-1.385,-1.4089,-1.4221,-1.4221,-1.4561,-1.4701,-1.4006,-1.4137,-1.467,-1.4931,-1.4931,-1.4931,-1.4931,-1.4931,-1.4931,-1.4931,-1.4931,-1.4931,-1.4931,-1.4931,-1.4931,-1.4931,-1.4931,-1.4931,-1.4931,-1.4931,-1.4931,-1.4931,-1.4931,-1.4931,-1.4931,-1.4931,-1.4931,-1.4931,-1.4931,-1.4931,-1.4931,-1.4931,-1.4931,-1.4931,-1.4931,-1.4931,-1.4931,-1.4931,-1.4931,-1.467,-1.4408,-1.4408,-1.4146,-1.3621,-1.3358,-1.3227,-1.3104,-1.284,-1.284,-1.2568,-1.2041,-1.1637,-1.1637,-1.0969,-1.0571,-1.0571,-1.0571,-1.0571,-1.0571,-1.0571,-1.0704,-1.0432,-1.0571,-1.0571,-1.0571,-1.0571,-1.0571,-1.0571,-1.0571,-1.0571,-1.0571,-0.9769,-0.9902,-1.0452,-1.0638,-1.0665,-1.0538,-1.013,-0.9728,-1.0021,-1.1077,-1.1825,-1.255,-1.3126,-1.3134,-1.2901,-1.2842,-1.3093,-1.3142,-1.3246,-1.3238,-1.3358,-1.3493,-1.3687,-1.4225,-1.4484,-1.4344,-1.4395,-1.4552,-1.4544,-1.4483,-1.444,-1.4432,-1.425,-1.3913,-1.4014,-1.3974,-1.3908,-1.4039,-1.4429,-1.4656,-1.4832,-1.4832,-1.5088,-1.5097,-1.4931,-1.4931,-1.4931,-1.4931,-1.4931,-1.4931,-1.4931,-1.4931,-1.4931,-1.4931,-1.4931,-1.4931,-1.4931,-1.4931,-1.4931,-1.4931,-1.4931,-1.4931,-1.4931,-1.4931,-1.4931,-1.4931,-1.4931,-1.4931,-1.4931,-1.4931,-1.4931,-1.4931,-1.4931,-1.4931,-1.4931,-1.4931,-1.4931,-1.4931,-1.4931,-1.4931,-1.4931,-1.4931,-1.4931,-1.48,-1.467,-1.467,-1.4539,-1.4146,-1.3875,-1.3752,-1.3498,-1.3235,-1.2964,-1.284,-1.284,-1.284,-1.2832,-1.2832,-1.2832,-1.2708,-1.2437,-1.2305,-1.2305,-1.2437,-1.2568,-1.2832,-1.27,-1.27,-1.2568,-1.2437,-1.2305,-1.2437,-1.2437,-1.2437,-1.27,-1.1814,-1.1681,-1.2383,-1.2901,-1.3124,-1.2863,-1.206,-1.1539,-1.1518,-1.2186,-1.2842,-1.3133,-1.3425,-1.3425,-1.3433,-1.3522,-1.3555,-1.3474,-1.3546,-1.3821,-1.3959,-1.3959,-1.4173,-1.4588,-1.4902,-1.4912,-1.4938,-1.5124,-1.5124,-1.5132,-1.5079,-1.4868,-1.442,-1.4131,-1.4348,-1.4381,-1.4364,-1.4673,-1.4901,-1.5186,-1.5159,-1.531,-1.5461,-1.5612,-1.4931,-1.4931,-1.4931,-1.4931,-1.4931,-1.4931,-1.4931,-1.4931,-1.4931,-1.4931,-1.4931,-1.4931,-1.4931,-1.4931,-1.4931,-1.4931,-1.4931,-1.4931,-1.4931,-1.4931,-1.4931,-1.4931,-1.5192,-1.5192,-1.5062,-1.4931,-1.5062,-1.5192,-1.4931,-1.4931,-1.4931,-1.4931,-1.4931,-1.4931,-1.4931,-1.4931,-1.4931,-1.4931,-1.4931,-1.48,-1.467,-1.453,-1.4399,-1.4137,-1.4006,-1.3875,-1.3884,-1.3752,-1.3621,-1.3367,-1.3367,-1.3104,-1.284,-1.2832,-1.2832,-1.2832,-1.2832,-1.2832,-1.2832,-1.2832,-1.2832,-1.2832,-1.2832,-1.2832,-1.2832,-1.284,-1.2848,-1.2856,-1.2856,-1.2848,-1.284,-1.257,-1.2767,-1.3092,-1.3197,-1.3319,-1.3207,-1.3003,-1.2904,-1.2842,-1.3221,-1.3595,-1.3604,-1.376,-1.3784,-1.3941,-1.4123,-1.4173,-1.4139,-1.4344,-1.4423,-1.4562,-1.4562,-1.4684,-1.4956,-1.5238,-1.5425,-1.5566,-1.5584,-1.5584,-1.5593,-1.5593,-1.5283,-1.4947,-1.4806,-1.4991,-1.5026,-1.491,-1.5186,-1.547,-1.547,-1.5612,-1.5753,-1.5895,-1.5895,-1.4931,-1.4931,-1.4931,-1.4931,-1.4931,-1.4931,-1.4931,-1.4931,-1.4931,-1.4931,-1.4931,-1.4931,-1.4931,-1.4931,-1.4931,-1.4931,-1.4931,-1.4931,-1.4931,-1.4931,-1.4931,-1.5443,-1.5824,-1.5954,-1.6473,-1.6861,-1.699,-1.6094,-1.5062,-1.4931,-1.5062,-1.4931,-1.4931,-1.4931,-1.4931,-1.4931,-1.4931,-1.4931,-1.4931,-1.48,-1.467,-1.466,-1.453,-1.4399,-1.4137,-1.3875,-1.3875,-1.349,-1.3227,-1.3104,-1.3104,-1.2972,-1.2832,-1.2832,-1.2832,-1.2832,-1.2832,-1.2832,-1.2832,-1.2832,-1.2832,-1.2832,-1.2832,-1.2832,-1.2832,-1.284,-1.2881,-1.2946,-1.2978,-1.3011,-1.3116,-1.3189,-1.323,-1.3271,-1.3401,-1.3498,-1.3408,-1.3677,-1.3669,-1.3768,-1.3709,-1.3766,-1.3782,-1.3956,-1.4156,-1.4324,-1.4608,-1.4608,-1.4759,-1.4823,-1.4999,-1.5149,-1.528,-1.5343,-1.5452,-1.5593,-1.5744,-1.5895,-1.5895,-1.6037,-1.6037,-1.5895,-1.5895,-1.5735,-1.5612,-1.547,-1.547,-1.5328,-1.5612,-1.5753,-1.5895,-1.5895,-1.6046,-1.6188,-1.6188,-1.4931,-1.4931,-1.4931,-1.4931,-1.4931,-1.4931,-1.4931,-1.4931,-1.4931,-1.4931,-1.4931,-1.4931,-1.4931,-1.4931,-1.4931,-1.5062,-1.5323,-1.5313,-1.5574,-1.5964,-1.5964,-1.6473,-1.7109,-1.7496,-1.7882,-1.8396,-1.8652,-1.7882,-1.6473,-1.6094,-1.5834,-1.6094,-1.5834,-1.5443,-1.5574,-1.5574,-1.5313,-1.4931,-1.4931,-1.4931,-1.4931,-1.4931,-1.4931,-1.4931,-1.4408,-1.4137,-1.4137,-1.3752,-1.349,-1.3358,-1.3227,-1.3095,-1.3095,-1.2964,-1.2964,-1.2964,-1.284,-1.2832,-1.2832,-1.2832,-1.2832,-1.2832,-1.2832,-1.2832,-1.2856,-1.2897,-1.3103,-1.3108,-1.3292,-1.3333,-1.3303,-1.3401,-1.3417,-1.3457,-1.3579,-1.3701,-1.3725,-1.379,-1.4131,-1.414,-1.4047,-1.4039,-1.4156,-1.4148,-1.4315,-1.475,-1.4893,-1.5035,-1.5177,-1.5328,-1.5557,-1.5707,-1.5858,-1.5999,-1.6037,-1.5895,-1.6037,-1.6037,-1.6037,-1.6178,-1.6188,-1.6188,-1.6188,-1.6046,-1.5904,-1.5612,-1.5612,-1.5753,-1.5895,-1.6037,-1.6188,-1.6188,-1.6178,-1.632,-1.6452,-1.4931,-1.4931,-1.4931,-1.4931,-1.4931,-1.4931,-1.4931,-1.4931,-1.4931,-1.4931,-1.4931,-1.4931,-1.4931,-1.5062,-1.5062,-1.5704,-1.6473,-1.685,-1.7238,-1.7882,-1.8011,-1.8267,-1.8768,-1.878,-1.9024,-1.9546,-1.9419,-1.8908,-1.8396,-1.8396,-1.8267,-1.8011,-1.7753,-1.7753,-1.6213,-1.6084,-1.6084,-1.5062,-1.4931,-1.4931,-1.4931,-1.4931,-1.4931,-1.48,-1.48,-1.467,-1.4539,-1.4408,-1.4277,-1.4015,-1.4137,-1.4006,-1.3875,-1.3752,-1.3744,-1.3613,-1.3227,-1.2832,-1.2832,-1.2964,-1.2964,-1.2972,-1.298,-1.284,-1.3046,-1.3286,-1.341,-1.3319,-1.3617,-1.3642,-1.3587,-1.353,-1.3587,-1.3652,-1.3883,-1.3965,-1.3863,-1.4115,-1.4324,-1.4625,-1.4634,-1.4483,-1.4466,-1.46,-1.46,-1.4893,-1.5177,-1.5461,-1.5603,-1.5753,-1.5763,-1.5895,-1.6037,-1.6188,-1.6188,-1.6188,-1.6603,-1.6461,-1.6603,-1.6603,-1.6603,-1.6744,-1.632,-1.6178,-1.6037,-1.6037,-1.6461,-1.6461,-1.632,-1.632,-1.6461,-1.6461,-1.6178,-1.6452,-1.7147,-1.4931,-1.4931,-1.4931,-1.4931,-1.4931,-1.4931,-1.4931,-1.4931,-1.4931,-1.4931,-1.4931,-1.4931,-1.5313,-1.5954,-1.6084,-1.685,-1.7871,-1.8139,-1.8396,-1.9036,-1.9164,-1.9419,-2.0055,-2.0309,-2.0436,-2.1069,-2.1321,-2.1461,-2.0943,-1.9674,-1.878,-1.8127,-1.7882,-1.698,-1.6343,-1.5954,-1.5443,-1.5062,-1.4931,-1.4931,-1.4931,-1.4931,-1.4931,-1.4931,-1.48,-1.467,-1.467,-1.4408,-1.4277,-1.4137,-1.4137,-1.4006,-1.3875,-1.3875,-1.3875,-1.3875,-1.3613,-1.349,-1.349,-1.3358,-1.3367,-1.3401,-1.346,-1.3703,-1.3654,-1.3612,-1.3738,-1.3913,-1.38,-1.3841,-1.4056,-1.4024,-1.4198,-1.439,-1.4424,-1.4148,-1.4181,-1.4332,-1.4625,-1.4919,-1.507,-1.5052,-1.4901,-1.4901,-1.5035,-1.5319,-1.5612,-1.5753,-1.5895,-1.6037,-1.6046,-1.6188,-1.6188,-1.6188,-1.6188,-1.6188,-1.7017,-1.7298,-1.771,-1.771,-1.758,-1.7439,-1.7298,-1.6593,-1.632,-1.6603,-1.7157,-1.6875,-1.6603,-1.6734,-1.6875,-1.7157,-1.757,-1.853,-1.9217,-1.4931,-1.4931,-1.4931,-1.4931,-1.4931,-1.4931,-1.4931,-1.4931,-1.4931,-1.5062,-1.5443,-1.5834,-1.6602,-1.7238,-1.7625,-1.8256,-1.9419,-1.9546,-1.9801,-1.9928,-2.0182,-2.069,-2.1335,-2.1713,-2.209,-2.3106,-2.2731,-2.2731,-2.2215,-2.1321,-1.9801,-1.8512,-1.9407,-1.7871,-1.6473,-1.6213,-1.6084,-1.4931,-1.4931,-1.4931,-1.4931,-1.4931,-1.4931,-1.48,-1.467,-1.453,-1.4539,-1.4399,-1.4268,-1.4268,-1.4277,-1.4277,-1.4268,-1.4268,-1.4268,-1.4295,-1.4209,-1.4262,-1.4121,-1.4112,-1.3954,-1.4015,-1.413,-1.4179,-1.4481,-1.413,-1.393,-1.4386,-1.4403,-1.4489,-1.4432,-1.4608,-1.4733,-1.4733,-1.4893,-1.46,-1.4449,-1.475,-1.4901,-1.5044,-1.5186,-1.5479,-1.5328,-1.5186,-1.5328,-1.5753,-1.6037,-1.6188,-1.6461,-1.6603,-1.6875,-1.7157,-1.771,-1.771,-1.771,-1.771,-1.8121,-1.8272,-1.8681,-1.8681,-1.839,-1.867,-1.867,-1.7981,-1.7147,-1.7851,-1.8809,-1.7851,-1.6875,-1.784,-1.867,-1.8821,-1.9367,-2.0328,-2.102,-1.4931,-1.4931,-1.4931,-1.4931,-1.4931,-1.4931,-1.4931,-1.4931,-1.4931,-1.5694,-1.698,-1.8011,-1.8524,-1.8908,-1.9036,-1.9674,-2.0943,-2.0956,-2.1461,-2.2215,-2.2841,-2.2591,-2.2731,-2.2731,-2.2856,-2.3106,-2.3106,-2.3106,-2.3106,-2.2731,-2.2341,-2.2591,-2.1321,-2.0436,-1.9164,-1.7882,-1.712,-1.5964,-1.5574,-1.5323,-1.5192,-1.5062,-1.5062,-1.4931,-1.4931,-1.48,-1.48,-1.48,-1.467,-1.467,-1.467,-1.467,-1.467,-1.467,-1.467,-1.4744,-1.4874,-1.4939,-1.4815,-1.4557,-1.429,-1.4209,-1.4332,-1.4662,-1.4988,-1.5153,-1.5113,-1.4964,-1.4964,-1.4991,-1.5035,-1.5052,-1.5052,-1.5195,-1.5337,-1.5186,-1.5035,-1.5168,-1.5319,-1.5159,-1.531,-1.5603,-1.6028,-1.6028,-1.5753,-1.6037,-1.6734,-1.7017,-1.7429,-1.771,-1.8131,-1.8541,-1.9507,-1.9912,-2.0051,-2.0051,-1.9507,-1.9657,-2.0074,-1.9634,-1.9066,-1.9484,-2.019,-1.9773,-1.9077,-1.9912,-2.0328,-1.9507,-1.9228,-1.9912,-2.0467,-2.0617,-2.1044,-2.2022,-2.2435,-1.5443,-1.6084,-1.5313,-1.4931,-1.4931,-1.4931,-1.4931,-1.5062,-1.5824,-1.698,-1.8267,-1.878,-1.9546,-2.0055,-2.0309,-2.1069,-2.2215,-2.2341,-2.2731,-2.2856,-2.3106,-2.3106,-2.3106,-2.3106,-2.3106,-2.3106,-2.3106,-2.3106,-2.3106,-2.3106,-2.3106,-2.2981,-2.2466,-2.0816,-1.9546,-1.9036,-1.8267,-1.7753,-1.7238,-1.7109,-1.6213,-1.6084,-1.5824,-1.4931,-1.4931,-1.4931,-1.4931,-1.4931,-1.4931,-1.4931,-1.4931,-1.4931,-1.495,-1.4941,-1.5007,-1.5101,-1.5128,-1.5356,-1.5432,-1.518,-1.5082,-1.5211,-1.5165,-1.5135,-1.5457,-1.5352,-1.5238,-1.531,-1.5328,-1.5328,-1.547,-1.5328,-1.547,-1.5612,-1.5763,-1.5621,-1.5895,-1.6028,-1.6452,-1.6725,-1.6018,-1.5744,-1.631,-1.6875,-1.6593,-1.6461,-1.7157,-1.7851,-1.8401,-1.9089,-1.9507,-1.9924,-2.0882,-2.1158,-2.1296,-2.102,-2.0756,-2.1044,-2.1459,-2.102,-2.0581,-2.1283,-2.1709,-2.1296,-2.1007,-2.1296,-2.1433,-2.1296,-2.1296,-2.1433,-2.1846,-2.2408,-2.2996,-2.3584,-2.3693,-1.6084,-1.685,-1.5954,-1.5574,-1.5574,-1.5574,-1.5834,-1.6213,-1.7109,-1.8396,-1.9674,-2.0055,-2.069,-2.1461,-2.1713,-2.209,-2.2856,-2.2981,-2.3106,-2.3106,-2.3106,-2.3106,-2.3106,-2.3106,-2.3106,-2.3106,-2.3106,-2.3106,-2.3106,-2.3106,-2.3106,-2.2856,-2.2215,-2.1069,-1.9928,-1.9164,-1.9036,-1.9036,-1.8908,-1.8652,-1.7625,-1.7496,-1.7367,-1.6343,-1.6343,-1.6343,-1.6213,-1.6084,-1.5704,-1.5443,-1.5313,-1.4931,-1.4959,-1.5016,-1.5111,-1.5243,-1.5278,-1.5545,-1.5611,-1.5668,-1.5744,-1.5756,-1.5663,-1.5756,-1.5858,-1.5612,-1.5603,-1.5744,-1.5612,-1.547,-1.5886,-1.5753,-1.5895,-1.6046,-1.6046,-1.6046,-1.6885,-1.7308,-1.7872,-1.8293,-1.7721,-1.7559,-1.783,-1.867,-1.853,-1.8401,-1.867,-1.9228,-1.9634,-2.0328,-2.1158,-2.1584,-2.1996,-2.2134,-2.2134,-2.2408,-2.2696,-2.2173,-2.2448,-2.2682,-2.2669,-2.3092,-2.3379,-2.3106,-2.2819,-2.2682,-2.2819,-2.2969,-2.2682,-2.2408,-2.2969,-2.3665,-2.3952,-2.4388,-2.466,-1.698,-1.698,-1.698,-1.698,-1.7109,-1.698,-1.7625,-1.8396,-1.8908,-1.9801,-2.1082,-2.209,-2.2731,-2.2856,-2.2731,-2.2856,-2.2981,-2.3106,-2.3106,-2.3106,-2.3106,-2.3106,-2.3106,-2.3106,-2.3106,-2.3106,-2.3106,-2.3106,-2.3106,-2.3106,-2.3106,-2.3106,-2.2731,-2.2215,-2.0943,-1.9674,-1.9164,-1.9164,-1.9291,-1.9291,-1.9036,-1.8908,-1.878,-1.8011,-1.7882,-1.7753,-1.7109,-1.6473,-1.6084,-1.5954,-1.5313,-1.4941,-1.4988,-1.5035,-1.5138,-1.5319,-1.5653,-1.5812,-1.6015,-1.5996,-1.6091,-1.6234,-1.5962,-1.6282,-1.631,-1.6178,-1.6593,-1.7007,-1.6734,-1.6593,-1.6461,-1.6461,-1.6734,-1.6885,-1.7026,-1.7359,-1.8216,-1.8725,-1.9323,-1.9537,-2.0121,-2.0467,-2.0467,-2.0605,-2.0605,-2.0605,-2.0593,-2.0731,-2.1296,-2.1846,-2.2682,-2.2956,-2.3379,-2.3515,-2.3665,-2.436,-2.451,-2.3843,-2.357,-2.3665,-2.3924,-2.4074,-2.4224,-2.451,-2.436,-2.3938,-2.436,-2.4916,-2.4224,-2.3665,-2.4224,-2.4781,-2.5052,-2.5125,-2.5227,-1.8896,-1.9674,-1.878,-1.8896,-1.9534,-1.864,-1.8652,-1.9164,-2.0055,-2.1209,-2.2341,-2.2981,-2.3106,-2.3106,-2.3106,-2.3106,-2.3106,-2.3106,-2.3106,-2.3106,-2.3106,-2.3106,-2.3106,-2.3106,-2.3106,-2.3106,-2.3106,-2.3106,-2.3106,-2.3106,-2.3106,-2.3106,-2.3106,-2.2856,-2.2466,-2.1839,-2.1699,-2.1713,-2.1699,-2.1321,-2.0563,-2.0309,-1.9661,-1.8127,-1.8127,-1.7882,-1.7249,-1.6732,-1.6374,-1.6374,-1.5613,-1.541,-1.5365,-1.5558,-1.5538,-1.5681,-1.5952,-1.6558,-1.7137,-1.7457,-1.7067,-1.6725,-1.6461,-1.6875,-1.7439,-1.758,-1.8121,-1.867,-1.867,-1.8809,-1.9217,-1.9228,-1.9379,-1.9413,-1.9598,-1.9735,-2.0239,-2.0533,-2.0888,-2.0721,-2.1011,-2.1735,-2.1961,-2.2302,-2.2454,-2.2553,-2.2566,-2.2873,-2.3256,-2.3665,-2.436,-2.436,-2.4631,-2.4781,-2.5066,-2.5066,-2.5066,-2.4524,-2.4388,-2.4645,-2.4781,-2.4781,-2.4781,-2.4781,-2.4916,-2.5066,-2.5066,-2.5066,-2.5066,-2.5052,-2.5066,-2.5096,-2.514,-2.5208,-2.5331,-2.0309,-2.0956,-2.0182,-2.0563,-2.1447,-2.0309,-1.9928,-2.0563,-2.1461,-2.2341,-2.2981,-2.3106,-2.3106,-2.3106,-2.3106,-2.3106,-2.3106,-2.3106,-2.3106,-2.3106,-2.3106,-2.3106,-2.3106,-2.3106,-2.3106,-2.3106,-2.3106,-2.3106,-2.3106,-2.3106,-2.3106,-2.3106,-2.3106,-2.3106,-2.2981,-2.2856,-2.2856,-2.2731,-2.2591,-2.2466,-2.1964,-2.1587,-2.1069,-1.9916,-1.9407,-1.9024,-1.8022,-1.7433,-1.7109,-1.6989,-1.6802,-1.6633,-1.6768,-1.6913,-1.7047,-1.7286,-1.76,-1.8239,-1.8894,-1.9217,-1.8648,-1.8121,-1.77,-1.8121,-1.8949,-1.9089,-1.9507,-2.019,-2.0743,-2.0804,-2.0853,-2.0841,-2.1065,-2.1114,-2.1249,-2.1395,-2.2024,-2.2342,-2.2653,-2.2486,-2.2665,-2.3233,-2.3569,-2.3901,-2.4247,-2.433,-2.4564,-2.4847,-2.4975,-2.496,-2.5096,-2.5096,-2.5066,-2.5052,-2.5066,-2.5066,-2.5066,-2.5066,-2.5066,-2.5066,-2.5066,-2.4916,-2.5066,-2.5066,-2.5066,-2.5066,-2.5066,-2.5066,-2.5081,-2.5216,-2.5216,-2.5261,-2.5198,-2.5397,-2.5635,-2.1209,-2.1209,-2.1195,-2.1839,-2.2731,-2.1587,-2.1839,-2.2981,-2.2981,-2.3106,-2.3106,-2.3106,-2.3106,-2.3106,-2.3106,-2.3106,-2.3106,-2.3106,-2.3106,-2.3106,-2.3106,-2.3106,-2.3106,-2.3106,-2.3106,-2.3106,-2.3106,-2.3106,-2.3106,-2.3106,-2.3106,-2.3106,-2.3106,-2.3106,-2.3106,-2.3106,-2.3106,-2.3106,-2.3106,-2.2981,-2.2731,-2.2731,-2.2341,-2.1699,-2.1447,-2.1362,-2.0935,-2.0541,-2.0554,-2.0409,-2.0179,-1.9905,-1.9917,-2.0086,-2.0171,-2.0291,-2.0209,-2.0281,-2.0593,-2.0605,-2.0882,-2.0743,-2.0743,-2.0731,-2.0605,-2.0743,-2.1158,-2.1471,-2.1772,-2.1647,-2.148,-2.1707,-2.1948,-2.2061,-2.2199,-2.2846,-2.3728,-2.4208,-2.4662,-2.4876,-2.5102,-2.5437,-2.5254,-2.5563,-2.5226,-2.5322,-2.525,-2.5201,-2.5208,-2.5198,-2.5198,-2.5183,-2.514,-2.5066,-2.5066,-2.5066,-2.5066,-2.5066,-2.5066,-2.5066,-2.5066,-2.5066,-2.5066,-2.5066,-2.5066,-2.5066,-2.5066,-2.5096,-2.514,-2.5275,-2.544,-2.5364,-2.5467,-2.5702,-2.5768,-2.2466,-2.248,-2.248,-2.2731,-2.2981,-2.2731,-2.2731,-2.3106,-2.3106,-2.3106,-2.3106,-2.3106,-2.3106,-2.3106,-2.3106,-2.3106,-2.3106,-2.3106,-2.3106,-2.3106,-2.3106,-2.3106,-2.3106,-2.3106,-2.3106,-2.3106,-2.3106,-2.3106,-2.3106,-2.3106,-2.3106,-2.3106,-2.3106,-2.3106,-2.3106,-2.3106,-2.3106,-2.3106,-2.3106,-2.3106,-2.312,-2.3135,-2.276,-2.2258,-2.2174,-2.1864,-2.1275,-2.098,-2.0733,-2.0529,-2.0327,-2.0026,-2.0257,-2.033,-2.0255,-2.0472,-2.0569,-2.0882,-2.1846,-2.2121,-2.2545,-2.3243,-2.3515,-2.2956,-2.2682,-2.2258,-2.2545,-2.2899,-2.3295,-2.3332,-2.3534,-2.3809,-2.3931,-2.4079,-2.4228,-2.4597,-2.5355,-2.5583,-2.6027,-2.5927,-2.6281,-2.6193,-2.6164,-2.612,-2.578,-2.5892,-2.5959,-2.5798,-2.5579,-2.5432,-2.5242,-2.5213,-2.5154,-2.5066,-2.5066,-2.5066,-2.5066,-2.5066,-2.5096,-2.514,-2.5169,-2.5169,-2.5096,-2.5125,-2.5242,-2.5169,-2.5066,-2.5169,-2.5388,-2.5452,-2.5618,-2.5662,-2.5672,-2.5935,-2.6156,-2.3106,-2.3106,-2.3106,-2.3106,-2.3106,-2.3106,-2.3106,-2.3106,-2.3106,-2.3106,-2.3106,-2.3106,-2.3106,-2.3106,-2.3106,-2.3106,-2.3106,-2.3106,-2.3106,-2.3106,-2.3106,-2.3106,-2.3106,-2.3106,-2.3106,-2.3106,-2.3106,-2.3106,-2.3106,-2.3106,-2.3106,-2.3106,-2.3106,-2.3106,-2.3106,-2.3106,-2.3106,-2.3106,-2.3106,-2.3106,-2.3149,-2.3237,-2.2651,-2.23,-2.2102,-2.1781,-2.141,-2.1228,-2.1556,-2.1752,-2.1925,-2.2097,-2.2281,-2.2308,-2.2321,-2.2519,-2.2669,-2.2969,-2.3652,-2.3652,-2.4224,-2.4781,-2.5066,-2.4631,-2.4074,-2.3788,-2.4309,-2.4696,-2.5143,-2.5484,-2.5717,-2.6091,-2.611,-2.627,-2.6401,-2.6546,-2.6778,-2.6866,-2.6808,-2.6705,-2.6603,-2.65,-2.6427,-2.6383,-2.6413,-2.6486,-2.6457,-2.6325,-2.5988,-2.5652,-2.5374,-2.5183,-2.5125,-2.5066,-2.5066,-2.5066,-2.5081,-2.514,-2.5257,-2.5301,-2.5315,-2.5432,-2.5505,-2.5505,-2.5491,-2.5447,-2.5403,-2.5549,-2.571,-2.579,-2.5943,-2.6091,-2.6158,-2.6255,-2.6373,-2.3106,-2.3106,-2.3106,-2.3106,-2.3106,-2.3106,-2.3106,-2.3106,-2.3106,-2.3106,-2.3106,-2.3106,-2.3106,-2.3106,-2.3106,-2.3106,-2.3106,-2.3106,-2.3106,-2.3106,-2.3106,-2.3106,-2.3106,-2.3106,-2.3106,-2.3106,-2.3106,-2.3106,-2.3106,-2.3106,-2.3106,-2.3106,-2.3106,-2.3106,-2.3106,-2.3106,-2.3149,-2.3252,-2.3237,-2.3237,-2.3296,-2.3427,-2.3647,-2.3548,-2.3723,-2.3811,-2.4043,-2.4218,-2.4583,-2.4701,-2.4684,-2.4709,-2.4723,-2.4588,-2.4752,-2.4631,-2.436,-2.4495,-2.4631,-2.4631,-2.4781,-2.5052,-2.5066,-2.4975,-2.4853,-2.4761,-2.5149,-2.5324,-2.5637,-2.593,-2.6193,-2.6413,-2.6588,-2.6691,-2.6793,-2.6866,-2.6896,-2.6954,-2.6925,-2.6852,-2.6822,-2.6735,-2.6735,-2.6705,-2.6676,-2.6852,-2.6852,-2.672,-2.6383,-2.593,-2.5593,-2.5271,-2.5125,-2.5066,-2.5066,-2.5081,-2.5125,-2.5198,-2.5374,-2.5469,-2.5615,-2.5731,-2.5988,-2.5871,-2.574,-2.5857,-2.59,-2.5988,-2.6047,-2.6061,-2.6261,-2.6423,-2.6515,-2.6605,-2.6677,-2.3106,-2.3106,-2.3106,-2.3106,-2.3106,-2.3106,-2.3106,-2.3106,-2.3106,-2.3106,-2.3106,-2.3106,-2.3106,-2.3106,-2.3106,-2.3106,-2.3106,-2.3106,-2.3106,-2.3106,-2.3106,-2.3106,-2.3106,-2.3106,-2.3106,-2.3106,-2.3106,-2.3106,-2.3106,-2.3106,-2.3106,-2.3106,-2.3106,-2.3106,-2.3106,-2.3106,-2.3193,-2.3398,-2.3471,-2.3501,-2.3574,-2.3779,-2.3984,-2.3984,-2.4115,-2.4276,-2.4393,-2.451,-2.4744,-2.492,-2.4993,-2.5052,-2.5052,-2.5066,-2.5066,-2.5066,-2.5066,-2.5066,-2.5066,-2.5066,-2.5066,-2.5066,-2.5096,-2.5227,-2.5315,-2.5374,-2.5505,-2.5681,-2.59,-2.6222,-2.6515,-2.672,-2.6881,-2.6939,-2.6998,-2.6998,-2.6998,-2.6998,-2.6998,-2.6998,-2.6998,-2.6998,-2.6998,-2.6998,-2.6998,-2.6983,-2.6969,-2.6837,-2.653,-2.6135,-2.5842,-2.5505,-2.5169,-2.5081,-2.5066,-2.5154,-2.5227,-2.5388,-2.5579,-2.5717,-2.5881,-2.6066,-2.6237,-2.6076,-2.5988,-2.6135,-2.6252,-2.6296,-2.6339,-2.6398,-2.6486,-2.6761,-2.6849,-2.675,-2.6939,-2.3106,-2.3106,-2.3106,-2.3106,-2.3106,-2.3106,-2.3106,-2.3106,-2.3106,-2.3106,-2.3106,-2.3106,-2.3106,-2.3106,-2.3106,-2.3106,-2.3106,-2.3106,-2.3106,-2.3106,-2.3106,-2.3106,-2.3106,-2.3106,-2.3106,-2.3106,-2.3106,-2.3106,-2.3106,-2.3106,-2.3106,-2.3106,-2.3106,-2.3106,-2.3106,-2.3135,-2.3296,-2.3574,-2.3735,-2.3866,-2.3969,-2.4188,-2.4305,-2.4305,-2.4452,-2.4598,-2.4686,-2.4788,-2.4876,-2.5008,-2.5052,-2.5052,-2.5066,-2.5066,-2.5066,-2.5066,-2.5066,-2.5066,-2.5066,-2.5066,-2.5066,-2.5066,-2.5066,-2.5183,-2.5476,-2.5579,-2.5886,-2.6061,-2.6179,-2.6471,-2.6691,-2.691,-2.6939,-2.6983,-2.6998,-2.6998,-2.6998,-2.6998,-2.6998,-2.6998,-2.6998,-2.6998,-2.6998,-2.6998,-2.6998,-2.6998,-2.6998,-2.6881,-2.6588,-2.6369,-2.6061,-2.5769,-2.5432,-2.5154,-2.5081,-2.5213,-2.5403,-2.5579,-2.5673,-2.6052,-2.6372,-2.65,-2.6471,-2.6398,-2.6398,-2.65,-2.6603,-2.6603,-2.6661,-2.672,-2.6822,-2.6939,-2.6998,-2.6998,-2.6998,-2.3106,-2.3106,-2.3106,-2.3106,-2.3106,-2.3106,-2.3106,-2.3106,-2.3106,-2.3106,-2.3106,-2.3106,-2.3106,-2.3106,-2.3106,-2.3106,-2.3106,-2.3106,-2.3106,-2.3106,-2.3106,-2.3106,-2.3106,-2.3106,-2.3106,-2.3106,-2.3106,-2.3106,-2.3106,-2.3106,-2.3106,-2.3106,-2.312,-2.3135,-2.3149,-2.3223,-2.3398,-2.3793,-2.4057,-2.432,-2.4481,-2.4627,-2.4627,-2.473,-2.4876,-2.5037,-2.5052,-2.5052,-2.5052,-2.5052,-2.5066,-2.5066,-2.5066,-2.5066,-2.5066,-2.5066,-2.5066,-2.5066,-2.5066,-2.5066,-2.5066,-2.5066,-2.5081,-2.5271,-2.5579,-2.5886,-2.6193,-2.6413,-2.653,-2.6647,-2.6866,-2.6969,-2.6983,-2.6998,-2.6998,-2.6998,-2.6998,-2.6998,-2.6998,-2.6998,-2.6998,-2.6998,-2.6998,-2.6998,-2.6998,-2.6998,-2.6925,-2.6793,-2.6647,-2.65,-2.6296,-2.6018,-2.5725,-2.5461,-2.5271,-2.5388,-2.5652,-2.5886,-2.6164,-2.6559,-2.6837,-2.6764,-2.6778,-2.6866,-2.6881,-2.6822,-2.6852,-2.6866,-2.6939,-2.6954,-2.7114,-2.7274,-2.6983,-2.7129,-2.6998,-2.3106,-2.3106,-2.3106,-2.3106,-2.3106,-2.3106,-2.3106,-2.3106,-2.3106,-2.3106,-2.3106,-2.3106,-2.3106,-2.3106,-2.3106,-2.3106,-2.3106,-2.3106,-2.3106,-2.3106,-2.3106,-2.3106,-2.3106,-2.3106,-2.3106,-2.3106,-2.3106,-2.3106,-2.3106,-2.3106,-2.312,-2.3135,-2.3135,-2.3252,-2.3486,-2.3574,-2.3749,-2.4115,-2.4364,-2.4583,-2.4832,-2.4935,-2.4964,-2.5008,-2.5022,-2.5052,-2.5052,-2.5052,-2.5052,-2.5052,-2.5066,-2.5066,-2.5066,-2.5066,-2.5066,-2.5066,-2.5066,-2.5066,-2.5066,-2.5066,-2.5066,-2.5154,-2.5257,-2.5549,-2.5857,-2.6179,-2.6471,-2.6749,-2.6837,-2.6837,-2.6983,-2.6983,-2.6998,-2.6998,-2.6998,-2.6998,-2.6998,-2.6998,-2.6998,-2.6998,-2.6998,-2.6998,-2.6998,-2.6998,-2.6998,-2.6998,-2.6998,-2.6866,-2.6837,-2.6676,-2.65,-2.6296,-2.6032,-2.5944,-2.5842,-2.5813,-2.6003,-2.6237,-2.6442,-2.6705,-2.6881,-2.6954,-2.6998,-2.7129,-2.7129,-2.7085,-2.6983,-2.7129,-2.7129,-2.726,-2.7405,-2.7405,-2.7274,-2.7129,-2.7129]},{"header":{"parameterUnit":"m.s-1","parameterCategory":1,"la1":31.0,"la2":29.5877,"lo1":-88.7671,"lo2":-86.6584,"dy":0.0162,"dx":0.0185,"nx":115,"ny":88,"refTime":"2024-08-06T12:00:00:Z","depth":0,"parameterNumber":3,"parameterNumberName":"V-component_of_WINDS"},"data":[0.0,0.0,0.0,0.0,0.0,0.0,0.0,0.0,0.0,0.0,0.0,0.0,0.0,0.0,0.0,0.0,0.0,0.0,0.0,0.0,0.0,0.0,0.0,0.0,0.0,0.0,0.0,0.0,0.0,0.0,0.0,0.0,0.0,0.0,0.0,0.0,0.0,0.0,0.0,0.0,0.0,0.0,0.0,0.0,0.0,0.0,0.0,0.0,0.0,0.0,0.0,0.0,0.0,0.0,0.0,0.0,0.0,0.0,0.0,0.0,0.0,0.0,0.0,0.0,0.0,0.0,0.0,0.0,0.0,0.0,0.0,0.0,0.0,0.0,0.0,0.0,0.0,0.0,0.0,0.0,0.0,0.0,0.0,0.0,0.0,0.0,0.0,0.0,0.0,0.0,0.0,0.0,0.0,0.0,0.0,0.0,0.0,0.0,0.0,0.0,0.0,0.0,0.0,0.0,0.0,0.0,0.0,0.0,0.0,0.0,0.0,0.0,0.0,0.0,0.0,0.0,0.0,0.0,0.0,0.0,0.0,0.0,0.0,0.0,0.0,0.0,0.0,0.0,0.0,0.0,0.0,0.0,0.0,0.0,0.0,0.0,0.0,0.0,0.0,0.0,0.0,0.0,0.0,0.0,0.0,0.0,0.0,0.0,0.0,0.0,0.0,0.0,0.0,0.0,0.0,0.0,0.0,0.0,0.0,0.0,0.0,0.0,0.0,0.0,0.0,0.0,0.0,0.0,0.0,0.0,0.0,0.0,0.0,0.0,0.0,0.0,0.0,0.0,0.0,0.0,0.0,0.0,0.0,0.0,0.0,0.0,0.0,0.0,0.0,0.0,0.0,0.0,0.0,0.0,0.0,0.0,0.0,0.0,0.0,0.0,0.0,0.0,0.0,0.0,0.0,0.0,0.0,0.0,0.0,0.0,0.0,0.0,0.0,0.0,0.0,0.0,0.0,0.0,0.0,0.0,0.0,0.0,0.0,0.0,0.0,0.0,0.0,0.0,0.0,0.0,0.0,0.0,0.0,0.0,0.0,0.0,0.0,0.0,0.0,0.0,0.0,0.0,0.0,0.0,0.0,0.0,0.0,0.0,0.0,0.0,0.0,0.0,0.0,0.0,0.0,0.0,0.0,0.0,0.0,0.0,0.0,0.0,0.0,0.0,0.0,0.0,0.0,0.0,0.0,0.0,0.0,0.0,0.0,0.0,0.0,0.0,0.0,0.0,0.0,0.0,0.0,0.0,0.0,0.0,0.0,0.0,0.0,0.0,0.0,0.0,0.0,0.0,0.0,0.0,0.0,0.0,0.0,0.0,0.0,0.0,0.0,0.0,0.0,0.0,0.0,0.0,0.0,0.0,0.0,0.0,0.0,0.0,0.0,0.0,0.0,0.0,0.0,0.0,0.0,0.0,0.0,0.0,0.0,0.0,0.0,0.0,0.0,0.0,0.0,0.0,0.0,0.0,0.0,0.0,0.0,0.0,0.0,0.0,0.0,0.0,0.0,0.0,0.0,0.0,0.0,0.0,0.0,0.0,0.0,0.0,0.0,0.0,0.0,0.0,0.0,0.0,0.0,0.0,0.0,0.0,0.0,0.0,0.0,0.0,0.0,0.0,0.0,0.0,0.0,0.0,0.0,0.0,0.0,0.0,0.0,0.0,0.0,0.0,0.0,0.0,0.0,0.0,0.0,0.0,0.0,0.0,0.0,0.0,0.0,0.0,0.0,0.0,0.0,0.0,0.0,0.0,0.0,0.0,0.0,0.0,0.0,0.0,0.0,0.0,0.0,0.0,0.0,0.0,0.0,0.0,0.0,0.0,0.0,0.0,0.0,0.0,0.0,0.0,0.0,0.0,0.0,0.0,0.0,0.0,0.0,0.0,0.0,0.0,0.0,0.0,0.0,0.0,0.0,0.0,0.0,0.0,0.0,0.0,0.0,0.0,0.0,0.0,0.0,0.0,0.0,0.0,0.0,0.0,0.0,0.0,0.0,0.0,0.0,0.0,0.0,0.0,0.0,0.0,0.0,0.0,0.0,0.0,0.0,0.0,0.0,0.0,0.0,0.0,0.0,0.0,0.0,0.0,0.0,0.0,0.0,0.0,0.0,0.0,0.0,0.0,0.0,0.0,0.0,0.0,0.0,0.0,0.0,0.0,0.0,0.0,0.0,0.0,0.0,0.0,0.0,0.0,0.0,0.0,0.0,0.0,0.0,0.0,0.0,0.0,0.0,0.0,0.0,0.0,0.0,0.0,0.0,0.0,0.0,0.0,0.0,0.0,0.0,0.0,0.0,0.0,0.0,0.0,0.0,0.0,0.0,0.0,0.0,0.0,0.0,0.0,0.0,0.0,0.0,0.0,0.0,0.0,0.0,0.0,0.0,0.0,0.0,0.0,0.0,0.0,0.0,0.0,0.0,0.0,0.0,0.0,0.0,0.0,0.0,0.0,0.0,0.0,0.0,0.0,0.0,0.0,0.0,0.0,0.0,0.0,0.0,0.0,0.0,0.0,0.0,0.0,0.0,0.0,0.0,0.0,0.0,0.0,0.0,0.0,0.0,0.0,0.0,0.0,0.0,0.0,0.0,0.0,0.0,0.0,0.0,0.0,0.0,0.0,0.0,0.0,0.0,0.0,0.0,0.0,0.0,0.0,0.0,0.0,0.0,0.0,0.0,0.0,0.0,0.0,0.0,0.0,0.0,0.0,0.0,0.0,0.0,0.0,0.0,0.0,0.0,0.0,0.0,0.0,0.0,0.0,0.0,0.0,0.0,0.0,0.0,0.0,0.0,0.0,0.0,0.0,0.0,0.0,0.0,0.0,0.0,0.0,0.0,0.0,0.0,0.0,0.0,0.0,0.0,0.0,0.0,0.0,0.0,0.0,0.0,0.0,0.0,0.0,0.0,0.0,0.0,0.0,0.0,0.0,0.0,0.0,0.0,0.0,0.0,0.0,0.0,0.0,0.0,0.0,0.0,0.0,0.0,0.0,0.0,0.0,0.0,0.0,0.0,0.0,0.0,0.0,0.0,0.0,0.0,0.0,0.0,0.0,0.0,0.0,0.0,0.0,0.0,0.0,0.0,0.0,0.0,0.0,0.0,0.0,0.0,0.0,0.0,0.0,0.0,0.0,0.0,0.0,0.0,0.0,0.0,0.0,0.0,0.0,0.0,0.0,0.0,0.0,0.0,0.0,0.0,0.0,0.0,0.0,0.0,0.0,0.0,0.0,0.0,0.0,0.0,0.0,0.0,0.0,0.0,0.0,0.0,0.0,0.0,0.0,0.0,0.0,0.0,0.0,0.0,0.0,0.0,0.0,0.0,0.0,0.0,0.0,0.0,0.0,0.0,0.0,0.0,0.0,0.0,0.0,0.0,0.0,0.0,0.0,0.0,0.0,0.0,0.0,0.0,0.0,0.0,0.0,0.0,0.0,0.0,0.0,0.0,0.0,0.0,0.0,0.0,0.0,0.0,0.0,0.0,0.0,0.0,0.0,0.0,0.0,0.0,0.0,0.0,0.0,0.0,0.0,0.0,0.0,0.0,0.0,0.0,0.0,0.0,0.0,0.0,0.0,0.0,0.0,0.0,0.0,0.0,0.0,0.0,0.0,0.0,0.0,0.0,0.0,0.0,0.0,0.0,0.0,0.0,0.0,0.0,0.0,0.0,0.0,0.0,0.0,0.0,0.0,0.0,0.0,0.0,0.0,0.0,0.0,0.0,0.0,0.0,0.0,0.0,0.0,0.0,0.0,0.0,0.0,0.0,0.0,0.0,0.0,0.0,0.0,0.0,0.0,0.0,0.0,0.0,0.0,0.0,0.0,0.0,0.0,0.0,0.0,0.0,0.0,0.0,0.0,0.0,0.0,0.0,0.0,0.0,0.0,0.0,0.0,0.0,0.0,0.0,0.0,0.0,0.0,0.0,0.0,0.0,0.0,0.0,0.0,0.0,0.0,0.0,0.0,0.0,0.0,0.0,0.0,0.0,0.0,0.0,0.0,0.0,0.0,0.0,0.0,0.0,0.0,0.0,0.0,0.0,0.0,0.0,0.0,0.0,0.0,0.0,0.0,0.0,0.0,0.0,0.0,0.0,0.0,0.0,0.0,0.0,0.0,0.0,0.0,0.0,0.0,0.0,0.0,0.0,0.0,0.0,0.0,0.0,0.0,0.0,0.0,0.0,0.0,0.0,0.0,0.0,0.0,0.0,0.0,0.0,0.0,0.0,0.0,0.0,0.0,0.0,0.0,0.0,0.0,0.0,0.0,0.0,0.0,-0.8676,0.0,0.0,0.0,0.0,0.0,0.0,0.0,0.0,0.0,0.0,0.0,0.0,0.0,0.0,0.0,0.0,0.0,0.0,0.0,0.0,0.0,0.0,0.0,0.0,0.0,0.0,0.0,0.0,0.0,0.0,0.0,0.0,0.0,0.0,0.0,0.0,0.0,0.0,0.0,0.0,0.0,0.0,0.0,0.0,0.0,0.0,0.0,0.0,0.0,0.0,0.0,0.0,0.0,0.0,0.0,0.0,0.0,0.0,0.0,0.0,0.0,0.0,0.0,0.0,0.0,0.0,0.0,0.0,0.0,0.0,0.0,0.0,0.0,0.0,0.0,0.0,0.0,0.0,0.0,0.0,0.0,0.0,0.0,0.0,0.0,0.0,0.0,0.0,0.0,0.0,0.0,0.0,0.0,0.0,0.0,0.0,0.0,0.0,0.0,0.0,0.0,0.0,0.0,0.0,0.0,0.0,0.0,0.0,0.0,0.0,-0.8714,-0.8232,-0.9066,-0.9382,-0.9041,0.0,0.0,0.0,0.0,0.0,0.0,0.0,0.0,0.0,0.0,0.0,0.0,0.0,0.0,0.0,0.0,0.0,0.0,0.0,0.0,0.0,0.0,0.0,0.0,0.0,0.0,0.0,0.0,0.0,0.0,0.0,0.0,0.0,0.0,0.0,0.0,0.0,0.0,0.0,0.0,0.0,0.0,0.0,0.0,0.0,0.0,0.0,0.0,0.0,0.0,0.0,0.0,0.0,0.0,0.0,0.0,0.0,0.0,0.0,0.0,0.0,0.0,0.0,0.0,0.0,0.0,0.0,0.0,0.0,0.0,0.0,0.0,0.0,0.0,0.0,0.0,0.0,0.0,0.0,0.0,0.0,0.0,0.0,0.0,0.0,0.0,0.0,0.0,0.0,0.0,0.0,0.0,0.0,0.0,0.0,0.0,0.0,0.0,0.0,0.0,0.0,0.0,0.0,0.0,0.0,0.0,0.0,0.0,0.0,0.0,0.0,0.0,-0.9659,-1.0114,-0.9913,0.0,0.0,0.0,0.0,0.0,0.0,0.0,0.0,0.0,0.0,0.0,0.0,0.0,0.0,0.0,0.0,0.0,0.0,0.0,0.0,0.0,0.0,0.0,0.0,0.0,0.0,0.0,0.0,0.0,0.0,0.0,0.0,0.0,0.0,0.0,0.0,0.0,0.0,0.0,0.0,0.0,0.0,0.0,0.0,0.0,0.0,0.0,0.0,0.0,0.0,0.0,0.0,0.0,0.0,0.0,0.0,0.0,0.0,0.0,0.0,0.0,0.0,0.0,0.0,0.0,0.0,0.0,0.0,0.0,0.0,0.0,0.0,0.0,0.0,0.0,0.0,0.0,0.0,0.0,0.0,0.0,0.0,0.0,0.0,0.0,0.0,0.0,0.0,0.0,0.0,0.0,0.0,0.0,0.0,0.0,0.0,0.0,0.0,0.0,0.0,0.0,0.0,0.0,0.0,0.0,0.0,0.0,0.0,0.0,0.0,-0.9151,-0.9838,-1.1104,0.0,-1.1706,0.0,0.0,0.0,0.0,0.0,0.0,0.0,0.0,0.0,0.0,0.0,0.0,0.0,0.0,0.0,0.0,0.0,0.0,0.0,0.0,0.0,0.0,0.0,0.0,0.0,0.0,0.0,0.0,0.0,0.0,0.0,0.0,0.0,0.0,0.0,0.0,0.0,0.0,0.0,0.0,0.0,0.0,0.0,0.0,0.0,0.0,0.0,0.0,0.0,0.0,0.0,0.0,0.0,0.0,0.0,0.0,0.0,0.0,0.0,0.0,0.0,0.0,0.0,0.0,0.0,0.0,0.0,0.0,0.0,0.0,0.0,0.0,0.0,0.0,0.0,0.0,0.0,0.0,0.0,0.0,0.0,0.0,0.0,0.0,0.0,0.0,0.0,0.0,0.0,0.0,0.0,0.0,0.0,0.0,0.0,0.0,0.0,0.0,0.0,0.0,0.0,0.0,0.0,0.0,0.0,0.0,0.0,0.0,0.0,0.0,-0.9354,-0.9592,-1.0837,-1.1654,0.0,0.0,0.0,0.0,0.0,0.0,0.0,0.0,0.0,0.0,0.0,0.0,0.0,0.0,0.0,0.0,0.0,0.0,0.0,0.0,0.0,0.0,0.0,0.0,0.0,0.0,0.0,0.0,0.0,0.0,0.0,0.0,0.0,0.0,0.0,0.0,0.0,0.0,0.0,0.0,0.0,0.0,0.0,0.0,0.0,0.0,0.0,0.0,0.0,0.0,0.0,0.0,0.0,0.0,0.0,0.0,0.0,0.0,0.0,0.0,0.0,0.0,0.0,0.0,0.0,0.0,0.0,0.0,0.0,0.0,0.0,0.0,0.0,0.0,0.0,0.0,0.0,0.0,0.0,0.0,0.0,0.0,0.0,0.0,0.0,0.0,0.0,0.0,0.0,0.0,0.0,0.0,0.0,0.0,0.0,0.0,0.0,0.0,0.0,0.0,0.0,0.0,0.0,0.0,0.0,0.0,0.0,0.0,0.0,0.0,-0.8844,0.0,-1.0166,-1.1226,-1.1772,-1.1788,0.0,0.0,0.0,0.0,0.0,0.0,0.0,0.0,0.0,0.0,0.0,0.0,0.0,0.0,0.0,0.0,0.0,0.0,0.0,0.0,0.0,0.0,0.0,0.0,0.0,0.0,0.0,0.0,0.0,0.0,0.0,0.0,0.0,0.0,0.0,0.0,0.0,0.0,0.0,0.0,0.0,0.0,0.0,0.0,0.0,0.0,0.0,0.0,0.0,0.0,0.0,0.0,0.0,0.0,0.0,0.0,0.0,0.0,0.0,0.0,0.0,0.0,0.0,0.0,0.0,0.0,0.0,0.0,0.0,0.0,0.0,0.0,0.0,0.0,0.0,0.0,0.0,0.0,0.0,0.0,0.0,0.0,0.0,0.0,0.0,0.0,0.0,0.0,0.0,0.0,0.0,0.0,0.0,0.0,0.0,0.0,0.0,0.0,0.0,0.0,0.0,0.0,0.0,0.0,0.0,0.0,0.0,0.0,0.0,-0.9549,-1.0199,-1.2285,-1.2859,-1.2679,0.0,0.0,0.0,0.0,0.0,0.0,0.0,0.0,0.0,0.0,0.0,0.0,0.0,0.0,0.0,0.0,0.0,0.0,0.0,0.0,0.0,0.0,0.0,0.0,0.0,0.0,0.0,0.0,0.0,0.0,0.0,0.0,0.0,0.0,0.0,0.0,0.0,0.0,0.0,0.0,0.0,0.0,0.0,0.0,0.0,0.0,0.0,0.0,0.0,0.0,0.0,0.0,0.0,0.0,0.0,0.0,0.0,0.0,0.0,0.0,0.0,0.0,0.0,0.0,0.0,0.0,0.0,0.0,0.0,0.0,0.0,0.0,0.0,0.0,0.0,0.0,0.0,0.0,0.0,0.0,0.0,0.0,0.0,0.0,0.0,0.0,0.0,0.0,0.0,0.0,0.0,0.0,0.0,0.0,0.0,0.0,0.0,0.0,0.0,0.0,0.0,0.0,0.0,0.0,0.0,0.0,0.0,0.0,0.0,-0.8035,-0.8617,-1.0419,-1.3283,-1.2214,-1.2009,0.0,0.0,0.0,0.0,0.0,0.0,0.0,0.0,0.0,0.0,0.0,0.0,0.0,0.0,0.0,0.0,0.0,0.0,0.0,0.0,0.0,0.0,0.0,0.0,0.0,0.0,0.0,0.0,0.0,0.0,0.0,0.0,0.0,0.0,0.0,0.0,0.0,0.0,0.0,0.0,0.0,0.0,0.0,0.0,0.0,0.0,0.0,0.0,0.0,0.0,0.0,0.0,0.0,0.0,0.0,0.0,0.0,0.0,0.0,0.0,0.0,0.0,0.0,0.0,0.0,0.0,0.0,0.0,0.0,0.0,0.0,0.0,0.0,0.0,0.0,0.0,0.0,0.0,0.0,0.0,0.0,0.0,0.0,0.0,0.0,0.0,0.0,0.0,0.0,0.0,0.0,0.0,0.0,0.0,0.0,0.0,0.0,0.0,0.0,0.0,0.0,0.0,0.0,0.0,0.0,0.0,0.0,0.0,0.0,-0.8537,0.0,-1.1449,0.0,-1.217,-1.1815,0.0,0.0,0.0,0.0,0.0,0.0,0.0,0.0,0.0,0.0,0.0,0.0,0.0,0.0,0.0,0.0,0.0,0.0,0.0,0.0,0.0,0.0,0.0,0.0,0.0,0.0,0.0,0.0,0.0,0.0,0.0,0.0,0.0,0.0,0.0,0.0,0.0,0.0,0.0,0.0,0.0,0.0,0.0,0.0,0.0,0.0,0.0,0.0,0.0,0.0,0.0,0.0,0.0,0.0,0.0,0.0,0.0,0.0,0.0,0.0,0.0,0.0,0.0,0.0,0.0,0.0,0.0,0.0,0.0,0.0,0.0,0.0,0.0,0.0,0.0,0.0,0.0,0.0,0.0,0.0,0.0,0.0,0.0,0.0,0.0,0.0,0.0,0.0,0.0,0.0,0.0,0.0,0.0,0.0,0.0,0.0,0.0,0.0,0.0,0.0,0.0,0.0,0.0,0.0,0.0,0.0,0.0,0.0,-0.8886,-1.2347,-1.358,-1.3375,-1.1838,-1.2832,-1.2072,0.0,0.0,0.0,0.0,0.0,0.0,0.0,0.0,0.0,0.0,0.0,0.0,0.0,0.0,0.0,0.0,0.0,0.0,0.0,0.0,0.0,0.0,0.0,0.0,0.0,0.0,0.0,0.0,0.0,0.0,0.0,0.0,0.0,0.0,0.0,0.0,0.0,0.0,0.0,0.0,0.0,0.0,0.0,0.0,0.0,0.0,0.0,0.0,0.0,0.0,0.0,0.0,0.0,0.0,0.0,0.0,0.0,0.0,0.0,0.0,0.0,0.0,0.0,0.0,0.0,0.0,0.0,0.0,0.0,0.0,0.0,0.0,0.0,0.0,0.0,0.0,0.0,0.0,0.0,0.0,0.0,0.0,0.0,0.0,0.0,0.0,0.0,0.0,0.0,0.0,0.0,0.0,0.0,0.0,0.0,0.0,0.0,0.0,0.0,0.0,0.0,0.0,0.0,0.0,0.0,0.0,0.0,0.0,0.0,-1.4617,-1.3959,-1.3749,-1.399,-1.2948,-1.2554,0.0,0.0,0.0,0.0,0.0,0.0,0.0,0.0,0.0,0.0,0.0,0.0,0.0,0.0,0.0,0.0,0.0,0.0,0.0,0.0,0.0,0.0,0.0,0.0,0.0,0.0,0.0,0.0,0.0,0.0,0.0,0.0,0.0,0.0,0.0,0.0,0.0,0.0,0.0,0.0,0.0,0.0,0.0,0.0,0.0,0.0,0.0,0.0,0.0,0.0,0.0,0.0,0.0,0.0,0.0,0.0,0.0,0.0,0.0,0.0,0.0,0.0,0.0,0.0,0.0,0.0,0.0,0.0,0.0,0.0,0.0,0.0,0.0,0.0,0.0,0.0,0.0,0.0,0.0,0.0,0.0,0.0,0.0,0.0,0.0,0.0,0.0,0.0,0.0,0.0,0.0,0.0,0.0,0.0,0.0,0.0,0.0,0.0,0.0,0.0,0.0,0.0,0.0,0.0,0.0,0.0,0.0,0.0,0.0,-1.6502,-1.5841,-1.5581,-1.5928,-1.4146,-1.3268,-1.3559,0.0,0.0,0.0,0.0,0.0,0.0,0.0,0.0,0.0,0.0,0.0,0.0,0.0,0.0,0.0,0.0,0.0,0.0,0.0,0.0,0.0,0.0,0.0,0.0,0.0,0.0,0.0,0.0,0.0,0.0,0.0,0.0,0.0,0.0,0.0,0.0,0.0,0.0,0.0,0.0,0.0,0.0,0.0,0.0,0.0,0.0,0.0,0.0,0.0,0.0,0.0,0.0,0.0,0.0,0.0,0.0,0.0,0.0,0.0,0.0,0.0,0.0,0.0,0.0,0.0,0.0,0.0,0.0,0.0,0.0,0.0,0.0,0.0,0.0,0.0,0.0,0.0,0.0,0.0,0.0,0.0,0.0,0.0,0.0,0.0,0.0,0.0,0.0,0.0,0.0,0.0,0.0,0.0,0.0,0.0,0.0,0.0,0.0,0.0,0.0,0.0,0.0,0.0,0.0,0.0,0.0,0.0,0.0,-1.8275,-1.9032,-1.8794,-1.7539,-1.6108,-1.4447,0.0,0.0,0.0,0.0,0.0,0.0,0.0,0.0,0.0,0.0,0.0,0.0,0.0,0.0,0.0,0.0,0.0,0.0,0.0,0.0,0.0,0.0,0.0,0.0,0.0,0.0,0.0,0.0,0.0,0.0,0.0,0.0,0.0,0.0,0.0,0.0,0.0,0.0,0.0,0.0,0.0,0.0,0.0,0.0,0.0,0.0,0.0,0.0,0.0,0.0,0.0,0.0,0.0,0.0,0.0,0.0,0.0,0.0,0.0,0.0,0.0,0.0,0.0,0.0,0.0,0.0,0.0,0.0,0.0,0.0,0.0,0.0,0.0,0.0,0.0,0.0,0.0,0.0,0.0,0.0,0.0,0.0,0.0,0.0,0.0,0.0,0.0,0.0,0.0,0.0,0.0,0.0,0.0,0.0,0.0,0.0,0.0,0.0,0.0,0.0,0.0,0.0,0.0,0.0,0.0,0.0,0.0,0.0,0.0,-2.0419,-2.1991,-2.1818,-1.9648,-1.7899,-1.6451,0.0,0.0,0.0,0.0,0.0,0.0,0.0,0.0,0.0,0.0,0.0,0.0,0.0,0.0,0.0,0.0,0.0,0.0,0.0,0.0,0.0,0.0,0.0,0.0,0.0,0.0,0.0,0.0,0.0,0.0,0.0,0.0,0.0,0.0,0.0,0.0,0.0,0.0,0.0,0.0,0.0,0.0,0.0,0.0,0.0,0.0,0.0,0.0,0.0,0.0,0.0,0.0,0.0,0.0,0.0,0.0,0.0,0.0,0.0,0.0,0.0,0.0,0.0,0.0,0.0,0.0,0.0,0.0,0.0,0.0,0.0,0.0,0.0,0.0,0.0,0.0,0.0,0.0,0.0,0.0,0.0,0.0,0.0,0.0,0.0,0.0,0.0,0.0,0.0,0.0,0.0,0.0,0.0,0.0,0.0,0.0,0.0,0.0,0.0,0.0,0.0,0.0,0.0,0.0,0.0,0.0,0.0,0.0,-2.0313,-2.277,-2.4482,-2.4636,-2.3246,-2.0432,-1.8075,0.0,0.0,0.0,0.0,0.0,0.0,0.0,0.0,0.0,0.0,0.0,0.0,0.0,0.0,0.0,0.0,0.0,0.0,0.0,0.0,0.0,0.0,0.0,0.0,0.0,0.0,0.0,0.0,0.0,0.0,0.0,0.0,0.0,0.0,0.0,0.0,0.0,0.0,0.0,0.0,0.0,0.0,0.0,0.0,0.0,0.0,0.0,0.0,0.0,0.0,0.0,0.0,0.0,0.0,0.0,0.0,0.0,0.0,0.0,0.0,0.0,0.0,0.0,0.0,0.0,0.0,0.0,0.0,0.0,0.0,0.0,0.0,0.0,0.0,0.0,0.0,0.0,0.0,0.0,0.0,0.0,0.0,0.0,0.0,0.0,0.0,0.0,0.0,0.0,0.0,0.0,0.0,0.0,0.0,0.0,0.0,0.0,0.0,0.0,0.0,0.0,0.0,0.0,0.0,0.0,0.0,0.0,0.0,-2.2067,-2.4945,-2.6538,-2.7269,-2.6995,-2.3144,-1.9643,0.0,0.0,0.0,0.0,0.0,0.0,0.0,0.0,0.0,0.0,0.0,0.0,0.0,0.0,0.0,0.0,0.0,0.0,0.0,0.0,0.0,0.0,0.0,0.0,0.0,0.0,0.0,0.0,0.0,0.0,0.0,0.0,0.0,0.0,0.0,0.0,0.0,0.0,0.0,0.0,0.0,0.0,0.0,0.0,0.0,0.0,0.0,0.0,0.0,0.0,0.0,0.0,0.0,0.0,0.0,0.0,0.0,0.0,0.0,0.0,0.0,0.0,0.0,0.0,0.0,0.0,0.0,0.0,0.0,0.0,0.0,0.0,0.0,0.0,0.0,0.0,0.0,0.0,0.0,0.0,0.0,0.0,0.0,0.0,0.0,0.0,0.0,0.0,0.0,0.0,0.0,0.0,0.0,0.0,0.0,0.0,0.0,0.0,0.0,0.0,0.0,0.0,0.0,0.0,0.0,0.0,0.0,0.0,-2.446,-2.5673,-2.7803,-2.8354,-2.712,-2.4626,-2.2049,0.0,0.0,0.0,0.0,0.0,0.0,0.0,0.0,0.0,0.0,0.0,0.0,0.0,0.0,0.0,0.0,0.0,0.0,0.0,0.0,0.0,0.0,0.0,0.0,0.0,0.0,0.0,0.0,0.0,0.0,0.0,0.0,0.0,0.0,0.0,0.0,0.0,0.0,0.0,0.0,0.0,0.0,0.0,0.0,0.0,0.0,0.0,0.0,-2.3721,0.0,0.0,0.0,0.0,0.0,0.0,0.0,0.0,0.0,0.0,0.0,0.0,0.0,0.0,0.0,0.0,0.0,0.0,0.0,0.0,0.0,0.0,0.0,0.0,0.0,0.0,0.0,0.0,0.0,0.0,0.0,0.0,0.0,0.0,0.0,0.0,0.0,0.0,0.0,0.0,0.0,0.0,0.0,0.0,0.0,0.0,0.0,0.0,0.0,0.0,0.0,0.0,0.0,0.0,0.0,0.0,0.0,0.0,0.0,-2.6319,-2.7703,-2.942,-2.9936,-2.9024,-2.713,-2.4244,0.0,0.0,0.0,0.0,0.0,0.0,0.0,0.0,0.0,0.0,0.0,0.0,0.0,0.0,0.0,0.0,0.0,0.0,0.0,0.0,0.0,0.0,0.0,0.0,0.0,0.0,0.0,0.0,0.0,0.0,0.0,0.0,0.0,0.0,0.0,0.0,0.0,0.0,0.0,0.0,0.0,0.0,0.0,0.0,0.0,0.0,0.0,0.0,0.0,0.0,0.0,0.0,0.0,0.0,0.0,0.0,0.0,0.0,0.0,0.0,0.0,0.0,0.0,0.0,0.0,0.0,0.0,0.0,0.0,0.0,0.0,0.0,0.0,0.0,0.0,0.0,0.0,0.0,0.0,0.0,0.0,0.0,0.0,0.0,0.0,0.0,0.0,0.0,0.0,0.0,0.0,0.0,0.0,0.0,0.0,0.0,0.0,0.0,0.0,0.0,0.0,0.0,0.0,0.0,0.0,0.0,0.0,-2.4875,-2.7525,-2.9896,-3.091,-3.132,-3.1188,-2.946,-2.5993,-2.0824,0.0,0.0,0.0,0.0,0.0,0.0,0.0,0.0,0.0,0.0,0.0,0.0,0.0,0.0,0.0,0.0,0.0,0.0,0.0,0.0,0.0,0.0,0.0,0.0,0.0,0.0,0.0,0.0,0.0,0.0,0.0,0.0,0.0,0.0,0.0,0.0,0.0,0.0,-2.2235,-2.4038,0.0,0.0,0.0,0.0,0.0,0.0,0.0,0.0,-2.5345,0.0,0.0,0.0,0.0,0.0,0.0,0.0,0.0,0.0,0.0,0.0,0.0,0.0,0.0,0.0,0.0,0.0,0.0,0.0,0.0,0.0,0.0,0.0,0.0,0.0,0.0,0.0,0.0,0.0,0.0,0.0,0.0,0.0,0.0,0.0,0.0,0.0,0.0,0.0,0.0,0.0,0.0,0.0,0.0,0.0,0.0,0.0,0.0,0.0,0.0,0.0,0.0,0.0,0.0,0.0,0.0,-2.4723,-2.5807,-2.7685,-3.0528,-3.1245,-3.1282,-3.0751,-2.9528,-2.683,-2.2571,0.0,0.0,0.0,0.0,0.0,0.0,0.0,0.0,0.0,0.0,0.0,0.0,0.0,0.0,0.0,0.0,0.0,0.0,0.0,0.0,0.0,0.0,0.0,0.0,0.0,0.0,0.0,0.0,0.0,0.0,0.0,0.0,0.0,0.0,0.0,0.0,0.0,0.0,0.0,-2.7122,-2.7875,0.0,0.0,0.0,0.0,0.0,0.0,0.0,0.0,-2.5768,0.0,0.0,0.0,0.0,0.0,0.0,0.0,0.0,0.0,0.0,0.0,0.0,0.0,0.0,0.0,0.0,0.0,0.0,0.0,0.0,0.0,0.0,0.0,0.0,0.0,0.0,0.0,0.0,0.0,0.0,0.0,0.0,0.0,0.0,0.0,0.0,0.0,0.0,0.0,0.0,0.0,0.0,0.0,0.0,0.0,0.0,0.0,0.0,0.0,0.0,0.0,0.0,0.0,0.0,0.0,-2.4598,-2.7195,-2.9532,-3.1528,-3.2068,-3.2187,-3.1875,-2.9574,-2.6738,0.0,0.0,0.0,0.0,0.0,0.0,0.0,0.0,0.0,0.0,0.0,0.0,0.0,0.0,0.0,0.0,0.0,0.0,0.0,0.0,0.0,0.0,0.0,0.0,0.0,0.0,0.0,0.0,0.0,0.0,0.0,0.0,0.0,0.0,0.0,0.0,0.0,0.0,0.0,0.0,-2.8082,-2.8931,-2.9478,0.0,0.0,0.0,0.0,0.0,0.0,-2.6843,-2.6368,0.0,0.0,0.0,0.0,0.0,0.0,0.0,0.0,0.0,0.0,0.0,0.0,0.0,0.0,0.0,0.0,0.0,0.0,0.0,0.0,0.0,0.0,0.0,0.0,0.0,0.0,0.0,0.0,0.0,0.0,0.0,0.0,0.0,0.0,0.0,0.0,0.0,0.0,0.0,0.0,0.0,0.0,0.0,0.0,0.0,0.0,0.0,0.0,0.0,0.0,0.0,0.0,0.0,0.0,0.0,-2.4418,-2.8192,-3.1008,-3.2557,-3.2976,-3.3123,-3.2889,-2.9926,-2.6895,0.0,0.0,0.0,0.0,0.0,0.0,0.0,0.0,0.0,0.0,0.0,0.0,0.0,0.0,0.0,0.0,0.0,0.0,0.0,0.0,0.0,0.0,0.0,0.0,0.0,0.0,0.0,0.0,0.0,0.0,0.0,0.0,0.0,0.0,0.0,0.0,0.0,0.0,0.0,0.0,0.0,-3.0378,-3.078,-3.0746,0.0,0.0,0.0,0.0,-2.903,-2.8793,0.0,0.0,0.0,0.0,0.0,0.0,0.0,0.0,0.0,0.0,0.0,0.0,0.0,0.0,0.0,0.0,0.0,0.0,0.0,0.0,0.0,0.0,0.0,0.0,0.0,0.0,0.0,0.0,0.0,0.0,0.0,0.0,0.0,0.0,0.0,0.0,0.0,0.0,0.0,0.0,0.0,0.0,0.0,0.0,0.0,0.0,0.0,0.0,0.0,0.0,0.0,0.0,0.0,0.0,0.0,0.0,-2.5588,-2.7912,-3.0511,-3.3305,-3.3908,-3.3665,-3.2762,-3.1087,-2.8254,0.0,0.0,0.0,0.0,0.0,0.0,0.0,0.0,0.0,0.0,0.0,0.0,0.0,0.0,0.0,0.0,0.0,0.0,0.0,0.0,0.0,0.0,0.0,0.0,0.0,0.0,0.0,0.0,0.0,0.0,0.0,0.0,0.0,0.0,0.0,0.0,0.0,0.0,0.0,0.0,0.0,-3.3965,-3.2449,-3.2465,-3.2514,0.0,0.0,-3.2599,-3.3469,-3.4172,0.0,0.0,0.0,0.0,0.0,0.0,0.0,0.0,0.0,0.0,0.0,0.0,0.0,0.0,0.0,0.0,0.0,0.0,0.0,0.0,0.0,0.0,0.0,0.0,0.0,0.0,0.0,0.0,0.0,0.0,0.0,0.0,0.0,0.0,0.0,0.0,0.0,0.0,0.0,0.0,0.0,0.0,0.0,0.0,0.0,0.0,0.0,0.0,0.0,0.0,0.0,0.0,0.0,0.0,0.0,-2.3685,-2.7083,-3.0432,-3.3215,-3.5315,-3.5178,-3.4678,-3.3849,-3.1246,-2.8311,0.0,0.0,0.0,0.0,0.0,0.0,0.0,0.0,0.0,0.0,0.0,0.0,0.0,0.0,0.0,0.0,0.0,0.0,0.0,0.0,0.0,0.0,0.0,0.0,0.0,0.0,0.0,0.0,0.0,0.0,0.0,0.0,0.0,0.0,0.0,0.0,0.0,0.0,0.0,0.0,0.0,0.0,-3.4844,-3.5288,0.0,0.0,0.0,-3.5118,-3.5602,0.0,0.0,0.0,0.0,0.0,0.0,0.0,0.0,0.0,0.0,0.0,0.0,0.0,0.0,0.0,0.0,0.0,0.0,0.0,0.0,0.0,0.0,0.0,0.0,0.0,0.0,0.0,0.0,0.0,0.0,0.0,0.0,0.0,0.0,0.0,0.0,0.0,0.0,0.0,0.0,0.0,0.0,0.0,0.0,0.0,0.0,0.0,0.0,0.0,0.0,0.0,0.0,0.0,0.0,0.0,0.0,0.0,-2.82,-3.2658,-3.5626,-3.698,-3.6648,-3.6009,-3.5219,-3.2207,0.0,0.0,0.0,0.0,0.0,0.0,0.0,0.0,0.0,0.0,0.0,0.0,0.0,0.0,0.0,0.0,0.0,0.0,0.0,0.0,0.0,0.0,0.0,0.0,0.0,0.0,0.0,-1.5077,0.0,0.0,0.0,0.0,0.0,0.0,0.0,0.0,0.0,0.0,0.0,0.0,0.0,0.0,-3.5243,-3.6856,-3.7819,-3.8329,0.0,0.0,-3.7765,-3.7671,-3.7193,-3.5739,0.0,0.0,0.0,0.0,0.0,0.0,0.0,0.0,0.0,0.0,0.0,0.0,0.0,0.0,0.0,0.0,0.0,0.0,0.0,0.0,0.0,0.0,0.0,0.0,0.0,0.0,0.0,0.0,0.0,0.0,0.0,0.0,0.0,0.0,0.0,0.0,0.0,0.0,0.0,0.0,0.0,0.0,0.0,0.0,0.0,0.0,0.0,0.0,0.0,0.0,0.0,0.0,0.0,0.0,0.0,-2.8692,-3.3285,-3.6353,-3.7788,-3.8243,-3.7894,-3.6697,-3.4954,-3.1772,0.0,0.0,0.0,0.0,0.0,0.0,0.0,0.0,0.0,0.0,0.0,0.0,0.0,0.0,0.0,0.0,0.0,0.0,0.0,0.0,0.0,0.0,0.0,0.0,0.0,0.0,0.0,0.0,0.0,0.0,0.0,0.0,0.0,0.0,0.0,0.0,0.0,0.0,0.0,0.0,0.0,-3.6727,-3.7839,-3.933,-4.0606,0.0,-4.1472,-4.1166,-4.0589,-4.1728,-4.0591,-3.4336,0.0,0.0,0.0,0.0,0.0,0.0,0.0,0.0,0.0,0.0,0.0,0.0,0.0,0.0,0.0,0.0,0.0,0.0,0.0,0.0,0.0,0.0,0.0,0.0,0.0,0.0,0.0,0.0,0.0,0.0,0.0,0.0,0.0,0.0,0.0,0.0,0.0,0.0,0.0,0.0,0.0,0.0,0.0,0.0,0.0,0.0,0.0,0.0,0.0,0.0,0.0,0.0,0.0,-2.7205,-2.998,-3.4631,-3.7668,-3.9075,-3.8937,-3.836,-3.751,-3.5875,-3.3172,0.0,0.0,0.0,0.0,0.0,0.0,0.0,0.0,0.0,0.0,0.0,0.0,0.0,0.0,0.0,0.0,0.0,0.0,0.0,0.0,0.0,0.0,0.0,0.0,0.0,0.0,0.0,0.0,-2.0596,-2.1343,-2.2648,0.0,0.0,0.0,0.0,0.0,0.0,0.0,0.0,0.0,0.0,-3.8798,-4.0303,-4.137,0.0,0.0,-4.2595,-4.2585,-4.3015,-4.1905,-3.999,-3.6911,-3.5409,0.0,0.0,0.0,0.0,0.0,0.0,0.0,0.0,0.0,0.0,0.0,0.0,0.0,0.0,0.0,0.0,0.0,0.0,0.0,0.0,0.0,0.0,0.0,0.0,0.0,0.0,0.0,0.0,0.0,0.0,0.0,0.0,0.0,0.0,0.0,0.0,0.0,0.0,0.0,0.0,0.0,0.0,0.0,0.0,0.0,0.0,0.0,0.0,0.0,0.0,0.0,0.0,-2.8354,-3.1477,-3.5932,-3.8961,-4.0397,-3.98,-3.9157,-3.8472,-3.6935,-3.4631,0.0,0.0,0.0,0.0,0.0,0.0,0.0,0.0,0.0,0.0,0.0,0.0,0.0,0.0,0.0,0.0,0.0,0.0,0.0,0.0,0.0,0.0,0.0,0.0,0.0,0.0,0.0,0.0,-2.2405,-2.3081,-2.4209,0.0,0.0,0.0,0.0,0.0,0.0,0.0,0.0,0.0,0.0,-4.0502,-4.2221,-4.3047,-4.353,-4.3649,-4.3484,-4.3577,-4.4065,-4.2472,-4.0651,-3.9029,0.0,0.0,0.0,0.0,0.0,0.0,0.0,0.0,0.0,0.0,0.0,0.0,0.0,0.0,0.0,0.0,0.0,0.0,0.0,0.0,0.0,0.0,0.0,0.0,0.0,0.0,0.0,-1.7785,0.0,0.0,-1.7405,0.0,0.0,0.0,0.0,0.0,0.0,0.0,0.0,0.0,0.0,0.0,0.0,0.0,0.0,0.0,0.0,0.0,0.0,0.0,0.0,0.0,0.0,-2.9338,-3.303,-3.7091,-3.9947,-4.1375,-4.1071,-4.0491,-3.9698,-3.8284,-3.6395,-3.4133,0.0,0.0,0.0,0.0,0.0,0.0,0.0,0.0,0.0,0.0,0.0,0.0,0.0,0.0,0.0,0.0,0.0,0.0,0.0,0.0,0.0,0.0,0.0,0.0,0.0,0.0,-2.2904,-2.375,-2.4301,0.0,0.0,0.0,0.0,0.0,0.0,0.0,0.0,0.0,0.0,-4.0138,-4.1732,-4.3369,-4.427,-4.4701,-4.4551,-4.4496,-4.4243,-4.3577,-4.4147,-4.3665,0.0,0.0,0.0,0.0,0.0,0.0,0.0,0.0,0.0,0.0,0.0,0.0,0.0,0.0,0.0,0.0,0.0,0.0,0.0,0.0,0.0,0.0,0.0,0.0,0.0,0.0,0.0,-2.4925,-2.3039,0.0,0.0,0.0,0.0,0.0,0.0,0.0,0.0,0.0,0.0,0.0,-3.4682,-3.6714,0.0,0.0,0.0,0.0,0.0,0.0,0.0,0.0,0.0,0.0,0.0,0.0,-3.0723,-3.3905,-3.8231,-4.1024,-4.1895,-4.1839,-4.1611,-4.1329,-4.0418,-3.8263,-3.4692,0.0,0.0,0.0,0.0,0.0,0.0,0.0,0.0,0.0,0.0,0.0,0.0,0.0,0.0,0.0,0.0,0.0,0.0,0.0,0.0,0.0,0.0,0.0,0.0,0.0,-2.3156,0.0,0.0,0.0,0.0,0.0,0.0,0.0,0.0,0.0,0.0,0.0,-3.7921,-4.0523,-4.2138,-4.3714,-4.5534,-4.5878,-4.6176,0.0,0.0,0.0,0.0,0.0,0.0,0.0,0.0,0.0,0.0,0.0,0.0,0.0,0.0,-4.3075,-3.6802,-3.5175,-3.4875,-3.5185,0.0,0.0,0.0,0.0,0.0,0.0,0.0,0.0,0.0,0.0,0.0,0.0,0.0,0.0,-3.0194,0.0,-2.8241,0.0,0.0,0.0,0.0,0.0,0.0,0.0,0.0,-3.7925,-3.9654,-3.9501,-4.1499,-4.1168,0.0,-3.8729,-3.5721,0.0,0.0,0.0,0.0,0.0,0.0,0.0,0.0,-3.2787,-3.5687,-3.9516,-4.1825,-4.2465,-4.2382,-4.2262,-4.2221,-4.1626,-3.9621,-3.6076,-3.306,-3.0584,0.0,0.0,0.0,0.0,0.0,0.0,0.0,0.0,0.0,0.0,0.0,0.0,0.0,0.0,0.0,0.0,0.0,0.0,0.0,0.0,0.0,0.0,0.0,-2.4091,0.0,0.0,0.0,0.0,0.0,0.0,0.0,0.0,0.0,-3.598,-3.8274,-4.1208,-4.4253,-4.5017,-4.588,-4.7532,0.0,0.0,0.0,0.0,0.0,0.0,0.0,-4.6912,-4.7237,-4.6651,-4.6298,-4.6799,-4.8647,-5.0026,-4.9755,0.0,0.0,-4.1869,-3.9966,-3.9431,-3.9742,-4.114,-4.2189,-4.1995,-4.3673,-4.5087,0.0,0.0,0.0,0.0,0.0,0.0,0.0,0.0,-3.322,-3.4425,0.0,-3.3565,0.0,0.0,0.0,0.0,0.0,-3.6317,0.0,0.0,-4.3934,-4.6099,-4.543,-4.6174,-4.6136,-4.543,-4.5281,-4.3252,-3.9234,-3.4007,0.0,0.0,0.0,0.0,0.0,0.0,-3.5495,-3.8517,-4.0836,-4.2373,-4.3104,-4.2774,-4.2505,-4.235,-4.1937,-4.0564,-3.8316,-3.6843,-3.4686,-3.18,-2.7533,0.0,0.0,0.0,0.0,0.0,0.0,0.0,0.0,0.0,0.0,0.0,0.0,0.0,0.0,0.0,0.0,0.0,0.0,0.0,0.0,-2.4068,0.0,0.0,0.0,0.0,0.0,0.0,0.0,0.0,0.0,0.0,-4.0938,-4.1686,-4.4186,-4.9046,0.0,0.0,0.0,0.0,-4.827,-4.8068,-4.8702,-4.9276,-4.9291,-5.0811,-5.1741,-5.099,0.0,0.0,-5.017,-5.0688,-5.1139,-5.0131,-5.0855,-5.1058,-5.0087,-4.7639,-4.6307,-4.7007,-4.7201,-4.7717,-4.8533,-4.9632,-5.0925,-3.7873,0.0,0.0,0.0,0.0,-3.768,-3.9883,-4.274,-4.2603,-4.1866,-4.063,-4.002,0.0,0.0,0.0,0.0,0.0,0.0,-4.1224,-4.2575,-4.541,-4.707,-4.7692,-4.8456,-4.8419,-4.7692,-4.7655,-4.6739,-4.494,-4.28,-3.7929,-3.0638,0.0,0.0,0.0,0.0,-3.8852,-4.071,-4.2679,-4.3858,-4.4167,-4.3726,-4.3443,-4.3391,-4.2848,-4.2298,-4.1623,-4.0188,-3.8203,-3.5672,-3.3141,0.0,0.0,0.0,0.0,0.0,0.0,0.0,0.0,0.0,0.0,0.0,0.0,0.0,0.0,0.0,0.0,0.0,0.0,0.0,-2.5115,-2.6238,-2.7879,0.0,0.0,0.0,0.0,0.0,0.0,0.0,0.0,0.0,-4.7519,-4.6848,-4.7093,0.0,0.0,-5.1217,-5.0739,-5.0972,-5.1386,-5.1939,-5.2235,0.0,-5.2382,-5.2343,-5.2433,-5.2809,-5.3663,-5.4064,-5.3586,-5.422,-5.4725,-5.4401,-5.4175,-5.3896,-5.3545,-5.1502,-4.9932,-5.0076,-5.0578,-5.1053,-5.1373,-5.2317,-5.313,-4.5244,-4.1894,-4.1086,-4.1402,-4.2579,-4.3401,-4.5319,-4.7922,-4.7593,-4.7047,-4.6273,-4.5692,-4.3615,-4.0555,-3.9896,0.0,0.0,0.0,-4.5559,-4.6902,-4.7985,-4.8916,-4.9606,-4.9781,-4.9591,-4.9098,-4.8731,-4.8365,-4.7971,-4.712,-4.343,-3.7165,0.0,0.0,-3.6609,-3.9284,-4.125,-4.2398,-4.3744,-4.455,-4.4676,-4.4353,-4.4195,-4.4132,-4.3821,-4.3642,-4.3605,-4.2448,-4.0873,-3.8845,-3.6755,-3.3582,0.0,0.0,0.0,0.0,0.0,0.0,0.0,0.0,0.0,0.0,0.0,-2.4056,-2.1744,0.0,0.0,0.0,-2.6106,-2.7635,-2.9295,-3.1553,0.0,0.0,0.0,0.0,0.0,0.0,0.0,-4.6529,-4.8382,-5.0325,-5.2637,-5.1528,-5.0841,-5.1785,-5.2885,-5.3351,-5.2795,0.0,-5.3106,-5.3611,-5.3999,-5.4232,-5.422,-5.4064,-5.4142,-5.4621,-5.5165,-5.5514,-5.5514,-5.5979,-5.6286,-5.623,-5.5909,-5.5613,-5.562,-5.4297,-5.3009,-5.2433,-5.2941,-5.3481,-5.3403,-5.4172,-5.4892,-5.1153,-5.1172,-4.7956,-4.6828,-4.7341,-4.833,-4.9153,-4.9769,-4.9502,-5.0368,-5.1912,-5.0483,-4.9417,-4.8716,-4.7122,0.0,-4.7062,-4.9544,-5.0856,-5.1345,-5.1281,-5.1332,-5.1345,-5.0469,-5.0076,-5.0038,-4.9214,-4.8909,-4.906,-4.8318,-4.7176,-4.5609,-4.3878,-4.2329,-4.1189,-4.2284,-4.3187,-4.3847,-4.4393,-4.4711,-4.4862,-4.4814,-4.4764,-4.4701,-4.46,-4.4537,-4.4499,-4.3731,-4.264,-4.1258,-3.876,-3.5609,-3.179,0.0,0.0,0.0,0.0,0.0,0.0,0.0,0.0,0.0,0.0,0.0,0.0,0.0,0.0,0.0,-3.1845,0.0,-3.4574,-3.8433,0.0,0.0,0.0,-4.2112,-4.3968,-4.7029,-4.9653,-5.133,0.0,0.0,-5.6369,-5.5579,-5.5035,-5.5281,-5.4983,-5.4789,-5.4971,-5.4349,-5.3883,-5.3999,-5.4621,-5.5087,-5.5113,-5.5631,-5.6136,-5.6291,-5.6408,-5.646,-5.655,-5.6552,-5.6541,-5.6636,-5.6575,-5.6649,-5.6649,-5.6536,-5.6149,-5.463,-5.4783,-5.513,-5.5052,-5.5759,-5.6507,-5.3975,-5.4027,-5.4272,-5.337,-5.1856,-5.2773,-5.353,-5.3953,-5.3273,-5.313,-5.3308,-5.2565,-5.1903,-5.136,-5.1034,-5.0837,-5.0979,-5.1891,-5.2332,-5.2432,-5.2735,-5.2856,-5.2838,-5.1931,-5.1526,-5.1429,-5.0619,-5.0235,-5.0276,-5.0105,-4.949,-4.8607,-4.8111,-4.6645,-4.4357,-4.5878,-4.6532,-4.6148,-4.5611,-4.5378,-4.5404,-4.5192,-4.5004,-4.4776,-4.4334,-4.4081,-4.4043,-4.3405,-4.2622,-4.1586,-3.9695,-3.7343,-3.4557,-3.0571,0.0,0.0,0.0,0.0,0.0,0.0,0.0,0.0,0.0,-3.3134,-2.7907,0.0,-3.5353,0.0,-3.593,-3.6968,-3.7212,-3.9968,0.0,0.0,-4.6472,-4.8677,-5.1839,-5.2859,-5.4008,-5.5824,-5.6589,-5.7301,-5.8117,-5.7962,-5.7806,-5.7845,-5.6719,-5.567,-5.5126,-5.5437,-5.567,-5.5709,-5.5864,-5.5981,-5.6019,-5.6136,-5.6563,-5.7185,-5.7263,-5.7495,-5.8179,-5.8286,-5.832,-5.8343,-5.8423,-5.8474,-5.8436,-5.8436,-5.835,-5.7879,-5.6991,-5.6365,-5.6913,-5.7265,-5.7686,-5.5877,-5.6023,-5.6993,-5.6672,-5.5404,-5.5571,-5.5789,-5.6022,-5.5599,-5.5321,-5.5099,-5.4656,-5.4073,-5.349,-5.3644,-5.3696,-5.367,-5.405,-5.4241,-5.4241,-5.4072,-5.3992,-5.3971,-5.3099,-5.2674,-5.2636,-5.1802,-5.1432,-5.1393,-5.1029,-5.0612,-5.0234,-5.0234,-4.9427,-4.7935,-4.8153,-4.8037,-4.7516,-4.6706,-4.6044,-4.5592,-4.5514,-4.5189,-4.4607,-4.4725,-4.4405,-4.3611,-4.3682,-4.2932,-4.1316,-4.0337,-3.8859,-3.6702,-3.4007,-3.2154,0.0,0.0,0.0,0.0,0.0,0.0,0.0,0.0,0.0,0.0,0.0,-3.9419,-3.8612,-4.0519,-4.2198,-4.3182,-4.5711,-4.8192,-5.0455,-5.2109,-5.3892,-5.5968,-5.6407,-5.713,-5.8531,-5.8739,-5.9011,-5.9827,-5.9632,-5.936,-5.936,-5.8234,-5.7224,-5.6835,-5.7107,-5.7418,-5.7418,-5.7418,-5.7418,-5.7418,-5.7418,-5.7599,-5.8048,-5.8176,-5.8374,-5.885,-5.8967,-5.8992,-5.9051,-5.9062,-5.9131,-5.9131,-5.912,-5.9104,-5.8987,-5.8336,-5.784,-5.796,-5.8222,-5.8597,-5.7229,-5.7328,-5.785,-5.8113,-5.8083,-5.7383,-5.7081,-5.7007,-5.7043,-5.699,-5.6907,-5.6391,-5.5808,-5.5216,-5.5375,-5.5431,-5.5423,-5.5728,-5.5943,-5.598,-5.5246,-5.4933,-5.4929,-5.408,-5.3698,-5.3663,-5.286,-5.2418,-5.2275,-5.1525,-5.1097,-5.1031,-5.1031,-5.1031,-5.0953,-4.9575,-4.8794,-4.8629,-4.7647,-4.6669,-4.5868,-4.5819,-4.5394,-4.4575,-4.5221,-4.4866,-4.335,-4.3912,-4.3225,-4.104,-4.0885,-4.0215,-3.8667,-3.7672,-3.6755,0.0,-3.515,0.0,0.0,0.0,0.0,0.0,0.0,0.0,0.0,-4.2128,-4.3296,-4.3028,-4.5425,-4.7878,-5.0028,-5.2525,-5.4388,-5.5281,-5.6874,-5.7923,-5.7962,-5.8661,-5.9438,-6.0162,-6.0268,-6.0592,-6.1214,-6.0761,-6.0268,-6.0215,-5.967,-5.9165,-5.9102,-5.8843,-5.8661,-5.8817,-5.8817,-5.8597,-5.8686,-5.8713,-5.8776,-5.8957,-5.9061,-5.9131,-5.9382,-5.9448,-5.9492,-5.9491,-5.9556,-5.9534,-5.9456,-5.9495,-5.949,-5.9568,-5.9485,-5.9246,-5.8827,-5.8983,-5.9446,-5.7941,-5.819,-5.8716,-5.914,-5.943,-5.9279,-5.9025,-5.8689,-5.8333,-5.8,-5.7641,-5.6855,-5.6573,-5.6708,-5.6135,-5.5827,-5.5787,-5.5923,-5.5998,-5.6077,-5.5977,-5.5973,-5.5973,-5.5122,-5.4691,-5.4669,-5.379,-5.2997,-5.231,-5.2115,-5.1736,-5.1178,-5.1178,-5.1178,-5.1139,0.0,0.0,0.0,-4.8321,-4.7115,-4.71,-4.6264,-4.5708,-4.5501,-4.4444,0.0,-4.3363,-4.284,-4.2345,-4.1859,-4.183,0.0,0.0,0.0,0.0,0.0,0.0,0.0,0.0,0.0,0.0,0.0,-4.4578,-4.4579,-4.302,-4.7439,-4.9834,-4.8476,-5.0688,-5.2445,-5.2938,-5.466,-5.6136,-5.7068,-5.8622,-5.9632,-5.9671,-6.037,-6.0992,-6.1109,-6.12,-6.1266,-6.1422,-6.1331,-6.1218,-6.1173,-6.1101,-6.0984,-6.0945,-5.9727,-5.8869,-5.8817,-5.896,-5.8904,-5.8942,-5.8983,-5.92,-5.9508,-5.9876,-6.0284,-6.0856,-6.1054,-6.113,-6.1115,-6.1178,-6.113,-6.1134,-6.1203,-6.108,-6.1197,-6.1147,-6.0906,-6.0177,-6.0093,-6.0353,-5.8756,0.0,-5.9395,-5.9605,0.0,-6.0,-5.9962,-5.9798,-5.9566,-5.9228,-5.8819,-5.8434,-5.7884,-5.7294,-5.6925,-5.6521,-5.6059,-5.6132,-5.6149,-5.617,-5.6248,-5.6291,-5.6291,-5.5903,-5.568,-5.5648,-5.4843,-5.4209,-5.376,-5.3319,-5.2734,-5.196,-5.196,-5.1726,-5.1336,-5.1362,-5.1146,-5.0607,-4.9225,-4.8355,-4.7985,-4.7062,-4.6363,-4.5891,-4.5218,0.0,0.0,0.0,0.0,0.0,0.0,0.0,0.0,0.0,0.0,-4.2805,-4.2454,-4.2571,-4.3389,-4.3851,-4.5059,-4.7235,-4.9364,-4.9828,-4.8038,-5.0731,-5.2586,-5.2977,-5.422,-5.532,-5.6175,-5.7418,-5.835,-5.8817,-5.9982,-6.0747,-6.0849,-6.1172,-6.1468,-6.1442,-6.1495,-6.1478,-6.1478,-6.1504,-6.1486,-6.1486,-6.1486,-6.149,-6.1447,-6.073,-6.0165,-6.0126,-6.0126,-6.0161,-6.0222,-6.0222,-6.0255,-6.0646,-6.0811,-6.1131,-6.1557,-6.1629,-6.1658,-6.1676,-6.1666,-6.166,-6.166,-6.1654,-6.1648,-6.1648,-6.1634,-6.1502,-6.1049,-6.101,-6.1081,-5.9537,-5.9906,-5.9868,-5.9937,-5.9962,-6.0283,-6.047,-6.0584,0.0,0.0,0.0,-5.9978,-5.9167,-5.7886,-5.7838,-5.7318,-5.6476,-5.6504,-5.6466,-5.6338,-5.6317,-5.6377,-5.6354,-5.6432,-5.6432,-5.64,-5.5837,-5.5462,-5.5267,-5.4564,-5.3781,-5.2995,-5.2761,-5.2253,-5.1467,-5.1389,-5.1023,-5.0282,-5.0095,-4.9582,-4.8769,-4.8015,-4.7284,-4.6513,-4.6532,-4.5816,-4.4409,-4.5031,-4.4766,-4.3329,-4.3362,-4.3791,-4.4493,-4.5201,-4.6231,-4.7701,-4.8408,-4.8876,-4.9032,-4.915,-4.9766,-5.0918,-5.2961,-5.3822,-5.3039,-5.3224,-5.4285,-5.6368,-5.6666,-5.7366,-5.8908,-5.9646,-6.0176,-6.0332,-6.0981,-6.1421,-6.1481,-6.1509,-6.1502,-6.1481,-6.1495,-6.1538,-6.1538,-6.1548,-6.1548,-6.1548,-6.1553,-6.1548,-6.1509,-6.142,-6.1325,-6.1334,-6.1252,-6.1412,-6.1509,-6.1427,-6.1553,-6.1483,-6.156,-6.1633,-6.1647,-6.1666,-6.1654,-6.1699,-6.1641,-6.1602,-6.1595,-6.1595,-6.1588,-6.1588,-6.1573,-6.1595,-6.1595,-6.1573,-6.158,-5.9899,-6.0237,-6.0237,-6.0376,-6.0671,-6.0822,-6.1022,-6.1152,-6.1036,-6.0993,-6.0982,-6.0341,-5.9951,-5.9755,-5.9036,-5.8257,-5.7429,-5.74,-5.7055,-5.6493,-5.6449,-5.6503,-5.6559,-5.656,-5.656,-5.656,-5.6445,-5.6015,-5.5351,-5.5118,-5.4591,-5.3725,-5.2947,-5.2136,-5.1481,-5.1403,-5.1326,-5.121,-5.0425,-4.9956,-4.9792,-4.8943,-4.8475,-4.8319,-4.7718,-4.7311,-4.7073,-4.7155,-4.7116,-4.6878,-4.7502,-4.7971,-4.8049,-4.8127,-4.8365,-4.8603,-4.8759,-4.9111,-4.9891,-5.0594,-5.2078,-5.4298,-5.4884,-5.5026,-5.4872,-5.6129,-5.7117,-5.7537,-5.812,-5.8943,-5.9877,-6.0074,-6.0423,-6.1084,-6.1367,-6.1481,-6.15,-6.1485,-6.152,-6.1495,-6.1555,-6.1601,-6.1562,-6.1637,-6.1665,-6.1658,-6.1665,-6.1647,-6.158,-6.1523,-6.1548,-6.1559,-6.1553,-6.156,-6.1633,-6.1594,-6.1633,-6.1671,-6.1671,-6.1637,-6.1615,-6.1602,-6.1602,-6.1602,-6.1595,-6.1595,-6.1595,-6.158,-6.1573,-6.1564,-6.1586,-6.1578,-6.1578,-6.1578,-6.1578,-6.0393,-6.0673,-6.0766,-6.0867,-6.1,-6.1113,-6.1203,-6.1314,-6.135,-6.1366,-6.1298,-6.1039,-6.067,-6.0201,-5.9872,-5.9269,-5.8449,-5.7981,-5.7568,-5.7237,-5.6761,-5.6556,-5.6541,-5.6553,-5.6488,-5.6441,-5.6445,-5.6211,-5.5855,-5.5801,-5.5337,-5.4458,-5.3206,-5.2381,-5.206,-5.1633,-5.1398,-5.1398,-5.0975,-5.0769,-5.073,-4.9912,-4.9443,-4.9443,-4.8669,-4.8239,-4.8233,-4.8233,-4.8267,-4.8252,-4.8603,-4.8798,-4.8798,-4.9228,-4.9501,-4.954,-5.0399,-5.1063,-5.1492,-5.278,-5.3998,-5.5145,-5.5692,-5.6163,-5.6597,-5.7294,-5.7931,-5.8382,-5.9173,-6.0,-6.0815,-6.0876,-6.1023,-6.14,-6.1478,-6.1509,-6.1529,-6.1545,-6.156,-6.16,-6.1631,-6.1623,-6.1616,-6.1637,-6.166,-6.1654,-6.1648,-6.1641,-6.1595,-6.1573,-6.1555,-6.158,-6.1587,-6.158,-6.1621,-6.1632,-6.1632,-6.1719,-6.168,-6.1641,-6.1595,-6.1588,-6.158,-6.158,-6.1573,-6.1603,-6.1603,-6.1595,-6.1586,-6.1586,-6.1578,-6.1568,-6.1568,-6.1568,-6.1568,-6.0809,-6.1036,-6.1143,-6.1239,-6.1291,-6.1352,-6.1368,-6.1394,-6.1535,-6.1562,-6.1499,-6.1589,-6.1235,-6.0656,-6.067,-6.0231,-5.9425,-5.8757,-5.8222,-5.7806,-5.7142,-5.6712,-5.6466,-5.6449,-5.6388,-5.6308,-5.6319,-5.6319,-5.6319,-5.628,-5.5838,-5.4955,-5.3747,-5.3033,-5.2858,-5.2085,-5.1655,-5.1655,-5.1464,-5.1389,-5.1359,-5.0734,-5.0383,-5.0344,-4.9756,-4.9371,-4.9375,-4.9375,-4.9373,-4.9363,-4.9402,-4.9402,-4.9441,-5.0181,-5.0649,-5.0806,-5.2097,-5.3073,-5.3307,-5.4518,-5.5343,-5.5508,-5.6289,-5.707,-5.7729,-5.8198,-5.8627,-5.9306,-6.008,-6.0828,-6.1364,-6.1481,-6.1486,-6.1502,-6.1511,-6.1559,-6.1562,-6.1599,-6.1629,-6.1666,-6.1693,-6.1654,-6.1602,-6.1595,-6.1595,-6.1595,-6.1588,-6.1588,-6.1588,-6.158,-6.158,-6.158,-6.1588,-6.1595,-6.1588,-6.1588,-6.1627,-6.1666,-6.1627,-6.1588,-6.158,-6.1603,-6.1595,-6.1595,-6.1586,-6.1578,-6.1568,-6.1568,-6.1568,-6.1568,-6.1568,-6.1598,-6.1528,-6.1489,-6.1489,-6.1158,-6.1172,-6.12,-6.1318,-6.1472,-6.1505,-6.1562,-6.1627,-6.1662,-6.1678,-6.1656,-6.1687,-6.1635,-6.1557,-6.1562,-6.103,-6.0228,-6.0123,-5.9205,-5.7806,-5.7549,-5.7096,-5.6407,-5.635,-5.63,-5.6311,-5.6272,-5.6288,-5.6288,-5.6233,-5.5785,-5.5002,-5.4789,-5.4369,-5.3692,-5.2918,-5.2465,-5.2465,-5.1725,-5.1341,-5.1396,-5.132,-5.1281,-5.1281,-5.1203,-5.1164,-5.1049,-5.1166,-5.1127,-5.1167,-5.1128,-5.1128,-5.1245,-5.1909,-5.2339,-5.2378,-5.3275,-5.4134,-5.4878,-5.5112,-5.5581,-5.636,-5.7142,-5.7686,-5.7879,-5.9251,-6.0153,-6.0389,-6.0976,-6.1444,-6.1601,-6.1557,-6.1516,-6.152,-6.1562,-6.1594,-6.1592,-6.1603,-6.1609,-6.1602,-6.1595,-6.1595,-6.1595,-6.1588,-6.1588,-6.1564,-6.1564,-6.1603,-6.1586,-6.1586,-6.1586,-6.1586,-6.1595,-6.1603,-6.1564,-6.1603,-6.1603,-6.1625,-6.1595,-6.1595,-6.1586,-6.1578,-6.1568,-6.1578,-6.1568,-6.1568,-6.1568,-6.1568,-6.1568,-6.1607,-6.1598,-6.1578,-6.1408,-6.1253,-6.1253,-6.139,-6.139,-6.1451,-6.1526,-6.1612,-6.1627,-6.1621,-6.1635,-6.1662,-6.1598,-6.152,-6.1541,-6.158,-6.1634,-6.1549,-6.1283,-6.0903,-6.0433,-5.9835,-5.9032,-5.862,-5.7882,-5.7014,-5.6969,-5.667,-5.6167,-5.6128,-5.6128,-5.6128,-5.6089,-5.5907,-5.5598,-5.5203,-5.4852,-5.4518,-5.3788,-5.3385,-5.3346,-5.3034,-5.2863,-5.274,-5.1854,-5.1347,-5.1347,-5.1347,-5.1357,-5.1336,-5.134,-5.1581,-5.206,-5.2101,-5.2336,-5.2841,-5.3193,-5.3388,-5.3427,-5.4169,-5.507,-5.589,-5.5968,-5.6119,-5.6493,-5.7309,-5.8002,-5.8487,-5.9658,-6.0555,-6.1069,-6.1424,-6.1594,-6.1584,-6.1587,-6.1548,-6.1538,-6.1593,-6.1588,-6.1593,-6.1576,-6.1595,-6.158,-6.158,-6.1573,-6.1603,-6.1595,-6.1595,-6.1586,-6.1586,-6.1578,-6.1568,-6.1568,-6.1568,-6.1568,-6.1578,-6.1578,-6.1586,-6.1578,-6.1578,-6.1578,-6.1578,-6.1578,-6.1568,-6.1568,-6.1568,-6.1568,-6.1568,-6.1568,-6.1568,-6.1568,-6.1568,-6.1598,-6.1573,-6.1564,-6.1356,-6.0996,-6.0821,-6.1564,-6.1588,-6.1658,-6.1672,-6.1631,-6.164,-6.158,-6.1564,-6.1539,-6.1508,-6.1421,-6.1394,-6.1444,-6.15,-6.1433,-6.1394,-6.1292,-6.0738,-6.0287,-6.0016,-5.9416,-5.8642,-5.7791,-5.7714,-5.725,-5.6476,-5.636,-5.6244,-5.6051,-5.6012,-5.6007,-5.5994,-5.5578,-5.5345,-5.5314,-5.4636,-5.4242,-5.4242,-5.4048,-5.3892,-5.3697,-5.2645,-5.2021,-5.2021,-5.2021,-5.2005,-5.1999,-5.2005,-5.2289,-5.2936,-5.294,-5.3253,-5.3834,-5.4108,-5.4342,-5.4615,-5.5205,-5.5829,-5.6454,-5.6493,-5.6602,-5.6842,-5.7655,-5.8499,-5.9326,-6.0165,-6.0906,-6.1461,-6.1576,-6.1593,-6.1569,-6.1602,-6.1588,-6.1595,-6.1595,-6.1603,-6.158,-6.158,-6.1573,-6.1595,-6.1595,-6.1586,-6.1578,-6.1568,-6.1568,-6.1568,-6.1568,-6.1568,-6.1568,-6.1568,-6.1568,-6.1568,-6.1568,-6.1568,-6.1568,-6.1568,-6.1568,-6.1568,-6.1568,-6.1568,-6.1568,-6.1568,-6.1568,-6.1568,-6.1568,-6.1568,-6.1568,-6.1568,-6.1539,-6.1546,-6.1551,-6.1462,-6.1131,-6.0731,-6.0534,-6.1715,-6.1694,-6.1623,-6.1564,-6.1431,-6.1407,-6.1431,-6.1422,-6.143,-6.1407,-6.1366,-6.1328,-6.1291,-6.1311,-6.1366,-6.1348,-6.131,-6.1214,-6.0731,-6.0035,-5.988,-5.9377,-5.8565,-5.8526,-5.8101,-5.7288,-5.7134,-5.6747,-5.6051,-5.6012,-5.6012,-5.599,-5.6068,-5.6136,-5.6006,-5.5434,-5.513,-5.5052,-5.4468,-5.4009,-5.397,-5.3853,-5.3775,-5.3775,-5.3736,-5.3658,-5.3705,-5.3736,-5.3783,-5.3861,-5.383,-5.39,-5.4017,-5.4718,-5.5506,-5.6207,-5.6363,-5.6441,-5.6519,-5.6566,-5.687,-5.7602,-5.8468,-5.9278,-6.0049,-6.0906,-6.1451,-6.1568,-6.1586,-6.1586,-6.1586,-6.1586,-6.1578,-6.1578,-6.1568,-6.1578,-6.1578,-6.1578,-6.1568,-6.1568,-6.1578,-6.1568,-6.1568,-6.1568,-6.1568,-6.1568,-6.1568,-6.1568,-6.1568,-6.1568,-6.1568,-6.1568,-6.1568,-6.1568,-6.1568,-6.1568,-6.1568,-6.1568,-6.1568,-6.1568,-6.1568,-6.1568,-6.1568,-6.1559,-6.1549,-6.1549,-6.1559,-6.1539,-6.1445,-6.1408,-6.1452,-6.1311,-6.0943,-6.0641,-6.0479,-6.1601,-6.1559,-6.1534,-6.1491,-6.1409,-6.1403,-6.1382,-6.1345,-6.1346,-6.1273,-6.1234,-6.1195,-6.1195,-6.1157,-6.1195,-6.1195,-6.1157,-6.1195,-6.0963,-6.0692,-6.0692,-6.0228,-5.9493,-5.9416,-5.899,-5.8178,-5.7559,-5.6863,-5.6089,-5.6012,-5.6012,-5.6029,-5.6087,-5.6146,-5.6082,-5.5928,-5.583,-5.5862,-5.5561,-5.5502,-5.552,-5.5567,-5.5567,-5.5489,-5.4476,-5.3892,-5.3892,-5.3892,-5.4164,-5.471,-5.4749,-5.4983,-5.5528,-5.584,-5.6152,-5.6464,-5.6503,-5.6736,-5.7165,-5.7282,-5.7633,-5.849,-5.9347,-5.9932,-6.036,-6.1062,-6.1568,-6.1568,-6.1568,-6.1568,-6.1568,-6.1568,-6.1568,-6.1568,-6.1568,-6.1568,-6.1568,-6.1568,-6.1568,-6.1568,-6.1568,-6.1568,-6.1568,-6.1568,-6.1568,-6.1568,-6.1568,-6.1568,-6.1568,-6.1568,-6.1568,-6.1568,-6.1568,-6.1568,-6.1568,-6.1568,-6.1568,-6.1568,-6.1568,-6.1607,-6.1607,-6.1559,-6.1559,-6.1518,-6.1468,-6.1421,-6.1408,-6.1289,-6.119,-6.1164,-6.1215,-6.107,-6.0766,-6.0531,-6.0444,-6.1476,-6.1432,-6.1431,-6.1362,-6.1305,-6.1291,-6.1268,-6.1234,-6.1234,-6.1195,-6.1118,-6.1118,-6.1118,-6.1099,-6.1022,-6.1002,-6.1002,-6.1099,-6.1118,-6.1118,-6.1022,-6.0732,-6.0268,-6.0131,-5.9647,-5.876,-5.7949,-5.7101,-5.6329,-5.6252,-5.6097,-5.5866,-5.5882,-5.5935,-5.5952,-5.5994,-5.6121,-5.6123,-5.6175,-5.6251,-5.6368,-5.6417,-5.6437,-5.6347,-5.5333,-5.4749,-5.4749,-5.4749,-5.4983,-5.5528,-5.5606,-5.5879,-5.6425,-5.6503,-5.6619,-5.6853,-5.6892,-5.7243,-5.7983,-5.81,-5.849,-5.9308,-5.9932,-6.036,-6.0672,-6.1257,-6.1529,-6.1568,-6.1568,-6.1568,-6.1568,-6.1568,-6.1568,-6.1568,-6.1568,-6.1568,-6.1568,-6.1568,-6.1568,-6.1568,-6.1568,-6.1568,-6.1568,-6.1568,-6.1568,-6.1568,-6.1568,-6.1568,-6.1568,-6.1568,-6.1568,-6.1568,-6.1568,-6.1568,-6.1568,-6.1568,-6.1559,-6.1559,-6.1549,-6.1549,-6.1479,-6.1518,-6.1456,-6.1421,-6.133,-6.1259,-6.1142,-6.102,-6.0945,-6.0884,-6.0811,-6.0737,-6.0585,-6.0506,-6.0425,-6.1354,-6.1318,-6.1303,-6.1212,-6.1116,-6.1116,-6.1098,-6.1118,-6.1118,-6.1099,-6.1041,-6.106,-6.1041,-6.1022,-6.0839,-6.0795,-6.0817,-6.0962,-6.1022,-6.1022,-6.0899,-6.0795,-6.0657,-6.0517,-5.9983,-5.9139,-5.8399,-5.7555,-5.6774,-5.6759,-5.6452,-5.58,-5.5758,-5.5822,-5.5647,-5.5789,-5.5787,-5.5822,-5.5896,-5.5978,-5.6149,-5.6175,-5.6263,-5.6437,-5.629,-5.6251,-5.6338,-5.6347,-5.6308,-5.6386,-5.6425,-5.6464,-5.6464,-5.6541,-5.6892,-5.7477,-5.7672,-5.8139,-5.888,-5.8996,-5.9386,-6.0126,-6.036,-6.075,-6.1334,-6.1529,-6.1568,-6.1568,-6.1568,-6.1568,-6.1568,-6.1568,-6.1568,-6.1568,-6.1568,-6.1568,-6.1568,-6.1568,-6.1568,-6.1568,-6.1568,-6.1568,-6.1568,-6.1568,-6.1568,-6.1549,-6.1559,-6.1559,-6.1549,-6.1559,-6.1568,-6.1568,-6.1549,-6.1528,-6.1549,-6.1607,-6.1559,-6.1549,-6.1539,-6.1479,-6.1344,-6.1264,-6.1274,-6.1213,-6.1092,-6.1002,-6.0884,-6.0757,-6.075,-6.0657,-6.0533,-6.0491,-6.0464,-6.0425,-6.0398,-6.1344,-6.1244,-6.1242,-6.1173,-6.1118,-6.1118,-6.1118,-6.1118,-6.1118,-6.1022,-6.092,-6.092,-6.0856,-6.0704,-6.0608,-6.0584,-6.0608,-6.0657,-6.0681,-6.0681,-6.0633,-6.0584,-6.0584,-6.0533,-6.0048,-5.9294,-5.8949,-5.8412,-5.7723,-5.7569,-5.7416,-5.7172,-5.6621,-5.6376,-5.6337,-5.5868,-5.5626,-5.5671,-5.5671,-5.5769,-5.5891,-5.593,-5.5978,-5.6078,-5.6093,-5.6135,-5.6275,-5.6427,-5.6503,-5.6503,-5.6503,-5.6503,-5.658,-5.7009,-5.7399,-5.7711,-5.8295,-5.8996,-5.9737,-5.9893,-6.0243,-6.0945,-6.1179,-6.1295,-6.1529,-6.1568,-6.1568,-6.1568,-6.1568,-6.1568,-6.1568,-6.1568,-6.1568,-6.1568,-6.1568,-6.1568,-6.1568,-6.1568,-6.1568,-6.1568,-6.1568,-6.1568,-6.1568,-6.1568,-6.1549,-6.1445,-6.1518,-6.1549,-6.1445,-6.1518,-6.1607,-6.1568,-6.1479,-6.1383,-6.1366,-6.1352,-6.1289,-6.1317,-6.133,-6.1317,-6.1158,-6.1053,-6.1039,-6.0964,-6.0843,-6.0773,-6.0633,-6.0559,-6.0546,-6.0494,-6.0453,-6.0436,-6.0398,-6.037,-6.037,-6.122,-6.1169,-6.1169,-6.1134,-6.1079,-6.1022,-6.0982,-6.0982,-6.092,-6.0795,-6.0704,-6.0681,-6.0633,-6.0508,-6.043,-6.0376,-6.0376,-6.0321,-6.0265,-6.0293,-6.0376,-6.0376,-6.0376,-6.0293,-6.0036,-5.9578,-5.9463,-5.9081,-5.8318,-5.8214,-5.8061,-5.7679,-5.721,-5.6954,-5.6943,-5.6511,-5.6257,-5.6294,-5.6381,-5.6483,-5.6596,-5.6656,-5.6715,-5.6789,-5.6845,-5.6914,-5.7009,-5.7146,-5.697,-5.6641,-5.6775,-5.7087,-5.7399,-5.7944,-5.8334,-5.8724,-5.9191,-5.9854,-6.0633,-6.0789,-6.0984,-6.149,-6.1568,-6.1568,-6.1568,-6.1568,-6.1568,-6.1568,-6.1568,-6.1568,-6.1568,-6.1568,-6.1568,-6.1568,-6.1568,-6.1568,-6.1568,-6.1568,-6.1568,-6.1568,-6.1568,-6.1568,-6.1568,-6.1568,-6.1549,-6.1445,-6.1445,-6.1456,-6.133,-6.133,-6.1382,-6.1367,-6.1253,-6.1197,-6.1176,-6.1079,-6.0964,-6.102,-6.1074,-6.1039,-6.0945,-6.0905,-6.0843,-6.075,-6.0647,-6.0597,-6.0468,-6.048,-6.0425,-6.0398,-6.0523,-6.037,-6.037,-6.037,-6.037,-6.106,-6.1099,-6.1099,-6.1041,-6.1002,-6.0877,-6.0773,-6.075,-6.0608,-6.0533,-6.0482,-6.0482,-6.0456,-6.0403,-6.0237,-6.0179,-6.0121,-6.0038,-5.9982,-5.9975,-6.0061,-6.0179,-6.0188,-6.0038,-5.9906,-5.9836,-5.9874,-5.9495,-5.8843,-5.8805,-5.8331,-5.7825,-5.7673,-5.7491,-5.7514,-5.7514,-5.7346,-5.7291,-5.7492,-5.7607,-5.7772,-5.7881,-5.8017,-5.8143,-5.8163,-5.8124,-5.8103,-5.8157,-5.7761,-5.6923,-5.741,-5.8033,-5.8754,-5.8996,-5.9425,-6.0049,-6.0282,-6.075,-6.1373,-6.1451,-6.149,-6.1568,-6.1568,-6.1568,-6.1568,-6.1568,-6.1568,-6.1568,-6.1568,-6.1568,-6.1568,-6.1568,-6.1568,-6.1568,-6.1568,-6.1568,-6.1568,-6.1568,-6.1568,-6.1607,-6.1607,-6.1559,-6.1539,-6.1539,-6.1507,-6.1445,-6.133,-6.1289,-6.119,-6.112,-6.105,-6.1035,-6.1065,-6.0983,-6.0997,-6.0843,-6.0773,-6.0773,-6.0817,-6.0795,-6.075,-6.0704,-6.0681,-6.0546,-6.0556,-6.0464,-6.0512,-6.0561,-6.079,-6.1096,-6.0981,-6.0599,-6.0637,-6.0943,-6.1019,-6.0899,-6.0839,-6.0727,-6.0657,-6.0657,-6.0608,-6.0584,-6.0584,-6.0533,-6.0403,-6.0293,-6.0265,-6.0217,-6.0068,-6.0007,-5.9944,-5.9982,-5.9918,-5.9885,-5.9885,-5.995,-5.9982,-5.9982,-5.995,-5.9885,-5.9885,-5.9885,-5.9772,-5.9582,-5.9506,-5.9393,-5.9203,-5.8597,-5.8331,-5.8325,-5.7794,-5.7453,-5.7415,-5.7484,-5.7604,-5.7777,-5.7794,-5.7837,-5.7991,-5.8117,-5.815,-5.8192,-5.8317,-5.8294,-5.7986,-5.822,-5.8506,-5.8907,-5.9532,-6.003,-6.0302,-6.0896,-6.1295,-6.1481,-6.1559,-6.1559,-6.1568,-6.1549,-6.1568,-6.1568,-6.1568,-6.1568,-6.1568,-6.1568,-6.1559,-6.1568,-6.1607,-6.1607,-6.1568,-6.1549,-6.1559,-6.1568,-6.1568,-6.1568,-6.1559,-6.1456,-6.1408,-6.1344,-6.1274,-6.1142,-6.1057,-6.1039,-6.1039,-6.0983,-6.0964,-6.0886,-6.0906,-6.0905,-6.0819,-6.0738,-6.0635,-6.0559,-6.0506,-6.0533,-6.0635,-6.0571,-6.0494,-6.0468,-6.0398,-6.0655,-6.0665,-6.079,-6.0943,-6.1325,-6.1784,-6.1631,-6.1402,-6.1975,-6.2319,-6.2242,-6.0681,-6.0657,-6.0559,-6.0508,-6.0482,-6.0403,-6.0376,-6.0349,-6.0265,-6.0217,-6.0099,-6.0068,-6.0007,-5.9918,-5.9885,-5.9885,-5.9885,-5.9885,-5.9885,-5.9885,-5.9918,-5.9918,-5.9885,-5.9885,-5.9885,-5.9885,-5.9885,-5.9885,-5.9885,-5.9885,-5.9885,-5.9772,-5.943,-5.9203,-5.9165,-5.8748,-5.8445,-5.8483,-5.8477,-5.8539,-5.8593,-5.8623,-5.872,-5.8806,-5.8901,-5.8972,-5.9076,-5.9196,-5.916,-5.9012,-5.9077,-5.9281,-5.9685,-6.0226,-6.0592,-6.0592,-6.1097,-6.133,-6.1344,-6.1344,-6.1344,-6.133,-6.1344,-6.1344,-6.133,-6.1344,-6.1344,-6.133,-6.1344,-6.1408,-6.1456,-6.1456,-6.1433,-6.133,-6.133,-6.1421,-6.1549,-6.1489,-6.1468,-6.1433,-6.1303,-6.1158,-6.1197,-6.1057,-6.0964,-6.0864,-6.0864,-6.0822,-6.0773,-6.0795,-6.0834,-6.085,-6.0881,-6.0853,-6.1065,-6.1103,-6.1371,-6.1239,-6.1172,-6.1067,-6.0752,-6.0676,-6.0752,-6.0828,-6.0867,-6.1058,-6.1478,-6.1784,-6.2051,-6.2319,-6.2204,-6.2357,-6.2786,-6.3214,-6.3176,-6.0482,-6.0482,-6.0456,-6.043,-6.0376,-6.0237,-6.015,-6.0159,-6.0007,-5.9918,-5.9918,-5.9918,-5.9918,-5.9885,-5.9885,-5.9885,-5.9885,-5.9885,-5.9885,-5.9885,-5.9885,-5.9885,-5.9885,-5.9885,-5.9885,-5.9885,-5.9885,-5.9885,-5.9885,-5.9885,-5.9885,-5.9885,-5.9847,-5.9847,-5.9734,-5.9734,-5.9847,-5.9728,-5.9646,-5.9709,-5.9703,-5.9764,-5.9786,-5.9883,-5.9989,-6.0046,-6.0168,-6.0261,-6.015,-5.9785,-5.9785,-6.0152,-6.0771,-6.0944,-6.0982,-6.0961,-6.1018,-6.1057,-6.102,-6.1057,-6.102,-6.1057,-6.1039,-6.1002,-6.1039,-6.1057,-6.1074,-6.1074,-6.1002,-6.1126,-6.1244,-6.1289,-6.119,-6.1109,-6.1039,-6.1174,-6.1408,-6.1357,-6.1289,-6.1274,-6.1131,-6.1099,-6.108,-6.1099,-6.1175,-6.1589,-6.1473,-6.1363,-6.1211,-6.1173,-6.1045,-6.0878,-6.0901,-6.0895,-6.1287,-6.164,-6.2089,-6.2328,-6.226,-6.204,-6.1411,-6.1258,-6.1363,-6.144,-6.164,-6.2099,-6.2739,-6.2968,-6.293,-6.313,-6.3214,-6.3176,-6.3253,-6.3612,-6.3802,-6.0265,-6.0237,-6.0099,-6.0007,-6.0045,-5.9944,-5.9944,-5.9982,-5.9918,-5.9885,-5.9885,-5.9885,-5.9885,-5.9885,-5.9885,-5.9885,-5.9885,-5.9885,-5.9885,-5.9885,-5.9885,-5.9885,-5.9885,-5.9885,-5.9885,-5.9885,-5.9885,-5.9885,-5.9885,-5.9885,-5.9885,-5.9885,-5.9885,-5.9885,-5.9885,-5.9885,-5.9885,-5.9885,-5.9918,-5.9982,-6.0038,-6.0068,-6.0129,-6.0285,-6.0313,-6.038,-6.037,-6.037,-6.0376,-6.0316,-6.0373,-6.0503,-6.074,-6.0884,-6.0945,-6.0945,-6.0964,-6.0983,-6.0983,-6.0964,-6.0983,-6.0964,-6.0945,-6.1002,-6.1002,-6.0964,-6.0983,-6.1002,-6.1002,-6.0983,-6.1039,-6.1057,-6.102,-6.0964,-6.1041,-6.1079,-6.1092,-6.1131,-6.1134,-6.1175,-6.1502,-6.1736,-6.1713,-6.1735,-6.1914,-6.2284,-6.2257,-6.206,-6.184,-6.1649,-6.1506,-6.1363,-6.1402,-6.1535,-6.201,-6.2506,-6.3032,-6.3337,-6.3307,-6.3238,-6.2544,-6.2231,-6.2459,-6.2498,-6.2527,-6.31,-6.3703,-6.3512,-6.3359,-6.3787,-6.4215,-6.4146,-6.4146,-6.435,-6.4318,-6.0068,-6.0038,-5.995,-5.9885,-5.9885,-5.9885,-5.9885,-5.9885,-5.9885,-5.9885,-5.9885,-5.9885,-5.9885,-5.9885,-5.9885,-5.9885,-5.9885,-5.9885,-5.9885,-5.9885,-5.9885,-5.9885,-5.9885,-5.9885,-5.9885,-5.9885,-5.9885,-5.9885,-5.9885,-5.9885,-5.9885,-5.9885,-5.9885,-5.9885,-5.9885,-5.9885,-5.9885,-5.9885,-5.9885,-5.995,-6.0013,-6.0013,-6.0076,-6.0197,-6.0256,-6.0285,-6.0352,-6.0408,-6.0408,-6.0425,-6.0533,-6.0572,-6.0572,-6.0657,-6.0727,-6.0727,-6.0727,-6.0727,-6.0727,-6.0727,-6.0704,-6.0712,-6.0727,-6.0727,-6.0727,-6.0727,-6.0727,-6.0727,-6.0727,-6.0727,-6.0727,-6.0822,-6.08,-6.0827,-6.1112,-6.1266,-6.1328,-6.1357,-6.1422,-6.1533,-6.2026,-6.2286,-6.2383,-6.2424,-6.2462,-6.271,-6.3121,-6.2949,-6.25,-6.2319,-6.228,-6.2175,-6.2146,-6.2383,-6.2864,-6.3366,-6.4038,-6.4267,-6.4311,-6.4273,-6.4007,-6.3816,-6.3778,-6.3619,-6.3413,-6.3871,-6.436,-6.4054,-6.3986,-6.4419,-6.4769,-6.4889,-6.4889,-6.4709,-6.4747,-5.9885,-5.9885,-5.9885,-5.9885,-5.9885,-5.9885,-5.9885,-5.9885,-5.9885,-5.9885,-5.9885,-5.9885,-5.9885,-5.9885,-5.9885,-5.9885,-5.9885,-5.9885,-5.9885,-5.9885,-5.9885,-5.9885,-5.9885,-5.9885,-5.9885,-5.9885,-5.9885,-5.9885,-5.9885,-5.9885,-5.9885,-5.9885,-5.9885,-5.9885,-5.9885,-5.9885,-5.9885,-5.9885,-5.9885,-5.9918,-5.995,-5.995,-5.9982,-6.0076,-6.0099,-6.0167,-6.0264,-6.0323,-6.0342,-6.0408,-6.0408,-6.0408,-6.037,-6.037,-6.037,-6.0436,-6.0453,-6.048,-6.048,-6.0453,-6.0425,-6.037,-6.0398,-6.0398,-6.0425,-6.0453,-6.048,-6.0453,-6.0453,-6.0453,-6.0398,-6.0776,-6.0802,-6.0862,-6.1353,-6.1745,-6.184,-6.2042,-6.226,-6.2145,-6.2694,-6.3121,-6.3141,-6.3159,-6.3159,-6.3197,-6.3618,-6.377,-6.3388,-6.3053,-6.2994,-6.2963,-6.2963,-6.3276,-6.3823,-6.3911,-6.459,-6.4704,-6.4862,-6.4862,-6.49,-6.4671,-6.44,-6.4381,-6.4405,-6.4718,-6.487,-6.4794,-6.4845,-6.5194,-6.5128,-6.5014,-6.5019,-6.5023,-6.5027,-5.9885,-5.9885,-5.9885,-5.9885,-5.9885,-5.9885,-5.9885,-5.9885,-5.9885,-5.9885,-5.9885,-5.9885,-5.9885,-5.9885,-5.9885,-5.9885,-5.9885,-5.9885,-5.9885,-5.9885,-5.9885,-5.9885,-5.982,-5.982,-5.9853,-5.9885,-5.9853,-5.982,-5.9885,-5.9885,-5.9885,-5.9885,-5.9885,-5.9885,-5.9885,-5.9885,-5.9885,-5.9885,-5.9885,-5.9918,-5.995,-5.9944,-5.9975,-6.0038,-6.0068,-6.0099,-6.0137,-6.0167,-6.0197,-6.0294,-6.0294,-6.0352,-6.0408,-6.037,-6.037,-6.037,-6.037,-6.037,-6.037,-6.037,-6.037,-6.037,-6.037,-6.037,-6.037,-6.0408,-6.0446,-6.0485,-6.0485,-6.0446,-6.0408,-6.1103,-6.1381,-6.1593,-6.2089,-6.2662,-6.2806,-6.3207,-6.3427,-6.3121,-6.3561,-6.3962,-6.4,-6.4046,-6.4161,-6.4207,-6.4367,-6.4596,-6.4444,-6.4038,-6.374,-6.3708,-6.3708,-6.4242,-6.478,-6.4714,-6.4871,-6.4837,-6.4913,-6.4913,-6.4951,-6.4951,-6.4904,-6.4742,-6.4775,-6.4932,-6.5085,-6.5232,-6.5128,-6.5061,-6.5061,-6.5027,-6.4993,-6.4958,-6.4958,-5.9885,-5.9885,-5.9885,-5.9885,-5.9885,-5.9885,-5.9885,-5.9885,-5.9885,-5.9885,-5.9885,-5.9885,-5.9885,-5.9885,-5.9885,-5.9885,-5.9885,-5.9885,-5.9885,-5.9885,-5.9885,-5.9715,-5.9575,-5.954,-5.9399,-5.929,-5.9253,-5.9543,-5.9853,-5.9885,-5.9853,-5.9885,-5.9885,-5.9885,-5.9885,-5.9885,-5.9885,-5.9885,-5.9885,-5.9918,-5.995,-5.9912,-5.9944,-5.9975,-6.0038,-6.0099,-6.0099,-6.0226,-6.0285,-6.0352,-6.0352,-6.038,-6.037,-6.037,-6.037,-6.037,-6.037,-6.037,-6.037,-6.037,-6.037,-6.037,-6.037,-6.037,-6.037,-6.0408,-6.0599,-6.0905,-6.1058,-6.1211,-6.1707,-6.2051,-6.2242,-6.2433,-6.3045,-6.3503,-6.3762,-6.4344,-6.4305,-6.4084,-6.4496,-6.4764,-6.484,-6.4963,-6.5199,-6.5283,-6.522,-6.522,-6.5226,-6.4851,-6.4329,-6.4334,-6.4263,-6.4529,-6.4985,-6.4951,-6.4955,-6.4958,-6.4958,-6.4924,-6.4924,-6.4958,-6.4958,-6.4917,-6.5027,-6.5061,-6.5061,-6.5095,-6.5027,-6.4993,-6.4958,-6.4958,-6.4961,-6.4926,-6.4926,-5.9885,-5.9885,-5.9885,-5.9885,-5.9885,-5.9885,-5.9885,-5.9885,-5.9885,-5.9885,-5.9885,-5.9885,-5.9885,-5.9885,-5.9885,-5.9853,-5.9786,-5.9748,-5.9681,-5.9578,-5.9578,-5.9399,-5.9178,-5.9065,-5.8949,-5.8791,-5.871,-5.8949,-5.9399,-5.9543,-5.9613,-5.9543,-5.9613,-5.9715,-5.9681,-5.9681,-5.9748,-5.9885,-5.9885,-5.9885,-5.9885,-5.9885,-5.9885,-5.9885,-6.0013,-6.0038,-6.0038,-6.0167,-6.0226,-6.0256,-6.0285,-6.0313,-6.0313,-6.0342,-6.0342,-6.0342,-6.0408,-6.037,-6.037,-6.037,-6.037,-6.037,-6.037,-6.037,-6.0485,-6.0676,-6.0991,-6.1669,-6.1869,-6.206,-6.2586,-6.3045,-6.3121,-6.3312,-6.3885,-6.4458,-6.4573,-6.4879,-6.5085,-6.5123,-6.5383,-6.5345,-6.5199,-6.5161,-6.5245,-6.5188,-6.5155,-6.5123,-6.509,-6.5095,-6.4799,-6.4803,-6.4807,-6.4772,-6.4924,-6.4958,-6.4924,-6.4924,-6.4924,-6.4888,-6.4926,-6.4926,-6.4926,-6.4961,-6.4996,-6.5027,-6.5027,-6.4993,-6.4958,-6.4924,-6.4926,-6.4926,-6.4888,-6.4853,-6.4779,-5.9885,-5.9885,-5.9885,-5.9885,-5.9885,-5.9885,-5.9885,-5.9885,-5.9885,-5.9885,-5.9885,-5.9885,-5.9885,-5.9853,-5.9853,-5.9647,-5.9399,-5.9252,-5.914,-5.8949,-5.891,-5.8831,-5.8632,-5.8669,-5.8549,-5.8418,-5.8461,-5.8628,-5.8791,-5.8791,-5.8831,-5.891,-5.8988,-5.8988,-5.947,-5.9505,-5.9505,-5.9853,-5.9885,-5.9885,-5.9885,-5.9885,-5.9885,-5.9918,-5.9918,-5.995,-5.9982,-6.0013,-6.0045,-6.0106,-6.0038,-6.0068,-6.0099,-6.0167,-6.0129,-6.0159,-6.0285,-6.037,-6.037,-6.0342,-6.0342,-6.038,-6.0418,-6.0408,-6.0724,-6.1191,-6.1764,-6.2662,-6.2718,-6.2833,-6.3244,-6.3656,-6.3923,-6.4229,-6.4619,-6.5001,-6.5222,-6.5009,-6.5283,-6.5296,-6.5334,-6.5328,-6.5252,-6.5182,-6.5182,-6.5155,-6.509,-6.5023,-6.4989,-6.4993,-6.5031,-6.4958,-6.4924,-6.4926,-6.4926,-6.4926,-6.4781,-6.4817,-6.4781,-6.4781,-6.4781,-6.4745,-6.4853,-6.4888,-6.4924,-6.4924,-6.4817,-6.4817,-6.4853,-6.4853,-6.4817,-6.4817,-6.4888,-6.4779,-6.4558,-5.9885,-5.9885,-5.9885,-5.9885,-5.9885,-5.9885,-5.9885,-5.9885,-5.9885,-5.9885,-5.9885,-5.9885,-5.9748,-5.954,-5.9505,-5.9252,-5.8912,-5.887,-5.8791,-5.8586,-5.8545,-5.8461,-5.8245,-5.8157,-5.8113,-5.7886,-5.7794,-5.7784,-5.7932,-5.8375,-5.8669,-5.8833,-5.8949,-5.9215,-5.9434,-5.954,-5.9715,-5.9853,-5.9885,-5.9885,-5.9885,-5.9885,-5.9885,-5.9885,-5.9918,-5.995,-5.995,-6.0013,-6.0045,-6.0038,-6.0038,-6.0068,-6.0099,-6.0099,-6.0099,-6.0099,-6.0159,-6.0226,-6.0226,-6.0256,-6.0294,-6.0446,-6.0713,-6.1179,-6.159,-6.204,-6.2612,-6.3413,-6.3558,-6.3749,-6.4062,-6.4589,-6.4711,-6.4908,-6.5061,-6.5161,-6.5314,-6.5321,-6.5296,-6.527,-6.5275,-6.5199,-6.5194,-6.5194,-6.5123,-6.5057,-6.5027,-6.4993,-6.4958,-6.4924,-6.4961,-6.4926,-6.4926,-6.4926,-6.4926,-6.4926,-6.4633,-6.4558,-6.4406,-6.4406,-6.4482,-6.4521,-6.4558,-6.4743,-6.4853,-6.4781,-6.4596,-6.467,-6.4781,-6.4707,-6.467,-6.4596,-6.4445,-6.4094,-6.385,-5.9885,-5.9885,-5.9885,-5.9885,-5.9885,-5.9885,-5.9885,-5.9885,-5.9885,-5.9853,-5.9715,-5.9613,-5.9363,-5.914,-5.9026,-5.8793,-5.8461,-5.8418,-5.8332,-5.8289,-5.8201,-5.8023,-5.7831,-5.769,-5.7546,-5.7188,-5.7338,-5.7338,-5.7498,-5.7794,-5.8332,-5.8713,-5.8424,-5.8912,-5.9399,-5.947,-5.9505,-5.9885,-5.9885,-5.9885,-5.9885,-5.9885,-5.9885,-5.9918,-5.995,-5.9944,-5.9982,-5.9975,-6.0007,-6.0007,-6.0045,-6.0045,-6.0007,-6.0007,-6.0007,-6.0121,-6.0342,-6.057,-6.0563,-6.0525,-6.0441,-6.0708,-6.1202,-6.2033,-6.2725,-6.3085,-6.349,-6.4229,-6.4305,-6.4686,-6.5099,-6.522,-6.5112,-6.5112,-6.5155,-6.5182,-6.5175,-6.5188,-6.5194,-6.5161,-6.5128,-6.5099,-6.5095,-6.5128,-6.5095,-6.4993,-6.4924,-6.4926,-6.4817,-6.4781,-6.467,-6.4596,-6.4406,-6.4406,-6.4406,-6.4406,-6.4251,-6.4249,-6.4091,-6.4091,-6.4134,-6.4053,-6.4053,-6.4291,-6.4558,-6.4367,-6.4012,-6.4367,-6.467,-6.433,-6.4053,-6.405,-6.3846,-6.3505,-6.328,-5.9885,-5.9885,-5.9885,-5.9885,-5.9885,-5.9885,-5.9885,-5.9885,-5.9885,-5.9609,-5.9215,-5.891,-5.875,-5.8628,-5.8586,-5.8375,-5.7932,-5.7969,-5.7784,-5.7498,-5.7252,-5.7351,-5.7338,-5.7338,-5.7289,-5.7188,-5.7188,-5.7188,-5.7188,-5.7338,-5.7449,-5.7351,-5.7794,-5.8113,-5.8545,-5.8949,-5.9215,-5.9578,-5.9681,-5.9786,-5.982,-5.9853,-5.9853,-5.9885,-5.9885,-5.9918,-5.9918,-5.9918,-5.995,-5.995,-5.995,-5.995,-5.995,-5.995,-5.995,-6.0253,-6.0785,-6.105,-6.1121,-6.1223,-6.1286,-6.1545,-6.2078,-6.2883,-6.365,-6.3731,-6.4182,-6.4818,-6.4818,-6.4932,-6.5123,-6.5199,-6.5199,-6.5166,-6.5133,-6.5128,-6.5123,-6.5052,-6.5057,-6.5014,-6.5019,-6.4989,-6.4886,-6.4886,-6.4993,-6.4924,-6.4707,-6.4633,-6.4483,-6.4406,-6.4289,-6.4131,-6.3803,-6.3637,-6.3593,-6.3593,-6.3803,-6.3798,-6.3668,-6.3723,-6.3855,-6.3729,-6.355,-6.368,-6.3892,-6.3637,-6.3505,-6.3803,-6.3888,-6.3637,-6.3461,-6.3453,-6.3354,-6.3062,-6.2917,-5.9715,-5.9505,-5.9748,-5.9885,-5.9885,-5.9885,-5.9885,-5.9853,-5.9575,-5.9215,-5.8831,-5.8669,-5.8418,-5.8245,-5.8157,-5.7886,-5.7498,-5.7449,-5.7338,-5.7289,-5.7188,-5.7188,-5.7188,-5.7188,-5.7188,-5.7188,-5.7188,-5.7188,-5.7188,-5.7188,-5.7188,-5.7239,-5.7401,-5.7978,-5.8418,-5.8586,-5.8831,-5.8988,-5.914,-5.9178,-5.947,-5.9505,-5.9575,-5.9885,-5.9885,-5.9885,-5.9885,-5.9885,-5.9885,-5.9885,-5.9885,-5.9885,-5.9961,-5.9923,-6.0189,-6.0568,-6.1245,-6.1591,-6.1894,-6.2037,-6.2222,-6.2753,-6.3166,-6.3655,-6.4381,-6.4567,-6.4714,-6.5019,-6.5095,-6.5095,-6.5061,-6.5095,-6.5061,-6.5027,-6.5031,-6.5065,-6.4958,-6.4886,-6.4779,-6.4669,-6.4848,-6.4955,-6.4815,-6.467,-6.4743,-6.4817,-6.4596,-6.4367,-6.4172,-6.393,-6.3803,-6.3674,-6.3325,-6.3234,-6.3187,-6.328,-6.3408,-6.3354,-6.3215,-6.328,-6.3342,-6.315,-6.3047,-6.3187,-6.3243,-6.3187,-6.3141,-6.3187,-6.3187,-6.3141,-6.2999,-6.2843,-6.2755,-6.2662,-6.2537,-5.9505,-5.9252,-5.954,-5.9681,-5.9681,-5.9681,-5.9613,-5.947,-5.9178,-5.8791,-5.8375,-5.8245,-5.8023,-5.7784,-5.769,-5.7546,-5.7289,-5.7239,-5.7188,-5.7188,-5.7188,-5.7188,-5.7188,-5.7188,-5.7188,-5.7188,-5.7188,-5.7188,-5.7188,-5.7188,-5.7188,-5.7289,-5.7498,-5.7886,-5.8289,-5.8545,-5.8586,-5.8586,-5.8628,-5.871,-5.9026,-5.9065,-5.9103,-5.9434,-5.9434,-5.9434,-5.947,-5.9505,-5.9647,-5.9715,-5.9748,-5.9885,-5.9999,-6.0226,-6.0605,-6.1136,-6.1852,-6.2349,-6.2614,-6.2842,-6.3145,-6.3786,-6.401,-6.4389,-6.4807,-6.5027,-6.4989,-6.4955,-6.5027,-6.5061,-6.492,-6.4993,-6.4958,-6.4961,-6.4961,-6.4961,-6.4708,-6.4596,-6.4443,-6.4324,-6.4444,-6.4407,-6.4292,-6.4053,-6.4094,-6.4172,-6.4053,-6.3888,-6.3723,-6.3505,-6.3234,-6.3131,-6.2988,-6.294,-6.294,-6.2843,-6.2781,-6.3051,-6.2953,-6.2745,-6.2708,-6.2595,-6.253,-6.2631,-6.2695,-6.2745,-6.2695,-6.2682,-6.2745,-6.2843,-6.2682,-6.2464,-6.2397,-6.2311,-6.2204,-5.9215,-5.9215,-5.9215,-5.9215,-5.9178,-5.9215,-5.9026,-5.8791,-5.8628,-5.8332,-5.7923,-5.7546,-5.7338,-5.7289,-5.7338,-5.7289,-5.7239,-5.7188,-5.7188,-5.7188,-5.7188,-5.7188,-5.7188,-5.7188,-5.7188,-5.7188,-5.7188,-5.7188,-5.7188,-5.7188,-5.7188,-5.7188,-5.7338,-5.7498,-5.7932,-5.8375,-5.8545,-5.8545,-5.8503,-5.8503,-5.8586,-5.8628,-5.8669,-5.891,-5.8949,-5.8988,-5.9178,-5.9399,-5.9505,-5.954,-5.9748,-5.9923,-6.0113,-6.0866,-6.1283,-6.1439,-6.3369,-6.4013,-6.3641,-6.3565,-6.3944,-6.4512,-6.462,-6.4701,-6.4815,-6.4888,-6.4743,-6.4595,-6.4707,-6.4743,-6.4817,-6.4817,-6.4707,-6.4708,-6.4671,-6.4785,-6.459,-6.4769,-6.4716,-6.4406,-6.3817,-6.3461,-6.3461,-6.3416,-6.3416,-6.3416,-6.3379,-6.3334,-6.3187,-6.2999,-6.2745,-6.2645,-6.253,-6.2479,-6.2464,-6.2238,-6.2222,-6.2522,-6.2625,-6.2464,-6.2324,-6.2308,-6.2291,-6.2222,-6.2238,-6.236,-6.2238,-6.206,-6.2291,-6.2464,-6.2291,-6.2114,-6.2005,-6.2186,-6.244,-5.8591,-5.8375,-5.8669,-5.8591,-5.8381,-5.8673,-5.871,-5.8545,-5.8245,-5.7877,-5.7449,-5.7239,-5.7188,-5.7188,-5.7188,-5.7188,-5.7188,-5.7188,-5.7188,-5.7188,-5.7188,-5.7188,-5.7188,-5.7188,-5.7188,-5.7188,-5.7188,-5.7188,-5.7188,-5.7188,-5.7188,-5.7188,-5.7188,-5.7289,-5.7401,-5.7642,-5.7653,-5.769,-5.7653,-5.7794,-5.8068,-5.8157,-5.8338,-5.8833,-5.8833,-5.8949,-5.9178,-5.9326,-5.9547,-5.9547,-5.9832,-6.0127,-6.0501,-6.1258,-6.1747,-6.2315,-6.3979,-6.4026,-6.3955,-6.403,-6.4256,-6.4669,-6.4817,-6.467,-6.4521,-6.4482,-6.4251,-6.4053,-6.4053,-6.4012,-6.385,-6.3888,-6.3883,-6.3995,-6.4102,-6.455,-6.4681,-6.5121,-6.5254,-6.4733,-6.4188,-6.3574,-6.3331,-6.3419,-6.3407,-6.3248,-6.3284,-6.2842,-6.2618,-6.2464,-6.2238,-6.2238,-6.2132,-6.2114,-6.2041,-6.2041,-6.2041,-6.2258,-6.2311,-6.2168,-6.2114,-6.2114,-6.2114,-6.2114,-6.206,-6.2041,-6.2041,-6.2041,-6.2041,-6.2005,-6.2041,-6.2114,-6.2223,-6.2785,-6.3493,-5.8157,-5.7969,-5.8201,-5.8068,-5.7747,-5.8157,-5.8289,-5.8068,-5.7784,-5.7449,-5.7239,-5.7188,-5.7188,-5.7188,-5.7188,-5.7188,-5.7188,-5.7188,-5.7188,-5.7188,-5.7188,-5.7188,-5.7188,-5.7188,-5.7188,-5.7188,-5.7188,-5.7188,-5.7188,-5.7188,-5.7188,-5.7188,-5.7188,-5.7188,-5.7239,-5.7289,-5.7289,-5.7338,-5.7351,-5.7401,-5.7594,-5.7737,-5.7886,-5.8252,-5.8424,-5.8549,-5.8947,-5.9328,-5.9666,-5.974,-6.0077,-6.0489,-6.0979,-6.1506,-6.1996,-6.2862,-6.3464,-6.3608,-6.3784,-6.385,-6.3978,-6.4251,-6.4368,-6.4251,-6.3971,-6.393,-6.3803,-6.355,-6.3371,-6.3557,-6.3705,-6.3668,-6.3882,-6.403,-6.4438,-6.4884,-6.4879,-6.5349,-6.5324,-6.4845,-6.4451,-6.3833,-6.346,-6.3503,-6.358,-6.3381,-6.3165,-6.2676,-6.2205,-6.2169,-6.2114,-6.2114,-6.2041,-6.2005,-6.2041,-6.2041,-6.2041,-6.2041,-6.2041,-6.2041,-6.2041,-6.206,-6.2041,-6.2041,-6.2041,-6.2041,-6.2041,-6.2041,-6.2078,-6.2023,-6.2023,-6.2131,-6.2367,-6.3256,-6.4255,-5.7877,-5.7877,-5.784,-5.7642,-5.7338,-5.7737,-5.7642,-5.7239,-5.7239,-5.7188,-5.7188,-5.7188,-5.7188,-5.7188,-5.7188,-5.7188,-5.7188,-5.7188,-5.7188,-5.7188,-5.7188,-5.7188,-5.7188,-5.7188,-5.7188,-5.7188,-5.7188,-5.7188,-5.7188,-5.7188,-5.7188,-5.7188,-5.7188,-5.7188,-5.7188,-5.7188,-5.7188,-5.7188,-5.7188,-5.7239,-5.7338,-5.7338,-5.7449,-5.7653,-5.7747,-5.7904,-5.8309,-5.8821,-5.9272,-5.9693,-6.0307,-6.0809,-6.1298,-6.1819,-6.2079,-6.245,-6.3133,-6.3356,-6.3379,-6.3416,-6.3325,-6.3371,-6.3371,-6.3334,-6.3416,-6.3371,-6.3234,-6.3252,-6.3231,-6.377,-6.4197,-6.4409,-6.4657,-6.499,-6.5397,-6.5422,-6.5191,-6.5181,-6.5094,-6.4803,-6.4549,-6.4165,-6.4111,-6.4073,-6.4039,-6.3875,-6.3693,-6.3166,-6.2785,-6.2367,-6.2367,-6.2331,-6.2223,-6.2041,-6.2041,-6.2041,-6.2041,-6.2041,-6.2041,-6.2041,-6.2041,-6.2041,-6.2041,-6.2041,-6.2041,-6.2041,-6.2041,-6.2114,-6.2223,-6.2168,-6.2185,-6.2385,-6.2638,-6.4017,-6.5,-5.7401,-5.7437,-5.7437,-5.7338,-5.7239,-5.7338,-5.7338,-5.7188,-5.7188,-5.7188,-5.7188,-5.7188,-5.7188,-5.7188,-5.7188,-5.7188,-5.7188,-5.7188,-5.7188,-5.7188,-5.7188,-5.7188,-5.7188,-5.7188,-5.7188,-5.7188,-5.7188,-5.7188,-5.7188,-5.7188,-5.7188,-5.7188,-5.7188,-5.7188,-5.7188,-5.7188,-5.7188,-5.7188,-5.7188,-5.7188,-5.7224,-5.7261,-5.7411,-5.7607,-5.7765,-5.8092,-5.8851,-5.9246,-5.9788,-6.0478,-6.0752,-6.1181,-6.1886,-6.2109,-6.2339,-6.3007,-6.3305,-6.3325,-6.2999,-6.2903,-6.2794,-6.2581,-6.2479,-6.2645,-6.2745,-6.2855,-6.2794,-6.2915,-6.3145,-6.3672,-6.4222,-6.4537,-6.4867,-6.527,-6.5673,-6.5786,-6.5624,-6.5786,-6.5654,-6.54,-6.5048,-6.483,-6.4758,-6.4649,-6.4617,-6.4489,-6.4251,-6.3852,-6.3309,-6.2947,-6.2476,-6.2404,-6.2259,-6.2041,-6.2041,-6.2041,-6.2041,-6.2041,-6.2114,-6.2223,-6.2295,-6.2295,-6.2114,-6.2186,-6.2476,-6.2295,-6.2041,-6.2295,-6.2838,-6.2602,-6.2618,-6.2727,-6.3145,-6.4597,-6.5561,-5.7188,-5.7188,-5.7188,-5.7188,-5.7188,-5.7188,-5.7188,-5.7188,-5.7188,-5.7188,-5.7188,-5.7188,-5.7188,-5.7188,-5.7188,-5.7188,-5.7188,-5.7188,-5.7188,-5.7188,-5.7188,-5.7188,-5.7188,-5.7188,-5.7188,-5.7188,-5.7188,-5.7188,-5.7188,-5.7188,-5.7188,-5.7188,-5.7188,-5.7188,-5.7188,-5.7188,-5.7188,-5.7188,-5.7188,-5.7188,-5.7297,-5.7514,-5.7873,-5.8093,-5.8336,-5.904,-5.9632,-5.9946,-6.0451,-6.1003,-6.1066,-6.1544,-6.2059,-6.2132,-6.2169,-6.272,-6.2708,-6.2682,-6.2427,-6.2427,-6.2291,-6.2114,-6.2041,-6.2132,-6.2308,-6.2376,-6.251,-6.2694,-6.3021,-6.3474,-6.4054,-6.4577,-6.5032,-6.5431,-6.5757,-6.612,-6.6279,-6.6496,-6.6351,-6.6098,-6.5844,-6.5591,-6.541,-6.5301,-6.5374,-6.5555,-6.5482,-6.5156,-6.4323,-6.349,-6.2802,-6.2331,-6.2186,-6.2041,-6.2041,-6.2041,-6.2078,-6.2223,-6.2512,-6.2621,-6.2657,-6.2947,-6.3128,-6.3128,-6.3092,-6.2983,-6.2875,-6.3237,-6.3635,-6.3434,-6.3414,-6.3775,-6.4339,-6.5395,-6.6105,-5.7188,-5.7188,-5.7188,-5.7188,-5.7188,-5.7188,-5.7188,-5.7188,-5.7188,-5.7188,-5.7188,-5.7188,-5.7188,-5.7188,-5.7188,-5.7188,-5.7188,-5.7188,-5.7188,-5.7188,-5.7188,-5.7188,-5.7188,-5.7188,-5.7188,-5.7188,-5.7188,-5.7188,-5.7188,-5.7188,-5.7188,-5.7188,-5.7188,-5.7188,-5.7188,-5.7188,-5.7297,-5.755,-5.7514,-5.7514,-5.7659,-5.7985,-5.8528,-5.8652,-5.9087,-5.9683,-5.9885,-6.032,-6.0846,-6.1136,-6.148,-6.1933,-6.1969,-6.2023,-6.2041,-6.2132,-6.2238,-6.2185,-6.2132,-6.2132,-6.2114,-6.2005,-6.2041,-6.2205,-6.2295,-6.2458,-6.264,-6.3075,-6.3454,-6.4178,-6.483,-6.5374,-6.5808,-6.6062,-6.6315,-6.6496,-6.6569,-6.6714,-6.6641,-6.646,-6.6388,-6.617,-6.617,-6.6098,-6.6025,-6.646,-6.646,-6.6134,-6.5301,-6.4178,-6.3345,-6.2549,-6.2186,-6.2041,-6.2041,-6.2078,-6.2186,-6.2367,-6.2802,-6.3437,-6.38,-6.409,-6.4323,-6.4033,-6.3708,-6.3997,-6.4106,-6.4323,-6.4468,-6.4504,-6.4592,-6.499,-6.5627,-6.6265,-6.6446,-5.7188,-5.7188,-5.7188,-5.7188,-5.7188,-5.7188,-5.7188,-5.7188,-5.7188,-5.7188,-5.7188,-5.7188,-5.7188,-5.7188,-5.7188,-5.7188,-5.7188,-5.7188,-5.7188,-5.7188,-5.7188,-5.7188,-5.7188,-5.7188,-5.7188,-5.7188,-5.7188,-5.7188,-5.7188,-5.7188,-5.7188,-5.7188,-5.7188,-5.7188,-5.7188,-5.7188,-5.7406,-5.7913,-5.8094,-5.8166,-5.8347,-5.8854,-5.9361,-5.9361,-5.9687,-6.0086,-6.0375,-6.0665,-6.1245,-6.1679,-6.186,-6.2005,-6.2005,-6.2041,-6.2041,-6.2041,-6.2041,-6.2041,-6.2041,-6.2041,-6.2041,-6.2041,-6.2114,-6.244,-6.2657,-6.2802,-6.3128,-6.3563,-6.4106,-6.4903,-6.5627,-6.6134,-6.6533,-6.6677,-6.6822,-6.6822,-6.6822,-6.6822,-6.6822,-6.6822,-6.6822,-6.6822,-6.6822,-6.6822,-6.6822,-6.6786,-6.675,-6.6424,-6.5663,-6.4685,-6.3961,-6.3128,-6.2295,-6.2078,-6.2041,-6.2259,-6.244,-6.2838,-6.3309,-6.4054,-6.4871,-6.4924,-6.4939,-6.4541,-6.4323,-6.4685,-6.4975,-6.5084,-6.5192,-6.5337,-6.5555,-6.5822,-6.6039,-6.6627,-6.6677,-5.7188,-5.7188,-5.7188,-5.7188,-5.7188,-5.7188,-5.7188,-5.7188,-5.7188,-5.7188,-5.7188,-5.7188,-5.7188,-5.7188,-5.7188,-5.7188,-5.7188,-5.7188,-5.7188,-5.7188,-5.7188,-5.7188,-5.7188,-5.7188,-5.7188,-5.7188,-5.7188,-5.7188,-5.7188,-5.7188,-5.7188,-5.7188,-5.7188,-5.7188,-5.7188,-5.7261,-5.7659,-5.8347,-5.8746,-5.9072,-5.9325,-5.9868,-6.0158,-6.0158,-6.052,-6.0883,-6.11,-6.1353,-6.1571,-6.1897,-6.2005,-6.2005,-6.2041,-6.2041,-6.2041,-6.2041,-6.2041,-6.2041,-6.2041,-6.2041,-6.2041,-6.2041,-6.2041,-6.2331,-6.3056,-6.3309,-6.407,-6.4504,-6.4794,-6.5518,-6.6062,-6.6605,-6.6677,-6.6786,-6.6822,-6.6822,-6.6822,-6.6822,-6.6822,-6.6822,-6.6822,-6.6822,-6.6822,-6.6822,-6.6822,-6.6822,-6.6822,-6.6533,-6.5808,-6.5265,-6.4504,-6.378,-6.2947,-6.2259,-6.2078,-6.2404,-6.2875,-6.3309,-6.3945,-6.4887,-6.5685,-6.5591,-6.5518,-6.5337,-6.5337,-6.5591,-6.5844,-6.5844,-6.5989,-6.6134,-6.6388,-6.6677,-6.6822,-6.6822,-6.6822,-5.7188,-5.7188,-5.7188,-5.7188,-5.7188,-5.7188,-5.7188,-5.7188,-5.7188,-5.7188,-5.7188,-5.7188,-5.7188,-5.7188,-5.7188,-5.7188,-5.7188,-5.7188,-5.7188,-5.7188,-5.7188,-5.7188,-5.7188,-5.7188,-5.7188,-5.7188,-5.7188,-5.7188,-5.7188,-5.7188,-5.7188,-5.7188,-5.7224,-5.7261,-5.7297,-5.7478,-5.7913,-5.8891,-5.9542,-6.0194,-6.0593,-6.0955,-6.0955,-6.1208,-6.1571,-6.1969,-6.2005,-6.2005,-6.2005,-6.2005,-6.2041,-6.2041,-6.2041,-6.2041,-6.2041,-6.2041,-6.2041,-6.2041,-6.2041,-6.2041,-6.2041,-6.2041,-6.2078,-6.2549,-6.3309,-6.407,-6.483,-6.5374,-6.5663,-6.5953,-6.6496,-6.675,-6.6786,-6.6822,-6.6822,-6.6822,-6.6822,-6.6822,-6.6822,-6.6822,-6.6822,-6.6822,-6.6822,-6.6822,-6.6822,-6.6822,-6.6641,-6.6315,-6.5953,-6.5591,-6.5084,-6.4396,-6.3671,-6.3019,-6.2549,-6.2838,-6.349,-6.407,-6.4758,-6.5736,-6.6424,-6.6243,-6.6279,-6.6496,-6.6533,-6.6388,-6.646,-6.6496,-6.6677,-6.6714,-6.6691,-6.6668,-6.6786,-6.6727,-6.6822,-5.7188,-5.7188,-5.7188,-5.7188,-5.7188,-5.7188,-5.7188,-5.7188,-5.7188,-5.7188,-5.7188,-5.7188,-5.7188,-5.7188,-5.7188,-5.7188,-5.7188,-5.7188,-5.7188,-5.7188,-5.7188,-5.7188,-5.7188,-5.7188,-5.7188,-5.7188,-5.7188,-5.7188,-5.7188,-5.7188,-5.7224,-5.7261,-5.7261,-5.755,-5.813,-5.8347,-5.8782,-5.9687,-6.0303,-6.0846,-6.1462,-6.1716,-6.1788,-6.1897,-6.1933,-6.2005,-6.2005,-6.2005,-6.2005,-6.2005,-6.2041,-6.2041,-6.2041,-6.2041,-6.2041,-6.2041,-6.2041,-6.2041,-6.2041,-6.2041,-6.2041,-6.2259,-6.2512,-6.3237,-6.3997,-6.4794,-6.5518,-6.6207,-6.6424,-6.6424,-6.6786,-6.6786,-6.6822,-6.6822,-6.6822,-6.6822,-6.6822,-6.6822,-6.6822,-6.6822,-6.6822,-6.6822,-6.6822,-6.6822,-6.6822,-6.6822,-6.6822,-6.6496,-6.6424,-6.6025,-6.5591,-6.5084,-6.4432,-6.4215,-6.3961,-6.3889,-6.4359,-6.4939,-6.5446,-6.6098,-6.6533,-6.6714,-6.6822,-6.6727,-6.6727,-6.6618,-6.6786,-6.6727,-6.6727,-6.6632,-6.6572,-6.6572,-6.6668,-6.6727,-6.6727]}]]